<?xml version='1.0' encoding='UTF-8'?><gpx version="1.1" creator="JPX - https://github.com/jenetics/jpx" xmlns="http://www.topografix.com/GPX/1/1"><trk><trkseg><trkpt lat="44.68511647893564" lon="8.03838142495993"><ele>179.83333333333334</ele><time>2026-04-11T14:02:39.001Z</time></trkpt><trkpt lat="44.6851635324228" lon="8.03828032005043"><ele>179.66666666666666</ele><time>2026-04-11T14:02:41.001Z</time></trkpt><trkpt lat="44.68524032343934" lon="8.038254274785958"><ele>179.5</ele><time>2026-04-11T14:02:44.001Z</time></trkpt><trkpt lat="44.68531728804458" lon="8.038191176912779"><ele>179.33333333333331</ele><time>2026-04-11T14:02:45.001Z</time></trkpt><trkpt lat="44.685381515603105" lon="8.038159487479433"><ele>179.16666666666666</ele><time>2026-04-11T14:02:46.001Z</time></trkpt><trkpt lat="44.6854496830922" lon="8.0381348739366"><ele>179.0</ele><time>2026-04-11T14:02:47.001Z</time></trkpt><trkpt lat="44.68552153028566" lon="8.03808620926747"><ele>179.0</ele><time>2026-04-11T14:02:48.001Z</time></trkpt><trkpt lat="44.685605028647345" lon="8.03804316205135"><ele>179.0</ele><time>2026-04-11T14:02:50.001Z</time></trkpt><trkpt lat="44.68561211520438" lon="8.037911388650633"><ele>179.0</ele><time>2026-04-11T14:02:52.001Z</time></trkpt><trkpt lat="44.685575316386405" lon="8.03780265977451"><ele>179.0</ele><time>2026-04-11T14:02:53.001Z</time></trkpt><trkpt lat="44.685526486752984" lon="8.037677395750002"><ele>179.0</ele><time>2026-04-11T14:02:54.001Z</time></trkpt><trkpt lat="44.685478094171465" lon="8.037529139522757"><ele>179.79999999999998</ele><time>2026-04-11T14:02:55.001Z</time></trkpt><trkpt lat="44.68542577539422" lon="8.037387373576646"><ele>180.6</ele><time>2026-04-11T14:02:56.001Z</time></trkpt><trkpt lat="44.685393390859986" lon="8.037237577338269"><ele>181.4</ele><time>2026-04-11T14:02:57.001Z</time></trkpt><trkpt lat="44.68534929372791" lon="8.037102395824272"><ele>182.2</ele><time>2026-04-11T14:02:58.001Z</time></trkpt><trkpt lat="44.68529602332856" lon="8.036974315820263"><ele>183.0</ele><time>2026-04-11T14:02:59.001Z</time></trkpt><trkpt lat="44.685251419438345" lon="8.036842304024988"><ele>183.2</ele><time>2026-04-11T14:03:00.001Z</time></trkpt><trkpt lat="44.685206876834755" lon="8.036714962571137"><ele>183.4</ele><time>2026-04-11T14:03:01.001Z</time></trkpt><trkpt lat="44.68516600824285" lon="8.036597439636942"><ele>183.6</ele><time>2026-04-11T14:03:02.001Z</time></trkpt><trkpt lat="44.68513790131863" lon="8.0364766568302"><ele>183.79999999999998</ele><time>2026-04-11T14:03:03.001Z</time></trkpt><trkpt lat="44.68510090577208" lon="8.036366579197443"><ele>184.0</ele><time>2026-04-11T14:03:04.001Z</time></trkpt><trkpt lat="44.685066448039954" lon="8.036263977048133"><ele>184.0</ele><time>2026-04-11T14:03:05.001Z</time></trkpt><trkpt lat="44.68503352864086" lon="8.036165973764886"><ele>184.0</ele><time>2026-04-11T14:03:06.001Z</time></trkpt><trkpt lat="44.68500151924802" lon="8.036070679625611"><ele>184.0</ele><time>2026-04-11T14:03:07.001Z</time></trkpt><trkpt lat="44.68497018750451" lon="8.035977402972192"><ele>184.0</ele><time>2026-04-11T14:03:08.001Z</time></trkpt><trkpt lat="44.68493768537608" lon="8.035885669983093"><ele>184.0</ele><time>2026-04-11T14:03:09.001Z</time></trkpt><trkpt lat="44.68490911819742" lon="8.03580334755777"><ele>184.0</ele><time>2026-04-11T14:03:10.001Z</time></trkpt><trkpt lat="44.68487335110049" lon="8.035700277034147"><ele>184.0</ele><time>2026-04-11T14:03:11.001Z</time></trkpt><trkpt lat="44.68482835996953" lon="8.035570228779676"><ele>184.39999999999998</ele><time>2026-04-11T14:03:12.001Z</time></trkpt><trkpt lat="44.684769367824785" lon="8.035396084325267"><ele>184.8</ele><time>2026-04-11T14:03:13.001Z</time></trkpt><trkpt lat="44.68471522282021" lon="8.035240130071243"><ele>185.2</ele><time>2026-04-11T14:03:14.001Z</time></trkpt><trkpt lat="44.6846649242343" lon="8.03512979360849"><ele>185.60000000000002</ele><time>2026-04-11T14:03:15.001Z</time></trkpt><trkpt lat="44.68463856983055" lon="8.035040122230539"><ele>186.0</ele><time>2026-04-11T14:03:16.001Z</time></trkpt><trkpt lat="44.68463862252873" lon="8.034944835844028"><ele>186.75</ele><time>2026-04-11T14:03:18.001Z</time></trkpt><trkpt lat="44.684763264592576" lon="8.034861689424561"><ele>187.5</ele><time>2026-04-11T14:03:20.001Z</time></trkpt><trkpt lat="44.68488949264954" lon="8.034818883506714"><ele>188.25</ele><time>2026-04-11T14:03:21.001Z</time></trkpt><trkpt lat="44.68501449569752" lon="8.034762637806434"><ele>189.0</ele><time>2026-04-11T14:03:22.001Z</time></trkpt><trkpt lat="44.68511730094715" lon="8.03471544376953"><ele>189.0</ele><time>2026-04-11T14:03:23.001Z</time></trkpt><trkpt lat="44.68520740608978" lon="8.034670681086524"><ele>189.0</ele><time>2026-04-11T14:03:24.001Z</time></trkpt><trkpt lat="44.68528453728213" lon="8.034636376232262"><ele>189.0</ele><time>2026-04-11T14:03:25.001Z</time></trkpt><trkpt lat="44.68536453358235" lon="8.034596389998354"><ele>189.0</ele><time>2026-04-11T14:03:26.001Z</time></trkpt><trkpt lat="44.68544713261989" lon="8.034554036823478"><ele>189.0</ele><time>2026-04-11T14:03:27.001Z</time></trkpt><trkpt lat="44.68553952650307" lon="8.034533652504626"><ele>189.0</ele><time>2026-04-11T14:03:28.001Z</time></trkpt><trkpt lat="44.68561292055726" lon="8.034500663113457"><ele>188.33333333333334</ele><time>2026-04-11T14:03:29.001Z</time></trkpt><trkpt lat="44.68572629719394" lon="8.03443438148732"><ele>187.66666666666666</ele><time>2026-04-11T14:03:31.001Z</time></trkpt><trkpt lat="44.68584365903926" lon="8.034381315846415"><ele>187.0</ele><time>2026-04-11T14:03:33.001Z</time></trkpt><trkpt lat="44.685905729803274" lon="8.034355069182032"><ele>186.33333333333331</ele><time>2026-04-11T14:03:34.001Z</time></trkpt><trkpt lat="44.68596863640875" lon="8.034327086426101"><ele>185.66666666666666</ele><time>2026-04-11T14:03:35.001Z</time></trkpt><trkpt lat="44.68603001049378" lon="8.03429822189505"><ele>185.0</ele><time>2026-04-11T14:03:36.001Z</time></trkpt><trkpt lat="44.6861518870545" lon="8.034261855613428"><ele>184.5</ele><time>2026-04-11T14:03:38.001Z</time></trkpt><trkpt lat="44.686220841437404" lon="8.034266310262636"><ele>184.0</ele><time>2026-04-11T14:03:39.001Z</time></trkpt><trkpt lat="44.68633600046686" lon="8.03424404485572"><ele>183.5</ele><time>2026-04-11T14:03:41.001Z</time></trkpt><trkpt lat="44.68641374754558" lon="8.034256857144394"><ele>183.0</ele><time>2026-04-11T14:03:42.001Z</time></trkpt><trkpt lat="44.68647733915391" lon="8.034185242101712"><ele>182.5</ele><time>2026-04-11T14:03:43.001Z</time></trkpt><trkpt lat="44.68656009807064" lon="8.034182591558336"><ele>182.0</ele><time>2026-04-11T14:03:44.001Z</time></trkpt><trkpt lat="44.68668013694537" lon="8.034176865048622"><ele>182.0</ele><time>2026-04-11T14:03:45.001Z</time></trkpt><trkpt lat="44.68683757484252" lon="8.03417584349992"><ele>182.0</ele><time>2026-04-11T14:03:46.001Z</time></trkpt><trkpt lat="44.68700314412247" lon="8.034302846976596"><ele>182.0</ele><time>2026-04-11T14:03:47.001Z</time></trkpt><trkpt lat="44.68716744815165" lon="8.034187830674563"><ele>182.0</ele><time>2026-04-11T14:03:48.001Z</time></trkpt><trkpt lat="44.68729886450324" lon="8.03418028195763"><ele>182.0</ele><time>2026-04-11T14:03:49.001Z</time></trkpt><trkpt lat="44.687435758672095" lon="8.034177900667482"><ele>182.0</ele><time>2026-04-11T14:03:50.001Z</time></trkpt><trkpt lat="44.68761571032073" lon="8.034176224863034"><ele>182.0</ele><time>2026-04-11T14:03:51.001Z</time></trkpt><trkpt lat="44.68781624195416" lon="8.034182367839202"><ele>182.0</ele><time>2026-04-11T14:03:52.001Z</time></trkpt><trkpt lat="44.687981314706256" lon="8.034189102176562"><ele>182.0</ele><time>2026-04-11T14:03:53.001Z</time></trkpt><trkpt lat="44.68812292454226" lon="8.03419290592476"><ele>182.0</ele><time>2026-04-11T14:03:54.001Z</time></trkpt><trkpt lat="44.688248224360954" lon="8.03418829918664"><ele>182.0</ele><time>2026-04-11T14:03:55.001Z</time></trkpt><trkpt lat="44.688351076893824" lon="8.034181687739618"><ele>182.0</ele><time>2026-04-11T14:03:56.001Z</time></trkpt><trkpt lat="44.688439758004655" lon="8.034176635384332"><ele>182.0</ele><time>2026-04-11T14:03:57.001Z</time></trkpt><trkpt lat="44.68850987309941" lon="8.034176383444905"><ele>182.0</ele><time>2026-04-11T14:03:58.001Z</time></trkpt><trkpt lat="44.68861901803584" lon="8.034178513632238"><ele>182.0</ele><time>2026-04-11T14:04:00.001Z</time></trkpt><trkpt lat="44.68868506082424" lon="8.034172531346858"><ele>182.0</ele><time>2026-04-11T14:04:02.001Z</time></trkpt><trkpt lat="44.6887688785054" lon="8.034178101950756"><ele>182.0</ele><time>2026-04-11T14:04:06.001Z</time></trkpt><trkpt lat="44.68887802208429" lon="8.034218548338423"><ele>182.0</ele><time>2026-04-11T14:04:08.001Z</time></trkpt><trkpt lat="44.68897325190763" lon="8.034205910901006"><ele>182.0</ele><time>2026-04-11T14:04:10.001Z</time></trkpt><trkpt lat="44.68907008817925" lon="8.034162314141561"><ele>182.0</ele><time>2026-04-11T14:04:11.001Z</time></trkpt><trkpt lat="44.68920361158032" lon="8.03413873361455"><ele>182.0</ele><time>2026-04-11T14:04:12.001Z</time></trkpt><trkpt lat="44.68937707054794" lon="8.034137125858383"><ele>181.66666666666666</ele><time>2026-04-11T14:04:13.001Z</time></trkpt><trkpt lat="44.689549751646744" lon="8.034143082710289"><ele>181.33333333333334</ele><time>2026-04-11T14:04:14.001Z</time></trkpt><trkpt lat="44.68970087573283" lon="8.034142799605757"><ele>181.0</ele><time>2026-04-11T14:04:15.001Z</time></trkpt><trkpt lat="44.689837263976536" lon="8.034136756644376"><ele>181.0</ele><time>2026-04-11T14:04:16.001Z</time></trkpt><trkpt lat="44.68998346756419" lon="8.034138024898608"><ele>181.0</ele><time>2026-04-11T14:04:17.001Z</time></trkpt><trkpt lat="44.69013135226884" lon="8.034146059820653"><ele>181.0</ele><time>2026-04-11T14:04:18.001Z</time></trkpt><trkpt lat="44.69025496415972" lon="8.034140913455106"><ele>181.0</ele><time>2026-04-11T14:04:19.001Z</time></trkpt><trkpt lat="44.690375400999116" lon="8.03413394458612"><ele>181.33333333333334</ele><time>2026-04-11T14:04:20.001Z</time></trkpt><trkpt lat="44.69050226928033" lon="8.034130788432533"><ele>181.66666666666666</ele><time>2026-04-11T14:04:21.001Z</time></trkpt><trkpt lat="44.69063662125535" lon="8.03427158558136"><ele>182.0</ele><time>2026-04-11T14:04:22.001Z</time></trkpt><trkpt lat="44.690771305764606" lon="8.034145844170919"><ele>182.0</ele><time>2026-04-11T14:04:23.001Z</time></trkpt><trkpt lat="44.69091263063194" lon="8.034146362963575"><ele>182.0</ele><time>2026-04-11T14:04:24.001Z</time></trkpt><trkpt lat="44.691038784675996" lon="8.034135954250326"><ele>182.0</ele><time>2026-04-11T14:04:25.001Z</time></trkpt><trkpt lat="44.69118205165562" lon="8.034127392267672"><ele>182.0</ele><time>2026-04-11T14:04:26.001Z</time></trkpt><trkpt lat="44.691356723051754" lon="8.034125100284282"><ele>182.0</ele><time>2026-04-11T14:04:27.001Z</time></trkpt><trkpt lat="44.691521940071844" lon="8.03412627991594"><ele>182.0</ele><time>2026-04-11T14:04:28.001Z</time></trkpt><trkpt lat="44.691653340477906" lon="8.034131324196368"><ele>182.0</ele><time>2026-04-11T14:04:29.002Z</time></trkpt><trkpt lat="44.69178288859199" lon="8.034156460388633"><ele>182.0</ele><time>2026-04-11T14:04:30.002Z</time></trkpt><trkpt lat="44.69191964420117" lon="8.034122216775389"><ele>181.75</ele><time>2026-04-11T14:04:31Z</time></trkpt><trkpt lat="44.692052194986246" lon="8.0341241040826"><ele>181.5</ele><time>2026-04-11T14:04:32Z</time></trkpt><trkpt lat="44.692191149376356" lon="8.0341311789527"><ele>181.25</ele><time>2026-04-11T14:04:33Z</time></trkpt><trkpt lat="44.69231590741876" lon="8.034124227953543"><ele>181.0</ele><time>2026-04-11T14:04:34Z</time></trkpt><trkpt lat="44.692436540236855" lon="8.034147905135528"><ele>181.0</ele><time>2026-04-11T14:04:35Z</time></trkpt><trkpt lat="44.69255754726046" lon="8.034108063816323"><ele>181.0</ele><time>2026-04-11T14:04:36Z</time></trkpt><trkpt lat="44.69268906309962" lon="8.034102148116563"><ele>181.0</ele><time>2026-04-11T14:04:37Z</time></trkpt><trkpt lat="44.69280049995203" lon="8.034107148399517"><ele>181.0</ele><time>2026-04-11T14:04:38Z</time></trkpt><trkpt lat="44.692899347565586" lon="8.034110714510302"><ele>180.5</ele><time>2026-04-11T14:04:39Z</time></trkpt><trkpt lat="44.69297419070355" lon="8.034108664985013"><ele>180.0</ele><time>2026-04-11T14:04:40Z</time></trkpt><trkpt lat="44.693041977871374" lon="8.034109754960795"><ele>179.5</ele><time>2026-04-11T14:04:41Z</time></trkpt><trkpt lat="44.69310589195546" lon="8.034109155670665"><ele>179.0</ele><time>2026-04-11T14:04:42Z</time></trkpt><trkpt lat="44.69316292715813" lon="8.034146761531458"><ele>178.5</ele><time>2026-04-11T14:04:43Z</time></trkpt><trkpt lat="44.693267021963216" lon="8.0341175778723"><ele>178.0</ele><time>2026-04-11T14:04:45Z</time></trkpt><trkpt lat="44.693381533918156" lon="8.034110454811527"><ele>178.0</ele><time>2026-04-11T14:04:47Z</time></trkpt><trkpt lat="44.69349389954053" lon="8.034117628205106"><ele>178.0</ele><time>2026-04-11T14:04:49Z</time></trkpt><trkpt lat="44.69360877114464" lon="8.034160425636138"><ele>178.0</ele><time>2026-04-11T14:04:51Z</time></trkpt><trkpt lat="44.69367413283192" lon="8.03420445211549"><ele>178.0</ele><time>2026-04-11T14:04:52Z</time></trkpt><trkpt lat="44.69375265907819" lon="8.034238051913833"><ele>178.0</ele><time>2026-04-11T14:04:53Z</time></trkpt><trkpt lat="44.69384998062724" lon="8.034256374164215"><ele>177.66666666666669</ele><time>2026-04-11T14:04:54Z</time></trkpt><trkpt lat="44.69395242484503" lon="8.034242430150488"><ele>177.33333333333334</ele><time>2026-04-11T14:04:55Z</time></trkpt><trkpt lat="44.69404428591057" lon="8.03423104116788"><ele>177.0</ele><time>2026-04-11T14:04:56Z</time></trkpt><trkpt lat="44.69412591648569" lon="8.034236944425544"><ele>176.66666666666666</ele><time>2026-04-11T14:04:58Z</time></trkpt><trkpt lat="44.69419056507503" lon="8.034240447374417"><ele>176.33333333333331</ele><time>2026-04-11T14:04:59Z</time></trkpt><trkpt lat="44.69427358939294" lon="8.034237321441678"><ele>176.0</ele><time>2026-04-11T14:05:00Z</time></trkpt><trkpt lat="44.694366267480135" lon="8.03422719219851"><ele>175.60000000000002</ele><time>2026-04-11T14:05:01Z</time></trkpt><trkpt lat="44.69446432185363" lon="8.034223427404969"><ele>175.2</ele><time>2026-04-11T14:05:02Z</time></trkpt><trkpt lat="44.69456538624952" lon="8.034218505989795"><ele>174.8</ele><time>2026-04-11T14:05:03Z</time></trkpt><trkpt lat="44.694665354361405" lon="8.034206691943867"><ele>174.39999999999998</ele><time>2026-04-11T14:05:04Z</time></trkpt><trkpt lat="44.694775992367354" lon="8.03419916765119"><ele>174.0</ele><time>2026-04-11T14:05:05Z</time></trkpt><trkpt lat="44.69489216114643" lon="8.03416415750059"><ele>174.0</ele><time>2026-04-11T14:05:06Z</time></trkpt><trkpt lat="44.69500795404165" lon="8.034131453210918"><ele>174.0</ele><time>2026-04-11T14:05:07Z</time></trkpt><trkpt lat="44.69513525602239" lon="8.034113629798044"><ele>174.0</ele><time>2026-04-11T14:05:08Z</time></trkpt><trkpt lat="44.6952718666141" lon="8.03410292754766"><ele>174.0</ele><time>2026-04-11T14:05:09Z</time></trkpt><trkpt lat="44.695411991156945" lon="8.034097173602984"><ele>174.25</ele><time>2026-04-11T14:05:10Z</time></trkpt><trkpt lat="44.6955461824463" lon="8.03410976381745"><ele>174.5</ele><time>2026-04-11T14:05:11Z</time></trkpt><trkpt lat="44.69568393320526" lon="8.034087368171418"><ele>174.75</ele><time>2026-04-11T14:05:12Z</time></trkpt><trkpt lat="44.695802042454076" lon="8.034089277147153"><ele>175.0</ele><time>2026-04-11T14:05:13Z</time></trkpt><trkpt lat="44.69590664658157" lon="8.034091585844001"><ele>175.0</ele><time>2026-04-11T14:05:14Z</time></trkpt><trkpt lat="44.695991710594434" lon="8.034095542243968"><ele>175.0</ele><time>2026-04-11T14:05:15Z</time></trkpt><trkpt lat="44.69606048112477" lon="8.034102477215528"><ele>175.0</ele><time>2026-04-11T14:05:16Z</time></trkpt><trkpt lat="44.6961729243344" lon="8.03411128572213"><ele>175.0</ele><time>2026-04-11T14:05:18Z</time></trkpt><trkpt lat="44.69628440995567" lon="8.034143366771398"><ele>175.0</ele><time>2026-04-11T14:05:20Z</time></trkpt><trkpt lat="44.6963406862678" lon="8.034192559406264"><ele>175.0</ele><time>2026-04-11T14:05:21Z</time></trkpt><trkpt lat="44.69643150938844" lon="8.034282559217663"><ele>175.33333333333334</ele><time>2026-04-11T14:05:23Z</time></trkpt><trkpt lat="44.69648498092168" lon="8.034430478359003"><ele>175.66666666666669</ele><time>2026-04-11T14:05:25Z</time></trkpt><trkpt lat="44.696491428692056" lon="8.034524532528474"><ele>176.0</ele><time>2026-04-11T14:05:26Z</time></trkpt><trkpt lat="44.69648717495056" lon="8.034618811038449"><ele>176.33333333333334</ele><time>2026-04-11T14:05:27Z</time></trkpt><trkpt lat="44.69648252357314" lon="8.03472303929262"><ele>176.66666666666666</ele><time>2026-04-11T14:05:28Z</time></trkpt><trkpt lat="44.69647213954819" lon="8.034826683728058"><ele>177.0</ele><time>2026-04-11T14:05:29Z</time></trkpt><trkpt lat="44.69646355211396" lon="8.03492979777919"><ele>177.0</ele><time>2026-04-11T14:05:30Z</time></trkpt><trkpt lat="44.69646085871956" lon="8.035100983590256"><ele>177.0</ele><time>2026-04-11T14:05:32Z</time></trkpt><trkpt lat="44.69645411009401" lon="8.035251354336516"><ele>177.0</ele><time>2026-04-11T14:05:34Z</time></trkpt><trkpt lat="44.696444276374336" lon="8.0353791881337"><ele>177.0</ele><time>2026-04-11T14:05:36Z</time></trkpt><trkpt lat="44.696443684314026" lon="8.035560119399294"><ele>177.0</ele><time>2026-04-11T14:05:38Z</time></trkpt><trkpt lat="44.6964129878711" lon="8.035715132246406"><ele>176.33333333333334</ele><time>2026-04-11T14:05:39Z</time></trkpt><trkpt lat="44.69640205509172" lon="8.03591142962634"><ele>175.66666666666669</ele><time>2026-04-11T14:05:40Z</time></trkpt><trkpt lat="44.696403198287236" lon="8.03613776810993"><ele>175.0</ele><time>2026-04-11T14:05:41Z</time></trkpt><trkpt lat="44.69640395263956" lon="8.036389144206707"><ele>175.0</ele><time>2026-04-11T14:05:42Z</time></trkpt><trkpt lat="44.69639554319923" lon="8.036629796654603"><ele>175.0</ele><time>2026-04-11T14:05:43Z</time></trkpt><trkpt lat="44.696374154178116" lon="8.036823469507263"><ele>175.0</ele><time>2026-04-11T14:05:44.001Z</time></trkpt><trkpt lat="44.696364825010036" lon="8.037000768228914"><ele>175.0</ele><time>2026-04-11T14:05:45.001Z</time></trkpt><trkpt lat="44.69633845173846" lon="8.037152104113988"><ele>174.75</ele><time>2026-04-11T14:05:46.001Z</time></trkpt><trkpt lat="44.69630589770523" lon="8.037284976407182"><ele>174.5</ele><time>2026-04-11T14:05:47.001Z</time></trkpt><trkpt lat="44.69630302777651" lon="8.037448069336895"><ele>174.25</ele><time>2026-04-11T14:05:48.001Z</time></trkpt><trkpt lat="44.69632085649839" lon="8.03767342375194"><ele>174.0</ele><time>2026-04-11T14:05:49.001Z</time></trkpt><trkpt lat="44.696303642139355" lon="8.03792419500443"><ele>173.25</ele><time>2026-04-11T14:05:50.001Z</time></trkpt><trkpt lat="44.69623748130366" lon="8.038120467857409"><ele>172.5</ele><time>2026-04-11T14:05:51.001Z</time></trkpt><trkpt lat="44.6962234526229" lon="8.038281061063056"><ele>171.75</ele><time>2026-04-11T14:05:52.001Z</time></trkpt><trkpt lat="44.69621398487707" lon="8.038395094415002"><ele>171.0</ele><time>2026-04-11T14:05:53.001Z</time></trkpt><trkpt lat="44.696199848909835" lon="8.03855166282179"><ele>170.83333333333334</ele><time>2026-04-11T14:05:55.001Z</time></trkpt><trkpt lat="44.696189578467354" lon="8.038665417186385"><ele>170.66666666666666</ele><time>2026-04-11T14:05:56.001Z</time></trkpt><trkpt lat="44.696175150192374" lon="8.038825223205016"><ele>170.5</ele><time>2026-04-11T14:05:57.001Z</time></trkpt><trkpt lat="44.6961629429729" lon="8.038962390841125"><ele>170.33333333333331</ele><time>2026-04-11T14:05:58.001Z</time></trkpt><trkpt lat="44.696152495941234" lon="8.039081188512906"><ele>170.16666666666666</ele><time>2026-04-11T14:06:01.001Z</time></trkpt><trkpt lat="44.696143927802304" lon="8.03917862028293"><ele>170.0</ele><time>2026-04-11T14:06:02.001Z</time></trkpt><trkpt lat="44.696130334274116" lon="8.039323750776601"><ele>170.0</ele><time>2026-04-11T14:06:03.001Z</time></trkpt><trkpt lat="44.696117291437666" lon="8.039465314284037"><ele>170.0</ele><time>2026-04-11T14:06:04.001Z</time></trkpt><trkpt lat="44.69610770330794" lon="8.03956938132617"><ele>170.0</ele><time>2026-04-11T14:06:05.001Z</time></trkpt><trkpt lat="44.69609204239687" lon="8.039739360695425"><ele>170.0</ele><time>2026-04-11T14:06:07.001Z</time></trkpt><trkpt lat="44.69608067933763" lon="8.039862692098772"><ele>170.0</ele><time>2026-04-11T14:06:08.001Z</time></trkpt><trkpt lat="44.696097413021434" lon="8.040019928522712"><ele>170.0</ele><time>2026-04-11T14:06:09.001Z</time></trkpt><trkpt lat="44.69608803090706" lon="8.040194625383881"><ele>170.0</ele><time>2026-04-11T14:06:10.001Z</time></trkpt><trkpt lat="44.69606476848435" lon="8.040412263839604"><ele>170.0</ele><time>2026-04-11T14:06:11.001Z</time></trkpt><trkpt lat="44.696035886094556" lon="8.040624287237844"><ele>170.0</ele><time>2026-04-11T14:06:12.001Z</time></trkpt><trkpt lat="44.69599662445963" lon="8.040759325797366"><ele>168.66666666666666</ele><time>2026-04-11T14:06:13.001Z</time></trkpt><trkpt lat="44.695983181519104" lon="8.040900866920333"><ele>167.33333333333334</ele><time>2026-04-11T14:06:15.001Z</time></trkpt><trkpt lat="44.696251200288025" lon="8.04097803260817"><ele>166.0</ele><time>2026-04-11T14:06:17.001Z</time></trkpt><trkpt lat="44.696412563862125" lon="8.040974881422873"><ele>165.60000000000002</ele><time>2026-04-11T14:06:18.001Z</time></trkpt><trkpt lat="44.69657344909392" lon="8.040976234305408"><ele>165.2</ele><time>2026-04-11T14:06:19.001Z</time></trkpt><trkpt lat="44.696693655948245" lon="8.040979870012318"><ele>164.8</ele><time>2026-04-11T14:06:20.001Z</time></trkpt><trkpt lat="44.696782248118616" lon="8.040972029220436"><ele>164.39999999999998</ele><time>2026-04-11T14:06:21.001Z</time></trkpt><trkpt lat="44.69684839526514" lon="8.040974916301659"><ele>164.0</ele><time>2026-04-11T14:06:22.001Z</time></trkpt><trkpt lat="44.69689853761983" lon="8.041035210803512"><ele>164.0</ele><time>2026-04-11T14:06:23.001Z</time></trkpt><trkpt lat="44.69692232864892" lon="8.041149408249016"><ele>164.0</ele><time>2026-04-11T14:06:24.001Z</time></trkpt><trkpt lat="44.69691238304893" lon="8.041306382221727"><ele>164.0</ele><time>2026-04-11T14:06:25.001Z</time></trkpt><trkpt lat="44.69687444271143" lon="8.041516672117838"><ele>164.0</ele><time>2026-04-11T14:06:26.001Z</time></trkpt><trkpt lat="44.69682740293546" lon="8.041703363593033"><ele>164.39999999999998</ele><time>2026-04-11T14:06:27.001Z</time></trkpt><trkpt lat="44.69680944094519" lon="8.04184160837037"><ele>164.8</ele><time>2026-04-11T14:06:28.001Z</time></trkpt><trkpt lat="44.696836003043394" lon="8.041948131774003"><ele>165.2</ele><time>2026-04-11T14:06:29.001Z</time></trkpt><trkpt lat="44.69690316845197" lon="8.04202472166016"><ele>165.60000000000002</ele><time>2026-04-11T14:06:30.001Z</time></trkpt><trkpt lat="44.697003281912735" lon="8.04206714381555"><ele>166.0</ele><time>2026-04-11T14:06:31.001Z</time></trkpt><trkpt lat="44.69713753763942" lon="8.042080844112842"><ele>166.0</ele><time>2026-04-11T14:06:32.001Z</time></trkpt><trkpt lat="44.6972984557979" lon="8.042106686925397"><ele>166.0</ele><time>2026-04-11T14:06:33.001Z</time></trkpt><trkpt lat="44.69747777162455" lon="8.042142986873198"><ele>166.0</ele><time>2026-04-11T14:06:34.001Z</time></trkpt><trkpt lat="44.69768351172335" lon="8.042191572129177"><ele>165.5</ele><time>2026-04-11T14:06:35.001Z</time></trkpt><trkpt lat="44.6978972723429" lon="8.042243118755227"><ele>165.0</ele><time>2026-04-11T14:06:36.001Z</time></trkpt><trkpt lat="44.698130876558366" lon="8.042297465842351"><ele>165.0</ele><time>2026-04-11T14:06:36.999Z</time></trkpt><trkpt lat="44.69838351824665" lon="8.042356926886217"><ele>165.0</ele><time>2026-04-11T14:06:37.999Z</time></trkpt><trkpt lat="44.69863375533089" lon="8.042417633917017"><ele>166.0</ele><time>2026-04-11T14:06:38.999Z</time></trkpt><trkpt lat="44.698886466866554" lon="8.042476793423207"><ele>167.0</ele><time>2026-04-11T14:06:39.999Z</time></trkpt><trkpt lat="44.699128648835845" lon="8.04253807960521"><ele>167.0</ele><time>2026-04-11T14:06:40.999Z</time></trkpt><trkpt lat="44.69933926826195" lon="8.042597869424618"><ele>167.0</ele><time>2026-04-11T14:06:41.999Z</time></trkpt><trkpt lat="44.69952007368072" lon="8.042681445217568"><ele>167.0</ele><time>2026-04-11T14:06:42.999Z</time></trkpt><trkpt lat="44.699686375014224" lon="8.042769123265218"><ele>167.25</ele><time>2026-04-11T14:06:43.999Z</time></trkpt><trkpt lat="44.6998254843524" lon="8.042849966332723"><ele>167.5</ele><time>2026-04-11T14:06:44.999Z</time></trkpt><trkpt lat="44.69994305028664" lon="8.042924834592815"><ele>167.75</ele><time>2026-04-11T14:06:45.999Z</time></trkpt><trkpt lat="44.700036364823944" lon="8.042987459187794"><ele>168.0</ele><time>2026-04-11T14:06:46.999Z</time></trkpt><trkpt lat="44.70012261111279" lon="8.043113057574583"><ele>168.0</ele><time>2026-04-11T14:06:48.999Z</time></trkpt><trkpt lat="44.70014314844269" lon="8.04320494059995"><ele>168.0</ele><time>2026-04-11T14:06:49.999Z</time></trkpt><trkpt lat="44.700108522493494" lon="8.04329256967133"><ele>168.0</ele><time>2026-04-11T14:06:50.999Z</time></trkpt><trkpt lat="44.70001880454298" lon="8.043375799623712"><ele>168.0</ele><time>2026-04-11T14:06:51.999Z</time></trkpt><trkpt lat="44.6998891542171" lon="8.0434223938187"><ele>168.0</ele><time>2026-04-11T14:06:52.999Z</time></trkpt><trkpt lat="44.6997572918636" lon="8.043440950307328"><ele>168.4</ele><time>2026-04-11T14:06:53.999Z</time></trkpt><trkpt lat="44.69963178229481" lon="8.04344178778532"><ele>168.8</ele><time>2026-04-11T14:06:54.999Z</time></trkpt><trkpt lat="44.69951872581703" lon="8.04343037938995"><ele>169.2</ele><time>2026-04-11T14:06:55.999Z</time></trkpt><trkpt lat="44.699421378577746" lon="8.043417386844114"><ele>169.6</ele><time>2026-04-11T14:06:56.999Z</time></trkpt><trkpt lat="44.699324260437905" lon="8.043419938982918"><ele>170.0</ele><time>2026-04-11T14:06:58Z</time></trkpt><trkpt lat="44.69922568551754" lon="8.043433195992423"><ele>170.0</ele><time>2026-04-11T14:06:59Z</time></trkpt><trkpt lat="44.699133769211016" lon="8.043472149238456"><ele>170.0</ele><time>2026-04-11T14:07:00Z</time></trkpt><trkpt lat="44.69905743594983" lon="8.043515008507688"><ele>170.0</ele><time>2026-04-11T14:07:01Z</time></trkpt><trkpt lat="44.698984300487155" lon="8.043557161433824"><ele>170.0</ele><time>2026-04-11T14:07:02Z</time></trkpt><trkpt lat="44.69891338685951" lon="8.043597849161971"><ele>170.0</ele><time>2026-04-11T14:07:03Z</time></trkpt><trkpt lat="44.69883158071955" lon="8.043643391045451"><ele>170.0</ele><time>2026-04-11T14:07:04Z</time></trkpt><trkpt lat="44.69872626555291" lon="8.043693403221331"><ele>170.0</ele><time>2026-04-11T14:07:05Z</time></trkpt><trkpt lat="44.69861599762527" lon="8.043736146923795"><ele>170.0</ele><time>2026-04-11T14:07:06Z</time></trkpt><trkpt lat="44.69851265763236" lon="8.043758989492641"><ele>170.0</ele><time>2026-04-11T14:07:07Z</time></trkpt><trkpt lat="44.698420500717596" lon="8.0437756585207"><ele>170.0</ele><time>2026-04-11T14:07:08Z</time></trkpt><trkpt lat="44.69832754278967" lon="8.043789314712622"><ele>170.0</ele><time>2026-04-11T14:07:09Z</time></trkpt><trkpt lat="44.69821321723092" lon="8.043808877385661"><ele>171.0</ele><time>2026-04-11T14:07:10Z</time></trkpt><trkpt lat="44.69808298606541" lon="8.043827867062934"><ele>172.0</ele><time>2026-04-11T14:07:11Z</time></trkpt><trkpt lat="44.69795333736313" lon="8.04384834491283"><ele>173.0</ele><time>2026-04-11T14:07:12Z</time></trkpt><trkpt lat="44.69782365786563" lon="8.043868785081177"><ele>174.0</ele><time>2026-04-11T14:07:13Z</time></trkpt><trkpt lat="44.697709574909545" lon="8.043887943022707"><ele>175.0</ele><time>2026-04-11T14:07:14Z</time></trkpt><trkpt lat="44.697591191146195" lon="8.04390163237064"><ele>176.0</ele><time>2026-04-11T14:07:15Z</time></trkpt><trkpt lat="44.69746269775788" lon="8.043931313686457"><ele>177.0</ele><time>2026-04-11T14:07:16Z</time></trkpt><trkpt lat="44.69734252699288" lon="8.044013644973248"><ele>178.0</ele><time>2026-04-11T14:07:17Z</time></trkpt><trkpt lat="44.69724648224526" lon="8.044149120889738"><ele>179.2</ele><time>2026-04-11T14:07:18Z</time></trkpt><trkpt lat="44.69719683015006" lon="8.044296363914475"><ele>180.4</ele><time>2026-04-11T14:07:19Z</time></trkpt><trkpt lat="44.69718914847314" lon="8.044434959589603"><ele>181.6</ele><time>2026-04-11T14:07:20Z</time></trkpt><trkpt lat="44.69721062828395" lon="8.044549119951053"><ele>182.79999999999998</ele><time>2026-04-11T14:07:21Z</time></trkpt><trkpt lat="44.69718873799922" lon="8.044666775008713"><ele>184.0</ele><time>2026-04-11T14:07:23Z</time></trkpt><trkpt lat="44.69709757857263" lon="8.04470744185281"><ele>184.0</ele><time>2026-04-11T14:07:24Z</time></trkpt><trkpt lat="44.69700530663697" lon="8.044767918649013"><ele>184.0</ele><time>2026-04-11T14:07:25Z</time></trkpt><trkpt lat="44.6969069846137" lon="8.044869701551978"><ele>184.0</ele><time>2026-04-11T14:07:26Z</time></trkpt><trkpt lat="44.69678611082757" lon="8.04501216053199"><ele>184.0</ele><time>2026-04-11T14:07:27Z</time></trkpt><trkpt lat="44.696654546890805" lon="8.04516591177134"><ele>186.33333333333334</ele><time>2026-04-11T14:07:28Z</time></trkpt><trkpt lat="44.69651554466259" lon="8.045305016738684"><ele>188.66666666666666</ele><time>2026-04-11T14:07:29Z</time></trkpt><trkpt lat="44.696372743934816" lon="8.045449810339697"><ele>191.0</ele><time>2026-04-11T14:07:30Z</time></trkpt><trkpt lat="44.696215293944356" lon="8.045617302979064"><ele>193.66666666666666</ele><time>2026-04-11T14:07:31Z</time></trkpt><trkpt lat="44.69606289941597" lon="8.045781713215884"><ele>196.33333333333331</ele><time>2026-04-11T14:07:32Z</time></trkpt><trkpt lat="44.69594113404498" lon="8.045907985923373"><ele>199.0</ele><time>2026-04-11T14:07:33Z</time></trkpt><trkpt lat="44.69583921205412" lon="8.04601363726155"><ele>199.75</ele><time>2026-04-11T14:07:34Z</time></trkpt><trkpt lat="44.69573935773806" lon="8.046135252229393"><ele>200.5</ele><time>2026-04-11T14:07:35Z</time></trkpt><trkpt lat="44.69564400188714" lon="8.046280775425723"><ele>201.25</ele><time>2026-04-11T14:07:36Z</time></trkpt><trkpt lat="44.69556096122883" lon="8.04641671074665"><ele>202.0</ele><time>2026-04-11T14:07:37Z</time></trkpt><trkpt lat="44.69551450474501" lon="8.046527499099465"><ele>204.0</ele><time>2026-04-11T14:07:38Z</time></trkpt><trkpt lat="44.69549954959221" lon="8.046639268958815"><ele>206.0</ele><time>2026-04-11T14:07:39Z</time></trkpt><trkpt lat="44.69549256443159" lon="8.04676488098023"><ele>208.0</ele><time>2026-04-11T14:07:40Z</time></trkpt><trkpt lat="44.69545889443327" lon="8.046904155833772"><ele>210.0</ele><time>2026-04-11T14:07:41Z</time></trkpt><trkpt lat="44.695388155904745" lon="8.047055477606976"><ele>212.0</ele><time>2026-04-11T14:07:42Z</time></trkpt><trkpt lat="44.69529827492644" lon="8.04719389011207"><ele>212.50000000000003</ele><time>2026-04-11T14:07:43Z</time></trkpt><trkpt lat="44.69522009779267" lon="8.04730338418163"><ele>213.0</ele><time>2026-04-11T14:07:44Z</time></trkpt><trkpt lat="44.69516275995021" lon="8.047388290777937"><ele>213.5</ele><time>2026-04-11T14:07:45Z</time></trkpt><trkpt lat="44.6951156946327" lon="8.047472289331926"><ele>214.0</ele><time>2026-04-11T14:07:46Z</time></trkpt><trkpt lat="44.695073743824025" lon="8.047557470048602"><ele>214.50000000000003</ele><time>2026-04-11T14:07:47Z</time></trkpt><trkpt lat="44.69503215730748" lon="8.04765220906203"><ele>215.0</ele><time>2026-04-11T14:07:48Z</time></trkpt><trkpt lat="44.69498533856631" lon="8.047750788331463"><ele>215.83333333333334</ele><time>2026-04-11T14:07:49Z</time></trkpt><trkpt lat="44.69494177720013" lon="8.047859101729784"><ele>216.66666666666669</ele><time>2026-04-11T14:07:50Z</time></trkpt><trkpt lat="44.694902652706894" lon="8.047957229513559"><ele>217.5</ele><time>2026-04-11T14:07:51Z</time></trkpt><trkpt lat="44.69485452106075" lon="8.048056529007233"><ele>218.33333333333331</ele><time>2026-04-11T14:07:52Z</time></trkpt><trkpt lat="44.69481375649395" lon="8.048148424669295"><ele>219.16666666666666</ele><time>2026-04-11T14:07:53Z</time></trkpt><trkpt lat="44.69476771805209" lon="8.048257749881945"><ele>220.0</ele><time>2026-04-11T14:07:55Z</time></trkpt><trkpt lat="44.69473536302085" lon="8.048335354031826"><ele>219.99999999999997</ele><time>2026-04-11T14:08:11.001Z</time></trkpt><trkpt lat="44.69467474083616" lon="8.048391757480445"><ele>220.0</ele><time>2026-04-11T14:08:53.999Z</time></trkpt><trkpt lat="44.694765329233626" lon="8.048235793701592"><ele>220.0</ele><time>2026-04-11T14:11:28.001Z</time></trkpt><trkpt lat="44.694805569843645" lon="8.048151582854949"><ele>220.0</ele><time>2026-04-11T14:11:29.001Z</time></trkpt><trkpt lat="44.69484014988605" lon="8.048066930928913"><ele>219.99999999999997</ele><time>2026-04-11T14:11:30.001Z</time></trkpt><trkpt lat="44.694874439231675" lon="8.047990224659591"><ele>220.0</ele><time>2026-04-11T14:11:31.001Z</time></trkpt><trkpt lat="44.69493201611225" lon="8.047850487175538"><ele>220.0</ele><time>2026-04-11T14:11:33.001Z</time></trkpt><trkpt lat="44.69500609582949" lon="8.047705611006837"><ele>220.0</ele><time>2026-04-11T14:11:35.001Z</time></trkpt><trkpt lat="44.6950696480054" lon="8.047557538195894"><ele>220.0</ele><time>2026-04-11T14:11:37.001Z</time></trkpt><trkpt lat="44.69510975022769" lon="8.04748172819405"><ele>220.0</ele><time>2026-04-11T14:11:38.001Z</time></trkpt><trkpt lat="44.69516502622981" lon="8.047390762732748"><ele>220.0</ele><time>2026-04-11T14:11:39.001Z</time></trkpt><trkpt lat="44.695226486957566" lon="8.0472846538475"><ele>218.4</ele><time>2026-04-11T14:11:40.001Z</time></trkpt><trkpt lat="44.69529017439072" lon="8.047190130966234"><ele>216.8</ele><time>2026-04-11T14:11:41.001Z</time></trkpt><trkpt lat="44.69534967921928" lon="8.04709890838756"><ele>215.2</ele><time>2026-04-11T14:11:42.001Z</time></trkpt><trkpt lat="44.69540151436345" lon="8.047002290084183"><ele>213.6</ele><time>2026-04-11T14:11:43.001Z</time></trkpt><trkpt lat="44.69544475722343" lon="8.046904630000556"><ele>212.0</ele><time>2026-04-11T14:11:44.001Z</time></trkpt><trkpt lat="44.69549991375941" lon="8.046752627464878"><ele>212.00000000000003</ele><time>2026-04-11T14:11:46.001Z</time></trkpt><trkpt lat="44.6955148636847" lon="8.04666400736193"><ele>212.0</ele><time>2026-04-11T14:11:47.001Z</time></trkpt><trkpt lat="44.69552585913052" lon="8.046560956120901"><ele>212.0</ele><time>2026-04-11T14:11:48.001Z</time></trkpt><trkpt lat="44.69554842320552" lon="8.046465090577989"><ele>212.0</ele><time>2026-04-11T14:11:49.001Z</time></trkpt><trkpt lat="44.69559849979612" lon="8.046358709243544"><ele>212.00000000000003</ele><time>2026-04-11T14:11:50.001Z</time></trkpt><trkpt lat="44.69567757737511" lon="8.046237094161262"><ele>212.0</ele><time>2026-04-11T14:11:51.001Z</time></trkpt><trkpt lat="44.69576631896051" lon="8.046114616667202"><ele>210.0</ele><time>2026-04-11T14:11:52.001Z</time></trkpt><trkpt lat="44.69585175308776" lon="8.046005058480304"><ele>208.0</ele><time>2026-04-11T14:11:53.001Z</time></trkpt><trkpt lat="44.69592714736456" lon="8.045914804056418"><ele>206.0</ele><time>2026-04-11T14:11:54.001Z</time></trkpt><trkpt lat="44.69599653652177" lon="8.045844964231646"><ele>204.0</ele><time>2026-04-11T14:11:55.001Z</time></trkpt><trkpt lat="44.69606893738018" lon="8.045778895259456"><ele>202.0</ele><time>2026-04-11T14:11:56.001Z</time></trkpt><trkpt lat="44.69613565488447" lon="8.045715412740083"><ele>199.8</ele><time>2026-04-11T14:11:57.001Z</time></trkpt><trkpt lat="44.696202667488905" lon="8.04564493339099"><ele>197.6</ele><time>2026-04-11T14:11:58.001Z</time></trkpt><trkpt lat="44.696267739348485" lon="8.045570718720153"><ele>195.4</ele><time>2026-04-11T14:11:59.001Z</time></trkpt><trkpt lat="44.69634079010623" lon="8.045495432749213"><ele>193.20000000000002</ele><time>2026-04-11T14:12:00.001Z</time></trkpt><trkpt lat="44.69641500079406" lon="8.045409484179311"><ele>191.0</ele><time>2026-04-11T14:12:01.001Z</time></trkpt><trkpt lat="44.696493805432695" lon="8.045327791178751"><ele>191.0</ele><time>2026-04-11T14:12:02.001Z</time></trkpt><trkpt lat="44.69657771800692" lon="8.045243811011872"><ele>191.0</ele><time>2026-04-11T14:12:03.001Z</time></trkpt><trkpt lat="44.6966611426857" lon="8.04515304372725"><ele>191.0</ele><time>2026-04-11T14:12:04.001Z</time></trkpt><trkpt lat="44.696741743953446" lon="8.04506351891501"><ele>191.0</ele><time>2026-04-11T14:12:05.001Z</time></trkpt><trkpt lat="44.69682494539481" lon="8.044970314274018"><ele>191.0</ele><time>2026-04-11T14:12:06.001Z</time></trkpt><trkpt lat="44.69689817037632" lon="8.044880708755112"><ele>189.83333333333331</ele><time>2026-04-11T14:12:07.001Z</time></trkpt><trkpt lat="44.696972816314215" lon="8.044803588631355"><ele>188.66666666666666</ele><time>2026-04-11T14:12:08.001Z</time></trkpt><trkpt lat="44.6970456816015" lon="8.044742719178245"><ele>187.5</ele><time>2026-04-11T14:12:09.001Z</time></trkpt><trkpt lat="44.697115271106604" lon="8.044702780118044"><ele>186.33333333333334</ele><time>2026-04-11T14:12:10.001Z</time></trkpt><trkpt lat="44.697177188323636" lon="8.044684784857496"><ele>185.16666666666669</ele><time>2026-04-11T14:12:11.001Z</time></trkpt><trkpt lat="44.69726725248609" lon="8.044673007252579"><ele>184.0</ele><time>2026-04-11T14:12:13.001Z</time></trkpt><trkpt lat="44.69741772512553" lon="8.044680044147706"><ele>184.0</ele><time>2026-04-11T14:12:15.001Z</time></trkpt><trkpt lat="44.69756308946325" lon="8.044679139589519"><ele>184.0</ele><time>2026-04-11T14:12:16.001Z</time></trkpt><trkpt lat="44.6977188214354" lon="8.044640299161946"><ele>184.0</ele><time>2026-04-11T14:12:17.001Z</time></trkpt><trkpt lat="44.697870625902176" lon="8.044593365827378"><ele>182.75</ele><time>2026-04-11T14:12:18.001Z</time></trkpt><trkpt lat="44.69801738506802" lon="8.04459098029687"><ele>181.5</ele><time>2026-04-11T14:12:19.001Z</time></trkpt><trkpt lat="44.69815019718387" lon="8.044669256190197"><ele>180.25</ele><time>2026-04-11T14:12:20.001Z</time></trkpt><trkpt lat="44.69825010887047" lon="8.044795966632602"><ele>179.0</ele><time>2026-04-11T14:12:21.001Z</time></trkpt><trkpt lat="44.69832941209102" lon="8.044970837626954"><ele>182.33333333333331</ele><time>2026-04-11T14:12:22.001Z</time></trkpt><trkpt lat="44.6983970070238" lon="8.045194166158366"><ele>185.66666666666666</ele><time>2026-04-11T14:12:23.001Z</time></trkpt><trkpt lat="44.6984509074109" lon="8.045421575755633"><ele>189.0</ele><time>2026-04-11T14:12:24.001Z</time></trkpt><trkpt lat="44.69851072758322" lon="8.045602162496738"><ele>187.75</ele><time>2026-04-11T14:12:25.001Z</time></trkpt><trkpt lat="44.698611040970256" lon="8.045703098754464"><ele>186.5</ele><time>2026-04-11T14:12:26.001Z</time></trkpt><trkpt lat="44.698738001371005" lon="8.045732340718844"><ele>185.25</ele><time>2026-04-11T14:12:27.001Z</time></trkpt><trkpt lat="44.69888580039077" lon="8.045704822967963"><ele>184.0</ele><time>2026-04-11T14:12:28.001Z</time></trkpt><trkpt lat="44.699050140624095" lon="8.045644204096687"><ele>184.0</ele><time>2026-04-11T14:12:29.001Z</time></trkpt><trkpt lat="44.69922341842297" lon="8.045582930235183"><ele>184.0</ele><time>2026-04-11T14:12:30.001Z</time></trkpt><trkpt lat="44.699380300105055" lon="8.045571109637427"><ele>184.0</ele><time>2026-04-11T14:12:31.001Z</time></trkpt><trkpt lat="44.69952213939102" lon="8.045623191861905"><ele>184.0</ele><time>2026-04-11T14:12:32.001Z</time></trkpt><trkpt lat="44.69966890085789" lon="8.045702944000347"><ele>184.0</ele><time>2026-04-11T14:12:33.001Z</time></trkpt><trkpt lat="44.69980875864171" lon="8.04579425431604"><ele>184.0</ele><time>2026-04-11T14:12:34.001Z</time></trkpt><trkpt lat="44.69993153661169" lon="8.045894826907084"><ele>186.6</ele><time>2026-04-11T14:12:35.001Z</time></trkpt><trkpt lat="44.70002117442028" lon="8.04600335350905"><ele>189.2</ele><time>2026-04-11T14:12:36.001Z</time></trkpt><trkpt lat="44.7000532822284" lon="8.046137402022437"><ele>191.79999999999998</ele><time>2026-04-11T14:12:37.001Z</time></trkpt><trkpt lat="44.70002481564532" lon="8.046278723029962"><ele>194.39999999999998</ele><time>2026-04-11T14:12:38.001Z</time></trkpt><trkpt lat="44.69994856468239" lon="8.046385322546541"><ele>197.0</ele><time>2026-04-11T14:12:39.001Z</time></trkpt><trkpt lat="44.69983574091331" lon="8.046447170761134"><ele>197.0</ele><time>2026-04-11T14:12:40.001Z</time></trkpt><trkpt lat="44.6996987438864" lon="8.046450990529491"><ele>197.0</ele><time>2026-04-11T14:12:41.001Z</time></trkpt><trkpt lat="44.69955045175758" lon="8.046424101038962"><ele>197.0</ele><time>2026-04-11T14:12:42.001Z</time></trkpt><trkpt lat="44.69938907659286" lon="8.046437186265722"><ele>197.0</ele><time>2026-04-11T14:12:43.001Z</time></trkpt><trkpt lat="44.69921359008784" lon="8.04650565083997"><ele>197.0</ele><time>2026-04-11T14:12:44.002Z</time></trkpt><trkpt lat="44.699031583357524" lon="8.046589838296331"><ele>197.0</ele><time>2026-04-11T14:12:45.002Z</time></trkpt><trkpt lat="44.69884421414611" lon="8.04664709083915"><ele>197.0</ele><time>2026-04-11T14:12:46.002Z</time></trkpt><trkpt lat="44.69865625926428" lon="8.046690945614545"><ele>200.66666666666669</ele><time>2026-04-11T14:12:47.002Z</time></trkpt><trkpt lat="44.69847502121422" lon="8.046775025213352"><ele>204.33333333333331</ele><time>2026-04-11T14:12:48.002Z</time></trkpt><trkpt lat="44.6983033776262" lon="8.046934820876873"><ele>208.0</ele><time>2026-04-11T14:12:49.002Z</time></trkpt><trkpt lat="44.69813339735519" lon="8.047128789080425"><ele>208.0</ele><time>2026-04-11T14:12:50.002Z</time></trkpt><trkpt lat="44.69797037927973" lon="8.047286196929958"><ele>208.0</ele><time>2026-04-11T14:12:51.002Z</time></trkpt><trkpt lat="44.69782411958545" lon="8.047359522868698"><ele>208.0</ele><time>2026-04-11T14:12:52.002Z</time></trkpt><trkpt lat="44.697684511612735" lon="8.047346096708749"><ele>209.66666666666666</ele><time>2026-04-11T14:12:53.002Z</time></trkpt><trkpt lat="44.697550854340825" lon="8.04726104437051"><ele>211.33333333333331</ele><time>2026-04-11T14:12:54.002Z</time></trkpt><trkpt lat="44.69744189951242" lon="8.047110103878309"><ele>213.0</ele><time>2026-04-11T14:12:55Z</time></trkpt><trkpt lat="44.69735439947952" lon="8.046907103150744"><ele>213.0</ele><time>2026-04-11T14:12:56Z</time></trkpt><trkpt lat="44.69729546044759" lon="8.04671786003324"><ele>213.0</ele><time>2026-04-11T14:12:57Z</time></trkpt><trkpt lat="44.69722828958055" lon="8.046607321674301"><ele>213.0</ele><time>2026-04-11T14:12:58Z</time></trkpt><trkpt lat="44.69713285311346" lon="8.04655672887512"><ele>213.0</ele><time>2026-04-11T14:12:59Z</time></trkpt><trkpt lat="44.69702054272962" lon="8.04656503125011"><ele>215.0</ele><time>2026-04-11T14:13:00Z</time></trkpt><trkpt lat="44.69689363675645" lon="8.046644358687379"><ele>217.0</ele><time>2026-04-11T14:13:01Z</time></trkpt><trkpt lat="44.69675093525574" lon="8.046771514447432"><ele>219.0</ele><time>2026-04-11T14:13:02Z</time></trkpt><trkpt lat="44.69659753832265" lon="8.046905604117763"><ele>219.0</ele><time>2026-04-11T14:13:03Z</time></trkpt><trkpt lat="44.69645032753262" lon="8.04702112466388"><ele>219.0</ele><time>2026-04-11T14:13:04Z</time></trkpt><trkpt lat="44.69629807465362" lon="8.047142386592368"><ele>219.0</ele><time>2026-04-11T14:13:05Z</time></trkpt><trkpt lat="44.69613448274633" lon="8.04727468801244"><ele>216.66666666666669</ele><time>2026-04-11T14:13:06Z</time></trkpt><trkpt lat="44.69597264982736" lon="8.047420276694853"><ele>214.33333333333334</ele><time>2026-04-11T14:13:07Z</time></trkpt><trkpt lat="44.69582644741056" lon="8.047592592938669"><ele>212.0</ele><time>2026-04-11T14:13:08Z</time></trkpt><trkpt lat="44.69568138854466" lon="8.047794814666869"><ele>216.66666666666669</ele><time>2026-04-11T14:13:09Z</time></trkpt><trkpt lat="44.6955282240453" lon="8.047989348353921"><ele>221.33333333333331</ele><time>2026-04-11T14:13:10Z</time></trkpt><trkpt lat="44.695363789937566" lon="8.048163796153087"><ele>226.0</ele><time>2026-04-11T14:13:11Z</time></trkpt><trkpt lat="44.695193856047155" lon="8.048321317076859"><ele>229.0</ele><time>2026-04-11T14:13:12Z</time></trkpt><trkpt lat="44.695027418155405" lon="8.048460782672533"><ele>232.0</ele><time>2026-04-11T14:13:13Z</time></trkpt><trkpt lat="44.69487555638586" lon="8.048570904319586"><ele>235.0</ele><time>2026-04-11T14:13:14Z</time></trkpt><trkpt lat="44.69473692558819" lon="8.048667652198686"><ele>235.0</ele><time>2026-04-11T14:13:15Z</time></trkpt><trkpt lat="44.69460993701648" lon="8.04876497826039"><ele>235.0</ele><time>2026-04-11T14:13:16Z</time></trkpt><trkpt lat="44.69448416140251" lon="8.048876254691315"><ele>235.0</ele><time>2026-04-11T14:13:17Z</time></trkpt><trkpt lat="44.69436905417435" lon="8.049000839289006"><ele>235.0</ele><time>2026-04-11T14:13:18Z</time></trkpt><trkpt lat="44.69427215386439" lon="8.04912688035649"><ele>237.0</ele><time>2026-04-11T14:13:19Z</time></trkpt><trkpt lat="44.69419295986653" lon="8.049250242943492"><ele>239.0</ele><time>2026-04-11T14:13:20Z</time></trkpt><trkpt lat="44.6941445089584" lon="8.049378368360486"><ele>241.0</ele><time>2026-04-11T14:13:21Z</time></trkpt><trkpt lat="44.69410964005576" lon="8.049511351354836"><ele>243.0</ele><time>2026-04-11T14:13:22Z</time></trkpt><trkpt lat="44.69406449741575" lon="8.04960718290754"><ele>245.0</ele><time>2026-04-11T14:13:23Z</time></trkpt><trkpt lat="44.694000089566316" lon="8.049666730908301"><ele>245.00000000000003</ele><time>2026-04-11T14:13:24Z</time></trkpt><trkpt lat="44.6939155606832" lon="8.049709432365637"><ele>245.0</ele><time>2026-04-11T14:13:25Z</time></trkpt><trkpt lat="44.69382144759336" lon="8.04975663304338"><ele>245.0</ele><time>2026-04-11T14:13:26Z</time></trkpt><trkpt lat="44.69374236582134" lon="8.049797825497915"><ele>245.0</ele><time>2026-04-11T14:13:27Z</time></trkpt><trkpt lat="44.69367556654124" lon="8.04983390030998"><ele>245.00000000000003</ele><time>2026-04-11T14:13:28Z</time></trkpt><trkpt lat="44.69361051096073" lon="8.049874603347098"><ele>245.0</ele><time>2026-04-11T14:13:29Z</time></trkpt><trkpt lat="44.69353888656859" lon="8.049917060980487"><ele>245.6</ele><time>2026-04-11T14:13:30Z</time></trkpt><trkpt lat="44.693464540716036" lon="8.049958243828792"><ele>246.2</ele><time>2026-04-11T14:13:31Z</time></trkpt><trkpt lat="44.69338672055954" lon="8.050003230788182"><ele>246.8</ele><time>2026-04-11T14:13:32Z</time></trkpt><trkpt lat="44.69330331056432" lon="8.050054959792666"><ele>247.4</ele><time>2026-04-11T14:13:33Z</time></trkpt><trkpt lat="44.69321804249522" lon="8.05011459272264"><ele>248.0</ele><time>2026-04-11T14:13:34Z</time></trkpt><trkpt lat="44.69312702454545" lon="8.05018345280824"><ele>248.0</ele><time>2026-04-11T14:13:35Z</time></trkpt><trkpt lat="44.693036285470846" lon="8.05024691170552"><ele>248.0</ele><time>2026-04-11T14:13:36Z</time></trkpt><trkpt lat="44.69293685961789" lon="8.050305981659413"><ele>248.0</ele><time>2026-04-11T14:13:37Z</time></trkpt><trkpt lat="44.69282650234232" lon="8.050367729423602"><ele>248.0</ele><time>2026-04-11T14:13:38Z</time></trkpt><trkpt lat="44.692701411846485" lon="8.050437200946908"><ele>250.75</ele><time>2026-04-11T14:13:39Z</time></trkpt><trkpt lat="44.69256415950912" lon="8.050498499592441"><ele>253.5</ele><time>2026-04-11T14:13:40Z</time></trkpt><trkpt lat="44.692428526126655" lon="8.050540851190677"><ele>256.25</ele><time>2026-04-11T14:13:41Z</time></trkpt><trkpt lat="44.692306989792556" lon="8.050544841079102"><ele>259.0</ele><time>2026-04-11T14:13:42Z</time></trkpt><trkpt lat="44.69217950016921" lon="8.050507601498087"><ele>259.0</ele><time>2026-04-11T14:13:43Z</time></trkpt><trkpt lat="44.692048646999815" lon="8.050447000896302"><ele>259.0</ele><time>2026-04-11T14:13:44Z</time></trkpt><trkpt lat="44.69193313921765" lon="8.050380957694006"><ele>259.0</ele><time>2026-04-11T14:13:45Z</time></trkpt><trkpt lat="44.691827744333615" lon="8.050353138363839"><ele>259.0</ele><time>2026-04-11T14:13:46Z</time></trkpt><trkpt lat="44.69170631566129" lon="8.050382760001202"><ele>262.0</ele><time>2026-04-11T14:13:47Z</time></trkpt><trkpt lat="44.69156538457877" lon="8.05044166693578"><ele>265.0</ele><time>2026-04-11T14:13:48Z</time></trkpt><trkpt lat="44.69141910019333" lon="8.050508184919346"><ele>268.0</ele><time>2026-04-11T14:13:49.001Z</time></trkpt><trkpt lat="44.691277109293324" lon="8.050587562586571"><ele>268.0</ele><time>2026-04-11T14:13:50.001Z</time></trkpt><trkpt lat="44.691141840911044" lon="8.050708444907976"><ele>268.0</ele><time>2026-04-11T14:13:51.001Z</time></trkpt><trkpt lat="44.69100527682553" lon="8.050837897003573"><ele>268.0</ele><time>2026-04-11T14:13:52.001Z</time></trkpt><trkpt lat="44.690860922949064" lon="8.050967577899211"><ele>267.0</ele><time>2026-04-11T14:13:53.001Z</time></trkpt><trkpt lat="44.690716888530034" lon="8.051090015224117"><ele>266.0</ele><time>2026-04-11T14:13:54.001Z</time></trkpt><trkpt lat="44.690577130065755" lon="8.0512168215401"><ele>265.0</ele><time>2026-04-11T14:13:55.001Z</time></trkpt><trkpt lat="44.69043780391991" lon="8.051351456770776"><ele>265.0</ele><time>2026-04-11T14:13:56.001Z</time></trkpt><trkpt lat="44.69029967450108" lon="8.051484056638662"><ele>265.0</ele><time>2026-04-11T14:13:57.001Z</time></trkpt><trkpt lat="44.69017136045739" lon="8.051613541584468"><ele>265.0</ele><time>2026-04-11T14:13:58.001Z</time></trkpt><trkpt lat="44.69006442146143" lon="8.05176856180712"><ele>265.66666666666663</ele><time>2026-04-11T14:13:59.001Z</time></trkpt><trkpt lat="44.689981120470144" lon="8.051956898369369"><ele>266.3333333333333</ele><time>2026-04-11T14:14:00.001Z</time></trkpt><trkpt lat="44.6899262567491" lon="8.052175896229315"><ele>267.0</ele><time>2026-04-11T14:14:01.001Z</time></trkpt><trkpt lat="44.68988485218731" lon="8.052407369984227"><ele>266.25</ele><time>2026-04-11T14:14:02.001Z</time></trkpt><trkpt lat="44.68985224085987" lon="8.052635695755837"><ele>265.5</ele><time>2026-04-11T14:14:03.001Z</time></trkpt><trkpt lat="44.68983709456673" lon="8.052843722024596"><ele>264.75</ele><time>2026-04-11T14:14:04.001Z</time></trkpt><trkpt lat="44.689861738603376" lon="8.053028831124767"><ele>264.0</ele><time>2026-04-11T14:14:05.001Z</time></trkpt><trkpt lat="44.68992328430961" lon="8.053216630154468"><ele>265.5</ele><time>2026-04-11T14:14:06.001Z</time></trkpt><trkpt lat="44.689997288021495" lon="8.053400110337604"><ele>267.0</ele><time>2026-04-11T14:14:07.001Z</time></trkpt><trkpt lat="44.69006292447869" lon="8.053559504886275"><ele>268.5</ele><time>2026-04-11T14:14:08.001Z</time></trkpt><trkpt lat="44.69010814862571" lon="8.053693571505837"><ele>270.0</ele><time>2026-04-11T14:14:09.001Z</time></trkpt><trkpt lat="44.69014268808887" lon="8.053791156730856"><ele>270.0</ele><time>2026-04-11T14:14:10.001Z</time></trkpt><trkpt lat="44.690174903211094" lon="8.05388357585229"><ele>270.0</ele><time>2026-04-11T14:14:11.001Z</time></trkpt><trkpt lat="44.69020550007418" lon="8.05399212253163"><ele>270.0</ele><time>2026-04-11T14:14:12.001Z</time></trkpt><trkpt lat="44.6902293765299" lon="8.054088290632356"><ele>270.0</ele><time>2026-04-11T14:14:13.001Z</time></trkpt><trkpt lat="44.69025736417017" lon="8.054181695439814"><ele>270.0</ele><time>2026-04-11T14:14:14.001Z</time></trkpt><trkpt lat="44.69029217454335" lon="8.054268515209397"><ele>270.0</ele><time>2026-04-11T14:14:15.001Z</time></trkpt><trkpt lat="44.69032840204902" lon="8.054346101126782"><ele>270.0</ele><time>2026-04-11T14:14:16.001Z</time></trkpt><trkpt lat="44.69037385567699" lon="8.05447753641056"><ele>269.0</ele><time>2026-04-11T14:14:18.001Z</time></trkpt><trkpt lat="44.69033610060941" lon="8.054589057113997"><ele>268.0</ele><time>2026-04-11T14:14:20.001Z</time></trkpt><trkpt lat="44.69027995689181" lon="8.054656857166732"><ele>267.0</ele><time>2026-04-11T14:14:22.001Z</time></trkpt><trkpt lat="44.690231307136" lon="8.05472179210136"><ele>266.0</ele><time>2026-04-11T14:14:24.001Z</time></trkpt><trkpt lat="44.69017969308322" lon="8.05481408095405"><ele>265.0</ele><time>2026-04-11T14:14:27.001Z</time></trkpt><trkpt lat="44.690126548328315" lon="8.054870591327415"><ele>264.0</ele><time>2026-04-11T14:14:29.001Z</time></trkpt><trkpt lat="44.690066618673626" lon="8.05494358301261"><ele>265.5</ele><time>2026-04-11T14:14:31.001Z</time></trkpt><trkpt lat="44.6900006737671" lon="8.05501653786708"><ele>267.0</ele><time>2026-04-11T14:14:33.001Z</time></trkpt><trkpt lat="44.6899320756293" lon="8.05508108321443"><ele>268.5</ele><time>2026-04-11T14:14:35.001Z</time></trkpt><trkpt lat="44.6898678353822" lon="8.05515535356207"><ele>270.0</ele><time>2026-04-11T14:14:37.001Z</time></trkpt><trkpt lat="44.68979172921217" lon="8.055209368091429"><ele>271.5</ele><time>2026-04-11T14:14:39.001Z</time></trkpt><trkpt lat="44.68971819059585" lon="8.055289917195807"><ele>273.0</ele><time>2026-04-11T14:14:41.001Z</time></trkpt><trkpt lat="44.68965366096404" lon="8.055366241663659"><ele>273.0</ele><time>2026-04-11T14:14:43.001Z</time></trkpt><trkpt lat="44.68958966006163" lon="8.055436918280664"><ele>273.0</ele><time>2026-04-11T14:14:45.001Z</time></trkpt><trkpt lat="44.68953183203853" lon="8.055516675339268"><ele>273.0</ele><time>2026-04-11T14:14:47.001Z</time></trkpt><trkpt lat="44.68948018045058" lon="8.055620709145613"><ele>273.0</ele><time>2026-04-11T14:14:49.001Z</time></trkpt><trkpt lat="44.68943446987544" lon="8.055710682444358"><ele>273.0</ele><time>2026-04-11T14:14:51.001Z</time></trkpt><trkpt lat="44.689398566099634" lon="8.055819333227122"><ele>273.0</ele><time>2026-04-11T14:14:53.001Z</time></trkpt><trkpt lat="44.68938495648256" lon="8.055923469219636"><ele>267.0</ele><time>2026-04-11T14:14:55.001Z</time></trkpt><trkpt lat="44.689378379377736" lon="8.056023714595582"><ele>261.0</ele><time>2026-04-11T14:14:57.001Z</time></trkpt><trkpt lat="44.68937765802609" lon="8.056125936184928"><ele>255.0</ele><time>2026-04-11T14:14:59.001Z</time></trkpt><trkpt lat="44.68937680650703" lon="8.05625359575138"><ele>249.0</ele><time>2026-04-11T14:15:01Z</time></trkpt><trkpt lat="44.689377914369324" lon="8.05637530868677"><ele>243.0</ele><time>2026-04-11T14:15:03Z</time></trkpt><trkpt lat="44.68937266940025" lon="8.056477032746228"><ele>237.0</ele><time>2026-04-11T14:15:05Z</time></trkpt><trkpt lat="44.689355764980625" lon="8.056579922367154"><ele>234.2</ele><time>2026-04-11T14:15:07Z</time></trkpt><trkpt lat="44.68934970565357" lon="8.05667532082126"><ele>231.39999999999998</ele><time>2026-04-11T14:15:09Z</time></trkpt><trkpt lat="44.689318263502656" lon="8.056791219821905"><ele>228.60000000000002</ele><time>2026-04-11T14:15:11Z</time></trkpt><trkpt lat="44.689272275037524" lon="8.056929368665807"><ele>225.8</ele><time>2026-04-11T14:15:13Z</time></trkpt><trkpt lat="44.68922299956908" lon="8.05709193647688"><ele>223.0</ele><time>2026-04-11T14:15:15Z</time></trkpt><trkpt lat="44.68919152708875" lon="8.057174195003459"><ele>222.99999999999997</ele><time>2026-04-11T14:15:16Z</time></trkpt><trkpt lat="44.68916075792843" lon="8.057256530383665"><ele>223.0</ele><time>2026-04-11T14:15:17Z</time></trkpt><trkpt lat="44.68911503545703" lon="8.057402700362857"><ele>223.0</ele><time>2026-04-11T14:15:19Z</time></trkpt><trkpt lat="44.6890919458259" lon="8.057514561580838"><ele>223.0</ele><time>2026-04-11T14:15:21Z</time></trkpt><trkpt lat="44.68907139181712" lon="8.057638758835662"><ele>222.99999999999997</ele><time>2026-04-11T14:15:24Z</time></trkpt><trkpt lat="44.68909151509444" lon="8.05774695840996"><ele>223.0</ele><time>2026-04-11T14:15:28Z</time></trkpt><trkpt lat="44.689214395327234" lon="8.05776289324105"><ele>223.28571428571428</ele><time>2026-04-11T14:15:30Z</time></trkpt><trkpt lat="44.68929851138802" lon="8.057749109842998"><ele>223.57142857142856</ele><time>2026-04-11T14:15:31Z</time></trkpt><trkpt lat="44.68937177861153" lon="8.057770347572001"><ele>223.8571428571429</ele><time>2026-04-11T14:15:32Z</time></trkpt><trkpt lat="44.68943669763807" lon="8.05779276134845"><ele>224.14285714285717</ele><time>2026-04-11T14:15:33Z</time></trkpt><trkpt lat="44.68950334773194" lon="8.057814769269958"><ele>224.42857142857144</ele><time>2026-04-11T14:15:34Z</time></trkpt><trkpt lat="44.68956790451757" lon="8.057824162981516"><ele>224.71428571428575</ele><time>2026-04-11T14:15:35Z</time></trkpt><trkpt lat="44.689651846290275" lon="8.057832312287317"><ele>225.00000000000003</ele><time>2026-04-11T14:15:37Z</time></trkpt><trkpt lat="44.68972143505022" lon="8.057849938062793"><ele>225.0</ele><time>2026-04-11T14:15:40Z</time></trkpt><trkpt lat="44.68974021497581" lon="8.05797044461982"><ele>225.0</ele><time>2026-04-11T14:15:56Z</time></trkpt><trkpt lat="44.6897643186255" lon="8.058067497904341"><ele>225.0</ele><time>2026-04-11T14:15:58Z</time></trkpt><trkpt lat="44.68979529360096" lon="8.058161941008878"><ele>225.0</ele><time>2026-04-11T14:16:00.001Z</time></trkpt><trkpt lat="44.689813199325975" lon="8.058282493279211"><ele>225.0</ele><time>2026-04-11T14:16:02.001Z</time></trkpt><trkpt lat="44.68978084299047" lon="8.058405654172256"><ele>225.0</ele><time>2026-04-11T14:16:06.001Z</time></trkpt><trkpt lat="44.68974228602243" lon="8.058480402209877"><ele>222.5</ele><time>2026-04-11T14:16:08.001Z</time></trkpt><trkpt lat="44.68972508748449" lon="8.05857597748571"><ele>220.0</ele><time>2026-04-11T14:16:10.001Z</time></trkpt><trkpt lat="44.689762310056146" lon="8.05873900752089"><ele>217.5</ele><time>2026-04-11T14:16:12.001Z</time></trkpt><trkpt lat="44.68976728482516" lon="8.058849995441305"><ele>215.0</ele><time>2026-04-11T14:16:13.001Z</time></trkpt><trkpt lat="44.68976322230331" lon="8.058963074113143"><ele>212.5</ele><time>2026-04-11T14:16:14.001Z</time></trkpt><trkpt lat="44.6897635483097" lon="8.05907629066445"><ele>210.0</ele><time>2026-04-11T14:16:15.001Z</time></trkpt><trkpt lat="44.68976806844917" lon="8.059180782702427"><ele>208.0</ele><time>2026-04-11T14:16:16.001Z</time></trkpt><trkpt lat="44.689770953968036" lon="8.059298413813705"><ele>206.0</ele><time>2026-04-11T14:16:17.001Z</time></trkpt><trkpt lat="44.68977795406657" lon="8.05940979747232"><ele>204.0</ele><time>2026-04-11T14:16:18.001Z</time></trkpt><trkpt lat="44.68978800378013" lon="8.05950226487379"><ele>202.0</ele><time>2026-04-11T14:16:19.001Z</time></trkpt><trkpt lat="44.68978963712445" lon="8.05960709869699"><ele>200.0</ele><time>2026-04-11T14:16:20.001Z</time></trkpt><trkpt lat="44.689762194003286" lon="8.059703897932748"><ele>198.0</ele><time>2026-04-11T14:16:21.001Z</time></trkpt><trkpt lat="44.68970697426772" lon="8.059822088786355"><ele>198.0</ele><time>2026-04-11T14:16:22.001Z</time></trkpt><trkpt lat="44.689620118259135" lon="8.059935857741978"><ele>198.0</ele><time>2026-04-11T14:16:23.001Z</time></trkpt><trkpt lat="44.689547298100834" lon="8.060036839084592"><ele>198.0</ele><time>2026-04-11T14:16:24.001Z</time></trkpt><trkpt lat="44.689501522799475" lon="8.060117819807651"><ele>198.0</ele><time>2026-04-11T14:16:25.001Z</time></trkpt><trkpt lat="44.68948617677844" lon="8.060238456168943"><ele>198.0</ele><time>2026-04-11T14:16:27.001Z</time></trkpt><trkpt lat="44.68946966725402" lon="8.060349227666201"><ele>198.4</ele><time>2026-04-11T14:16:57.001Z</time></trkpt><trkpt lat="44.68941960389968" lon="8.060417980433579"><ele>198.8</ele><time>2026-04-11T14:16:58.001Z</time></trkpt><trkpt lat="44.68933856143353" lon="8.06048408860782"><ele>199.2</ele><time>2026-04-11T14:16:59.001Z</time></trkpt><trkpt lat="44.68923725851302" lon="8.060588824782444"><ele>199.6</ele><time>2026-04-11T14:17:00.001Z</time></trkpt><trkpt lat="44.68912429163297" lon="8.060739355068408"><ele>200.0</ele><time>2026-04-11T14:17:01.001Z</time></trkpt><trkpt lat="44.68901198679769" lon="8.060907937861224"><ele>196.0</ele><time>2026-04-11T14:17:02.001Z</time></trkpt><trkpt lat="44.688886343947416" lon="8.061092916526373"><ele>192.0</ele><time>2026-04-11T14:17:03.001Z</time></trkpt><trkpt lat="44.6887575829501" lon="8.0612757487812"><ele>188.0</ele><time>2026-04-11T14:17:04.001Z</time></trkpt><trkpt lat="44.68862206876486" lon="8.061468975609406"><ele>188.33333333333331</ele><time>2026-04-11T14:17:05.002Z</time></trkpt><trkpt lat="44.68849085064395" lon="8.06166584316191"><ele>188.66666666666666</ele><time>2026-04-11T14:17:06.002Z</time></trkpt><trkpt lat="44.6883626583522" lon="8.061848610803258"><ele>189.0</ele><time>2026-04-11T14:17:07Z</time></trkpt><trkpt lat="44.688239833303925" lon="8.062008327295041"><ele>189.0</ele><time>2026-04-11T14:17:08Z</time></trkpt><trkpt lat="44.68813795290873" lon="8.062163230229515"><ele>189.0</ele><time>2026-04-11T14:17:09Z</time></trkpt><trkpt lat="44.688064012465745" lon="8.06232487341743"><ele>189.0</ele><time>2026-04-11T14:17:10Z</time></trkpt><trkpt lat="44.68803441864801" lon="8.062498117557968"><ele>189.0</ele><time>2026-04-11T14:17:11Z</time></trkpt><trkpt lat="44.68802371372874" lon="8.062649335675882"><ele>188.39999999999998</ele><time>2026-04-11T14:17:12Z</time></trkpt><trkpt lat="44.6880000273103" lon="8.062769537599134"><ele>187.8</ele><time>2026-04-11T14:17:13Z</time></trkpt><trkpt lat="44.68794931610644" lon="8.062872199904293"><ele>187.2</ele><time>2026-04-11T14:17:14Z</time></trkpt><trkpt lat="44.687872047885506" lon="8.062975575075734"><ele>186.60000000000002</ele><time>2026-04-11T14:17:15Z</time></trkpt><trkpt lat="44.68777307940346" lon="8.063089021382162"><ele>186.0</ele><time>2026-04-11T14:17:16Z</time></trkpt><trkpt lat="44.68765127940257" lon="8.063212937761163"><ele>186.66666666666666</ele><time>2026-04-11T14:17:17Z</time></trkpt><trkpt lat="44.68751924129893" lon="8.06335322411489"><ele>187.33333333333331</ele><time>2026-04-11T14:17:18Z</time></trkpt><trkpt lat="44.68738325651128" lon="8.06349742064543"><ele>188.0</ele><time>2026-04-11T14:17:19Z</time></trkpt><trkpt lat="44.687260605382384" lon="8.063624803076166"><ele>188.0</ele><time>2026-04-11T14:17:20Z</time></trkpt><trkpt lat="44.687156566671966" lon="8.06373212689081"><ele>188.0</ele><time>2026-04-11T14:17:21Z</time></trkpt><trkpt lat="44.687080065404906" lon="8.063813436147926"><ele>188.0</ele><time>2026-04-11T14:17:22Z</time></trkpt><trkpt lat="44.68703176250474" lon="8.063894867951602"><ele>188.0</ele><time>2026-04-11T14:17:23Z</time></trkpt><trkpt lat="44.68699718678628" lon="8.064025619634032"><ele>188.0</ele><time>2026-04-11T14:17:24Z</time></trkpt><trkpt lat="44.686971425410945" lon="8.064218083880405"><ele>188.33333333333331</ele><time>2026-04-11T14:17:25Z</time></trkpt><trkpt lat="44.68694833704621" lon="8.06445071102441"><ele>188.66666666666666</ele><time>2026-04-11T14:17:26Z</time></trkpt><trkpt lat="44.68692296574348" lon="8.064702141678891"><ele>189.0</ele><time>2026-04-11T14:17:27Z</time></trkpt><trkpt lat="44.68689314460001" lon="8.064950220879107"><ele>189.75</ele><time>2026-04-11T14:17:28Z</time></trkpt><trkpt lat="44.686859181620164" lon="8.065182353603715"><ele>190.5</ele><time>2026-04-11T14:17:29Z</time></trkpt><trkpt lat="44.686829210488426" lon="8.065362721533663"><ele>191.25</ele><time>2026-04-11T14:17:30Z</time></trkpt><trkpt lat="44.68679557241987" lon="8.065489790880076"><ele>192.0</ele><time>2026-04-11T14:17:31Z</time></trkpt><trkpt lat="44.686742217645595" lon="8.065586684139813"><ele>192.0</ele><time>2026-04-11T14:17:32Z</time></trkpt><trkpt lat="44.68664760470259" lon="8.065683553835985"><ele>192.0</ele><time>2026-04-11T14:17:33Z</time></trkpt><trkpt lat="44.686536434919496" lon="8.065812340604682"><ele>192.0</ele><time>2026-04-11T14:17:34Z</time></trkpt><trkpt lat="44.686443542264456" lon="8.066000842695821"><ele>192.0</ele><time>2026-04-11T14:17:35Z</time></trkpt><trkpt lat="44.686368728034715" lon="8.066240542164829"><ele>192.5</ele><time>2026-04-11T14:17:36Z</time></trkpt><trkpt lat="44.68630080256963" lon="8.066475395722994"><ele>193.0</ele><time>2026-04-11T14:17:37Z</time></trkpt><trkpt lat="44.68623202273906" lon="8.066638132085739"><ele>193.5</ele><time>2026-04-11T14:17:38Z</time></trkpt><trkpt lat="44.68614715707352" lon="8.066734517053131"><ele>194.0</ele><time>2026-04-11T14:17:39Z</time></trkpt><trkpt lat="44.68603886524154" lon="8.066783071837367"><ele>195.5</ele><time>2026-04-11T14:17:40Z</time></trkpt><trkpt lat="44.6859127183986" lon="8.066772145038371"><ele>197.0</ele><time>2026-04-11T14:17:41Z</time></trkpt><trkpt lat="44.685767592890244" lon="8.066720123610457"><ele>198.5</ele><time>2026-04-11T14:17:42Z</time></trkpt><trkpt lat="44.68562472052994" lon="8.066686872814362"><ele>200.0</ele><time>2026-04-11T14:17:43Z</time></trkpt><trkpt lat="44.68549266653884" lon="8.0667245763415"><ele>200.0</ele><time>2026-04-11T14:17:44Z</time></trkpt><trkpt lat="44.685371968867116" lon="8.066793986032415"><ele>200.0</ele><time>2026-04-11T14:17:45Z</time></trkpt><trkpt lat="44.685296731719966" lon="8.066856340654608"><ele>200.0</ele><time>2026-04-11T14:17:46Z</time></trkpt><trkpt lat="44.68528779480596" lon="8.06702258256531"><ele>200.0</ele><time>2026-04-11T14:17:48Z</time></trkpt><trkpt lat="44.68534826832059" lon="8.06709222078474"><ele>200.0</ele><time>2026-04-11T14:17:49Z</time></trkpt><trkpt lat="44.685452347471276" lon="8.067125892923467"><ele>200.0</ele><time>2026-04-11T14:17:50Z</time></trkpt><trkpt lat="44.6855760660091" lon="8.067126155071533"><ele>200.0</ele><time>2026-04-11T14:17:51Z</time></trkpt><trkpt lat="44.685673042997" lon="8.067169918239719"><ele>200.0</ele><time>2026-04-11T14:17:52Z</time></trkpt><trkpt lat="44.685732677769494" lon="8.067305228138041"><ele>200.0</ele><time>2026-04-11T14:17:53Z</time></trkpt><trkpt lat="44.68576772052986" lon="8.067479374861168"><ele>202.0</ele><time>2026-04-11T14:17:54Z</time></trkpt><trkpt lat="44.68576768538751" lon="8.067610850073205"><ele>204.0</ele><time>2026-04-11T14:17:55Z</time></trkpt><trkpt lat="44.68572901883208" lon="8.067711370768578"><ele>206.0</ele><time>2026-04-11T14:17:56Z</time></trkpt><trkpt lat="44.68564248628187" lon="8.067780702481288"><ele>208.0</ele><time>2026-04-11T14:17:57.001Z</time></trkpt><trkpt lat="44.68551407730713" lon="8.067813652727294"><ele>210.0</ele><time>2026-04-11T14:17:58.001Z</time></trkpt><trkpt lat="44.68536009591006" lon="8.06783350927331"><ele>211.25</ele><time>2026-04-11T14:17:59.001Z</time></trkpt><trkpt lat="44.685207224975784" lon="8.067842022651016"><ele>212.5</ele><time>2026-04-11T14:18:00.001Z</time></trkpt><trkpt lat="44.685073025464206" lon="8.067798471247501"><ele>213.75</ele><time>2026-04-11T14:18:01.001Z</time></trkpt><trkpt lat="44.68497798890756" lon="8.06773386483956"><ele>215.0</ele><time>2026-04-11T14:18:02.001Z</time></trkpt><trkpt lat="44.684910913698815" lon="8.067731110226116"><ele>215.0</ele><time>2026-04-11T14:18:03.001Z</time></trkpt><trkpt lat="44.68486903759977" lon="8.067811310260488"><ele>215.0</ele><time>2026-04-11T14:18:04.001Z</time></trkpt><trkpt lat="44.684880634933506" lon="8.06793457431124"><ele>215.0</ele><time>2026-04-11T14:18:05.001Z</time></trkpt><trkpt lat="44.6849518791758" lon="8.068030128092992"><ele>215.0</ele><time>2026-04-11T14:18:06.001Z</time></trkpt><trkpt lat="44.68505659009961" lon="8.068080918457778"><ele>215.0</ele><time>2026-04-11T14:18:07.001Z</time></trkpt><trkpt lat="44.685089831082436" lon="8.068204967996934"><ele>217.2</ele><time>2026-04-11T14:18:09.001Z</time></trkpt><trkpt lat="44.68502348924156" lon="8.068320159436766"><ele>219.4</ele><time>2026-04-11T14:18:11.001Z</time></trkpt><trkpt lat="44.68496854540328" lon="8.068405723905089"><ele>221.60000000000002</ele><time>2026-04-11T14:18:13.001Z</time></trkpt><trkpt lat="44.684882245936485" lon="8.068508426897147"><ele>223.8</ele><time>2026-04-11T14:18:15.001Z</time></trkpt><trkpt lat="44.684793893388765" lon="8.068644150107383"><ele>226.0</ele><time>2026-04-11T14:18:17.001Z</time></trkpt><trkpt lat="44.68475995890594" lon="8.068722925559044"><ele>225.99999999999997</ele><time>2026-04-11T14:18:18.001Z</time></trkpt><trkpt lat="44.68471266010252" lon="8.068803608239367"><ele>226.0</ele><time>2026-04-11T14:18:19.001Z</time></trkpt><trkpt lat="44.68467059395572" lon="8.068886553752392"><ele>226.0</ele><time>2026-04-11T14:18:20.001Z</time></trkpt><trkpt lat="44.68461852485103" lon="8.068975898805112"><ele>226.0</ele><time>2026-04-11T14:18:21.001Z</time></trkpt><trkpt lat="44.68456703480726" lon="8.069063401146792"><ele>225.99999999999997</ele><time>2026-04-11T14:18:22.001Z</time></trkpt><trkpt lat="44.68452022768089" lon="8.069146573221612"><ele>226.0</ele><time>2026-04-11T14:18:23.001Z</time></trkpt><trkpt lat="44.68446139414695" lon="8.06924141398077"><ele>228.33333333333331</ele><time>2026-04-11T14:18:24.001Z</time></trkpt><trkpt lat="44.684399795727984" lon="8.069335680885164"><ele>230.66666666666666</ele><time>2026-04-11T14:18:25.001Z</time></trkpt><trkpt lat="44.68433776698854" lon="8.069442059734577"><ele>233.0</ele><time>2026-04-11T14:18:26.001Z</time></trkpt><trkpt lat="44.684291917290466" lon="8.069533053766092"><ele>235.33333333333331</ele><time>2026-04-11T14:18:27.001Z</time></trkpt><trkpt lat="44.68425821672961" lon="8.069622477192878"><ele>237.66666666666666</ele><time>2026-04-11T14:18:28.001Z</time></trkpt><trkpt lat="44.68422730330906" lon="8.069735646347596"><ele>240.0</ele><time>2026-04-11T14:18:29.001Z</time></trkpt><trkpt lat="44.68420256935489" lon="8.06987277947604"><ele>240.83333333333334</ele><time>2026-04-11T14:18:30.001Z</time></trkpt><trkpt lat="44.68418602722708" lon="8.069992309981668"><ele>241.66666666666669</ele><time>2026-04-11T14:18:31.001Z</time></trkpt><trkpt lat="44.68416589989143" lon="8.070093249247652"><ele>242.5</ele><time>2026-04-11T14:18:32.001Z</time></trkpt><trkpt lat="44.68414104760443" lon="8.070205608493215"><ele>243.33333333333334</ele><time>2026-04-11T14:18:33.001Z</time></trkpt><trkpt lat="44.68409790867339" lon="8.070362904833248"><ele>244.16666666666669</ele><time>2026-04-11T14:18:35.001Z</time></trkpt><trkpt lat="44.68406624857081" lon="8.070464169586119"><ele>245.0</ele><time>2026-04-11T14:18:37.001Z</time></trkpt><trkpt lat="44.684010072411255" lon="8.070536107965717"><ele>245.00000000000003</ele><time>2026-04-11T14:18:41.001Z</time></trkpt><trkpt lat="44.68396814696789" lon="8.070654593999201"><ele>245.0</ele><time>2026-04-11T14:18:52.001Z</time></trkpt><trkpt lat="44.6838880839581" lon="8.070657024067255"><ele>245.0</ele><time>2026-04-11T14:18:55.001Z</time></trkpt><trkpt lat="44.68384110312976" lon="8.070523053180056"><ele>245.0</ele><time>2026-04-11T14:18:57.001Z</time></trkpt><trkpt lat="44.683806785796214" lon="8.070438773303525"><ele>245.00000000000003</ele><time>2026-04-11T14:19:00.001Z</time></trkpt><trkpt lat="44.68378317038702" lon="8.0705516860236"><ele>245.0</ele><time>2026-04-11T14:19:03.002Z</time></trkpt><trkpt lat="44.68380679796163" lon="8.070692172025296"><ele>246.5</ele><time>2026-04-11T14:19:04.002Z</time></trkpt><trkpt lat="44.683812090719584" lon="8.070831433390817"><ele>248.0</ele><time>2026-04-11T14:19:05.002Z</time></trkpt><trkpt lat="44.68377726521785" lon="8.070983831937445"><ele>249.5</ele><time>2026-04-11T14:19:06.002Z</time></trkpt><trkpt lat="44.68371839678379" lon="8.071139061174712"><ele>251.0</ele><time>2026-04-11T14:19:07.002Z</time></trkpt><trkpt lat="44.68364814709993" lon="8.071288157684714"><ele>252.50000000000003</ele><time>2026-04-11T14:19:08.002Z</time></trkpt><trkpt lat="44.68358376213795" lon="8.071417070794226"><ele>254.0</ele><time>2026-04-11T14:19:09.002Z</time></trkpt><trkpt lat="44.683536579202745" lon="8.071520880246608"><ele>255.5</ele><time>2026-04-11T14:19:10.002Z</time></trkpt><trkpt lat="44.68350643166658" lon="8.071614844203404"><ele>257.0</ele><time>2026-04-11T14:19:11.002Z</time></trkpt><trkpt lat="44.68349292245525" lon="8.071702734150511"><ele>258.5</ele><time>2026-04-11T14:19:12.002Z</time></trkpt><trkpt lat="44.68345097490664" lon="8.071824177354426"><ele>260.0</ele><time>2026-04-11T14:19:14Z</time></trkpt><trkpt lat="44.68339441488742" lon="8.07189952658777"><ele>260.8</ele><time>2026-04-11T14:19:15Z</time></trkpt><trkpt lat="44.683328824889514" lon="8.071997415764228"><ele>261.6</ele><time>2026-04-11T14:19:16Z</time></trkpt><trkpt lat="44.68327318462554" lon="8.07207971447573"><ele>262.4</ele><time>2026-04-11T14:19:17Z</time></trkpt><trkpt lat="44.683202447993516" lon="8.07219293763456"><ele>263.2</ele><time>2026-04-11T14:19:18Z</time></trkpt><trkpt lat="44.683151509981094" lon="8.07228830443174"><ele>264.0</ele><time>2026-04-11T14:19:19Z</time></trkpt><trkpt lat="44.68310967777773" lon="8.072387197265737"><ele>265.2</ele><time>2026-04-11T14:19:20Z</time></trkpt><trkpt lat="44.68308539298534" lon="8.07255055649288"><ele>266.4</ele><time>2026-04-11T14:19:22Z</time></trkpt><trkpt lat="44.683057702527414" lon="8.072705159386835"><ele>267.6</ele><time>2026-04-11T14:19:24Z</time></trkpt><trkpt lat="44.683040520795664" lon="8.072793731557791"><ele>268.8</ele><time>2026-04-11T14:19:25Z</time></trkpt><trkpt lat="44.6830251333677" lon="8.072880723747238"><ele>270.0</ele><time>2026-04-11T14:19:26Z</time></trkpt><trkpt lat="44.68299811230381" lon="8.07303270713598"><ele>270.0</ele><time>2026-04-11T14:19:28Z</time></trkpt><trkpt lat="44.68297136929275" lon="8.073185083458501"><ele>270.0</ele><time>2026-04-11T14:19:30Z</time></trkpt><trkpt lat="44.68294033414424" lon="8.073346736092812"><ele>270.0</ele><time>2026-04-11T14:19:32Z</time></trkpt><trkpt lat="44.68292844530791" lon="8.073449169042883"><ele>270.0</ele><time>2026-04-11T14:19:33Z</time></trkpt><trkpt lat="44.682910674425294" lon="8.073619894973046"><ele>270.0</ele><time>2026-04-11T14:19:35Z</time></trkpt><trkpt lat="44.682894035030245" lon="8.073711248430236"><ele>270.5</ele><time>2026-04-11T14:19:36Z</time></trkpt><trkpt lat="44.68285332973945" lon="8.073850105867502"><ele>271.0</ele><time>2026-04-11T14:19:38Z</time></trkpt><trkpt lat="44.68281103288517" lon="8.073917925832754"><ele>271.5</ele><time>2026-04-11T14:19:41Z</time></trkpt><trkpt lat="44.68281116023543" lon="8.074012843255012"><ele>272.0</ele><time>2026-04-11T14:19:43Z</time></trkpt><trkpt lat="44.68281363000379" lon="8.074158054396305"><ele>272.5</ele><time>2026-04-11T14:19:45Z</time></trkpt><trkpt lat="44.68278757316348" lon="8.074250575368419"><ele>273.0</ele><time>2026-04-11T14:19:46Z</time></trkpt><trkpt lat="44.682750722673084" lon="8.074365889717583"><ele>275.0</ele><time>2026-04-11T14:19:47Z</time></trkpt><trkpt lat="44.68271847726456" lon="8.074485492733832"><ele>277.0</ele><time>2026-04-11T14:19:48Z</time></trkpt><trkpt lat="44.682698481204206" lon="8.074587344489895"><ele>279.0</ele><time>2026-04-11T14:19:49Z</time></trkpt><trkpt lat="44.68267678520794" lon="8.074682488153762"><ele>281.0</ele><time>2026-04-11T14:19:50Z</time></trkpt><trkpt lat="44.682645490525125" lon="8.074877660510657"><ele>283.0</ele><time>2026-04-11T14:19:52Z</time></trkpt><trkpt lat="44.682620399279664" lon="8.074965697142574"><ele>285.0</ele><time>2026-04-11T14:19:53Z</time></trkpt><trkpt lat="44.68258242696114" lon="8.075055660163017"><ele>286.0</ele><time>2026-04-11T14:19:54Z</time></trkpt><trkpt lat="44.6825329219943" lon="8.075129272635916"><ele>287.0</ele><time>2026-04-11T14:19:55Z</time></trkpt><trkpt lat="44.68246815952893" lon="8.075202105454126"><ele>288.0</ele><time>2026-04-11T14:19:56Z</time></trkpt><trkpt lat="44.682406690099086" lon="8.075289447237044"><ele>289.0</ele><time>2026-04-11T14:19:57Z</time></trkpt><trkpt lat="44.68235245900941" lon="8.075376833746226"><ele>290.0</ele><time>2026-04-11T14:19:58Z</time></trkpt><trkpt lat="44.68230851884847" lon="8.075478505599369"><ele>291.0</ele><time>2026-04-11T14:19:59.001Z</time></trkpt><trkpt lat="44.682287404699196" lon="8.075576803466529"><ele>291.0</ele><time>2026-04-11T14:20:00.001Z</time></trkpt><trkpt lat="44.68226470900967" lon="8.075699106808424"><ele>291.0</ele><time>2026-04-11T14:20:01.001Z</time></trkpt><trkpt lat="44.68224928665062" lon="8.075822279893856"><ele>291.0</ele><time>2026-04-11T14:20:02.001Z</time></trkpt><trkpt lat="44.68223862259823" lon="8.075925133432783"><ele>291.0</ele><time>2026-04-11T14:20:03.001Z</time></trkpt><trkpt lat="44.68220256202704" lon="8.076016756678484"><ele>291.0</ele><time>2026-04-11T14:20:05.001Z</time></trkpt><trkpt lat="44.68216124676629" lon="8.076091998149483"><ele>291.0</ele><time>2026-04-11T14:20:09.001Z</time></trkpt><trkpt lat="44.68216579187241" lon="8.07618518786565"><ele>292.1666666666667</ele><time>2026-04-11T14:20:10.001Z</time></trkpt><trkpt lat="44.682148984964776" lon="8.07628080457489"><ele>293.3333333333333</ele><time>2026-04-11T14:20:12.001Z</time></trkpt><trkpt lat="44.68212517517722" lon="8.076429124354311"><ele>294.5</ele><time>2026-04-11T14:20:14.001Z</time></trkpt><trkpt lat="44.68208756092896" lon="8.076533492989789"><ele>295.66666666666663</ele><time>2026-04-11T14:20:15.001Z</time></trkpt><trkpt lat="44.68205186381084" lon="8.07664182755657"><ele>296.8333333333333</ele><time>2026-04-11T14:20:16.001Z</time></trkpt><trkpt lat="44.68201530062722" lon="8.076757841716383"><ele>298.0</ele><time>2026-04-11T14:20:17.001Z</time></trkpt><trkpt lat="44.681985125522004" lon="8.076896211861563"><ele>298.8333333333333</ele><time>2026-04-11T14:20:18.001Z</time></trkpt><trkpt lat="44.681960629428836" lon="8.077026166991473"><ele>299.66666666666663</ele><time>2026-04-11T14:20:19.001Z</time></trkpt><trkpt lat="44.68193326691342" lon="8.077151586889965"><ele>300.5</ele><time>2026-04-11T14:20:20.001Z</time></trkpt><trkpt lat="44.68190635074688" lon="8.077260962597672"><ele>301.3333333333333</ele><time>2026-04-11T14:20:21.001Z</time></trkpt><trkpt lat="44.68187698691948" lon="8.077354240443558"><ele>302.1666666666667</ele><time>2026-04-11T14:20:22.001Z</time></trkpt><trkpt lat="44.68184841090107" lon="8.077460143835134"><ele>303.0</ele><time>2026-04-11T14:20:23.001Z</time></trkpt><trkpt lat="44.681825030273906" lon="8.077565187897578"><ele>305.0</ele><time>2026-04-11T14:20:24.001Z</time></trkpt><trkpt lat="44.681809679831616" lon="8.07767231075492"><ele>307.0</ele><time>2026-04-11T14:20:25.001Z</time></trkpt><trkpt lat="44.68179600379797" lon="8.077758954299867"><ele>309.0</ele><time>2026-04-11T14:20:26.001Z</time></trkpt><trkpt lat="44.681781149926486" lon="8.077861596185747"><ele>311.0</ele><time>2026-04-11T14:20:27.001Z</time></trkpt><trkpt lat="44.68177688540058" lon="8.077972162513191"><ele>313.0</ele><time>2026-04-11T14:20:28.001Z</time></trkpt><trkpt lat="44.68178047045346" lon="8.078082127654362"><ele>315.0</ele><time>2026-04-11T14:20:29.001Z</time></trkpt><trkpt lat="44.68178009933594" lon="8.078199697183543"><ele>315.5</ele><time>2026-04-11T14:20:30.001Z</time></trkpt><trkpt lat="44.681804959143896" lon="8.078287438703972"><ele>316.0</ele><time>2026-04-11T14:20:31.001Z</time></trkpt><trkpt lat="44.681821104263584" lon="8.078375297886407"><ele>316.5</ele><time>2026-04-11T14:20:32.001Z</time></trkpt><trkpt lat="44.68183571979573" lon="8.078467374895673"><ele>317.0</ele><time>2026-04-11T14:20:33.001Z</time></trkpt><trkpt lat="44.68187086343352" lon="8.078629883330507"><ele>317.5</ele><time>2026-04-11T14:20:35.001Z</time></trkpt><trkpt lat="44.68188284104421" lon="8.078721967429695"><ele>318.0</ele><time>2026-04-11T14:20:37.001Z</time></trkpt><trkpt lat="44.68194807855122" lon="8.07884006486194"><ele>318.0</ele><time>2026-04-11T14:20:40.001Z</time></trkpt><trkpt lat="44.68204410114764" lon="8.078896576706699"><ele>318.0</ele><time>2026-04-11T14:20:41.001Z</time></trkpt><trkpt lat="44.68214552193524" lon="8.078953732156187"><ele>318.0</ele><time>2026-04-11T14:20:42.001Z</time></trkpt><trkpt lat="44.68223391128936" lon="8.07903040287813"><ele>318.0</ele><time>2026-04-11T14:20:43.001Z</time></trkpt><trkpt lat="44.68228658214236" lon="8.079109613247539"><ele>318.0</ele><time>2026-04-11T14:20:44.001Z</time></trkpt><trkpt lat="44.68227241974871" lon="8.079274723313295"><ele>319.2</ele><time>2026-04-11T14:20:46.001Z</time></trkpt><trkpt lat="44.68220781728029" lon="8.0793258292001"><ele>320.4</ele><time>2026-04-11T14:20:47.001Z</time></trkpt><trkpt lat="44.68211329809838" lon="8.079357972959844"><ele>321.59999999999997</ele><time>2026-04-11T14:20:48.001Z</time></trkpt><trkpt lat="44.68203379457371" lon="8.079404483524472"><ele>322.8</ele><time>2026-04-11T14:20:49.001Z</time></trkpt><trkpt lat="44.682011161080375" lon="8.079517937488081"><ele>324.0</ele><time>2026-04-11T14:20:51.001Z</time></trkpt><trkpt lat="44.68198510767026" lon="8.079717230208471"><ele>324.0</ele><time>2026-04-11T14:20:53.001Z</time></trkpt><trkpt lat="44.68197299980703" lon="8.07985983432125"><ele>324.0</ele><time>2026-04-11T14:20:54.001Z</time></trkpt><trkpt lat="44.681965486276106" lon="8.080003901773173"><ele>324.0</ele><time>2026-04-11T14:20:55.001Z</time></trkpt><trkpt lat="44.68196438830448" lon="8.080147111003043"><ele>324.0</ele><time>2026-04-11T14:20:56.001Z</time></trkpt><trkpt lat="44.68196755108594" lon="8.080296295848878"><ele>324.0</ele><time>2026-04-11T14:20:57.001Z</time></trkpt><trkpt lat="44.681976994571784" lon="8.080412918471136"><ele>325.6666666666667</ele><time>2026-04-11T14:20:58.001Z</time></trkpt><trkpt lat="44.682013397159004" lon="8.08048979386417"><ele>327.3333333333333</ele><time>2026-04-11T14:20:59.001Z</time></trkpt><trkpt lat="44.68207696149621" lon="8.080523342142255"><ele>329.0</ele><time>2026-04-11T14:21:00.001Z</time></trkpt><trkpt lat="44.68215014865299" lon="8.080516679840716"><ele>330.66666666666663</ele><time>2026-04-11T14:21:01.002Z</time></trkpt><trkpt lat="44.68222012797345" lon="8.08050035149916"><ele>332.3333333333333</ele><time>2026-04-11T14:21:03.002Z</time></trkpt><trkpt lat="44.68218885808784" lon="8.080630826242777"><ele>334.0</ele><time>2026-04-11T14:21:15.002Z</time></trkpt><trkpt lat="44.6821913955768" lon="8.080740729606168"><ele>335.8333333333333</ele><time>2026-04-11T14:21:16.002Z</time></trkpt><trkpt lat="44.68220556883994" lon="8.080840351900347"><ele>337.66666666666663</ele><time>2026-04-11T14:21:17.002Z</time></trkpt><trkpt lat="44.682219642245435" lon="8.080952191741416"><ele>339.5</ele><time>2026-04-11T14:21:18.002Z</time></trkpt><trkpt lat="44.68223323467518" lon="8.081061391952591"><ele>341.3333333333333</ele><time>2026-04-11T14:21:19Z</time></trkpt><trkpt lat="44.68223900145885" lon="8.081182327206045"><ele>343.1666666666667</ele><time>2026-04-11T14:21:20Z</time></trkpt><trkpt lat="44.682246946237" lon="8.081281181322106"><ele>345.0</ele><time>2026-04-11T14:21:21Z</time></trkpt><trkpt lat="44.68225584818691" lon="8.081374169815431"><ele>345.0</ele><time>2026-04-11T14:21:22Z</time></trkpt><trkpt lat="44.68226566689735" lon="8.08149515667183"><ele>345.0</ele><time>2026-04-11T14:21:23Z</time></trkpt><trkpt lat="44.682273330561635" lon="8.081616690102305"><ele>345.0</ele><time>2026-04-11T14:21:24Z</time></trkpt><trkpt lat="44.682268714492686" lon="8.08173195134726"><ele>345.0</ele><time>2026-04-11T14:21:25Z</time></trkpt><trkpt lat="44.68225607586543" lon="8.081845948934998"><ele>345.0</ele><time>2026-04-11T14:21:26Z</time></trkpt><trkpt lat="44.68223692813094" lon="8.081974191334975"><ele>345.0</ele><time>2026-04-11T14:21:27Z</time></trkpt><trkpt lat="44.682214187025835" lon="8.082078081788646"><ele>345.0</ele><time>2026-04-11T14:21:28Z</time></trkpt><trkpt lat="44.6821476737171" lon="8.082242972101763"><ele>345.0</ele><time>2026-04-11T14:21:30Z</time></trkpt><trkpt lat="44.68209340044607" lon="8.082340131077062"><ele>345.0</ele><time>2026-04-11T14:21:31Z</time></trkpt><trkpt lat="44.68202838043192" lon="8.082420231166873"><ele>345.0</ele><time>2026-04-11T14:21:32Z</time></trkpt><trkpt lat="44.681951819880354" lon="8.082502568395224"><ele>345.0</ele><time>2026-04-11T14:21:33Z</time></trkpt><trkpt lat="44.681890490902646" lon="8.082574845062434"><ele>345.0</ele><time>2026-04-11T14:21:34Z</time></trkpt><trkpt lat="44.681845951365354" lon="8.082638230556276"><ele>345.0</ele><time>2026-04-11T14:21:35Z</time></trkpt><trkpt lat="44.68178070328152" lon="8.082781335681881"><ele>345.0</ele><time>2026-04-11T14:21:37Z</time></trkpt><trkpt lat="44.68176623792545" lon="8.082943561544605"><ele>345.0</ele><time>2026-04-11T14:21:39Z</time></trkpt><trkpt lat="44.68177325694157" lon="8.08311925578455"><ele>345.0</ele><time>2026-04-11T14:21:41Z</time></trkpt><trkpt lat="44.68176930640361" lon="8.083275742504503"><ele>348.0</ele><time>2026-04-11T14:21:43Z</time></trkpt><trkpt lat="44.68176475120889" lon="8.0833814465403"><ele>351.0</ele><time>2026-04-11T14:21:45Z</time></trkpt><trkpt lat="44.68173739282282" lon="8.083557471892018"><ele>354.0</ele><time>2026-04-11T14:21:47Z</time></trkpt><trkpt lat="44.681717972412585" lon="8.083646716367818"><ele>357.0</ele><time>2026-04-11T14:21:48Z</time></trkpt><trkpt lat="44.68171185198232" lon="8.083756221085592"><ele>360.0</ele><time>2026-04-11T14:21:49Z</time></trkpt><trkpt lat="44.68171221208154" lon="8.083906354046992"><ele>360.0</ele><time>2026-04-11T14:21:50Z</time></trkpt><trkpt lat="44.68171075358736" lon="8.08399659789231"><ele>360.0</ele><time>2026-04-11T14:21:51Z</time></trkpt><trkpt lat="44.681697483980194" lon="8.084122994463499"><ele>360.0</ele><time>2026-04-11T14:21:53Z</time></trkpt><trkpt lat="44.681684510071406" lon="8.084233078406644"><ele>360.0</ele><time>2026-04-11T14:21:59Z</time></trkpt><trkpt lat="44.68167607514036" lon="8.08435125994069"><ele>360.0</ele><time>2026-04-11T14:22:00Z</time></trkpt><trkpt lat="44.681678338370965" lon="8.084474561038501"><ele>360.0</ele><time>2026-04-11T14:22:01Z</time></trkpt><trkpt lat="44.68174039623357" lon="8.084641448833853"><ele>363.0</ele><time>2026-04-11T14:22:03Z</time></trkpt><trkpt lat="44.68177830160989" lon="8.08474392356128"><ele>366.0</ele><time>2026-04-11T14:22:04Z</time></trkpt><trkpt lat="44.68180588108865" lon="8.084853209887122"><ele>369.0</ele><time>2026-04-11T14:22:06.001Z</time></trkpt><trkpt lat="44.681819535882155" lon="8.085008847929705"><ele>372.0</ele><time>2026-04-11T14:22:08.001Z</time></trkpt><trkpt lat="44.68184063912487" lon="8.085118034424303"><ele>375.0</ele><time>2026-04-11T14:22:09.001Z</time></trkpt><trkpt lat="44.68186082678745" lon="8.085257192289292"><ele>375.6</ele><time>2026-04-11T14:22:10.001Z</time></trkpt><trkpt lat="44.6818806148415" lon="8.085373794901432"><ele>376.2</ele><time>2026-04-11T14:22:11.001Z</time></trkpt><trkpt lat="44.68188354608941" lon="8.085484656747658"><ele>376.79999999999995</ele><time>2026-04-11T14:22:12.001Z</time></trkpt><trkpt lat="44.681868865143244" lon="8.08557679063205"><ele>377.4</ele><time>2026-04-11T14:22:13.001Z</time></trkpt><trkpt lat="44.681820194794895" lon="8.085764087792871"><ele>378.0</ele><time>2026-04-11T14:22:15.001Z</time></trkpt><trkpt lat="44.681780080838564" lon="8.08587918502466"><ele>379.6666666666667</ele><time>2026-04-11T14:22:16.001Z</time></trkpt><trkpt lat="44.68174385998669" lon="8.085990664419633"><ele>381.33333333333337</ele><time>2026-04-11T14:22:17.001Z</time></trkpt><trkpt lat="44.681702343909556" lon="8.08611058446463"><ele>383.0</ele><time>2026-04-11T14:22:18.001Z</time></trkpt><trkpt lat="44.68167111002222" lon="8.08619095274602"><ele>384.6666666666667</ele><time>2026-04-11T14:22:19.001Z</time></trkpt><trkpt lat="44.681648614631015" lon="8.086284354795598"><ele>386.33333333333337</ele><time>2026-04-11T14:22:20.001Z</time></trkpt><trkpt lat="44.68163084722138" lon="8.086397045492255"><ele>388.0</ele><time>2026-04-11T14:22:21.001Z</time></trkpt><trkpt lat="44.68161238754621" lon="8.0865096722867"><ele>391.0</ele><time>2026-04-11T14:22:22.001Z</time></trkpt><trkpt lat="44.68159201503589" lon="8.086618689882204"><ele>394.0</ele><time>2026-04-11T14:22:23.001Z</time></trkpt><trkpt lat="44.681564200805326" lon="8.086756181362745"><ele>397.0</ele><time>2026-04-11T14:22:24.001Z</time></trkpt><trkpt lat="44.68153417614239" lon="8.086864628477409"><ele>400.0</ele><time>2026-04-11T14:22:25.001Z</time></trkpt><trkpt lat="44.68149467610272" lon="8.086999617905713"><ele>403.0</ele><time>2026-04-11T14:22:26.001Z</time></trkpt><trkpt lat="44.6814521852952" lon="8.087142073345145"><ele>403.0</ele><time>2026-04-11T14:22:27.001Z</time></trkpt><trkpt lat="44.68140523368061" lon="8.087288461474584"><ele>403.0</ele><time>2026-04-11T14:22:28.001Z</time></trkpt><trkpt lat="44.68135624891428" lon="8.087436422315724"><ele>403.0</ele><time>2026-04-11T14:22:29.001Z</time></trkpt><trkpt lat="44.68131402986577" lon="8.08756489393862"><ele>403.0</ele><time>2026-04-11T14:22:30.001Z</time></trkpt><trkpt lat="44.68127172407188" lon="8.087716149805678"><ele>403.0</ele><time>2026-04-11T14:22:31.001Z</time></trkpt><trkpt lat="44.68122018958181" lon="8.087878614972105"><ele>401.4</ele><time>2026-04-11T14:22:32.001Z</time></trkpt><trkpt lat="44.681171037379826" lon="8.088019852586646"><ele>399.79999999999995</ele><time>2026-04-11T14:22:33.001Z</time></trkpt><trkpt lat="44.68112410189396" lon="8.088147019274754"><ele>398.2</ele><time>2026-04-11T14:22:34.001Z</time></trkpt><trkpt lat="44.681084091263315" lon="8.088252056511452"><ele>396.6</ele><time>2026-04-11T14:22:35.001Z</time></trkpt><trkpt lat="44.68105831983831" lon="8.088349219242016"><ele>395.0</ele><time>2026-04-11T14:22:36.001Z</time></trkpt><trkpt lat="44.68103374060494" lon="8.088456534777022"><ele>395.0</ele><time>2026-04-11T14:22:38.001Z</time></trkpt><trkpt lat="44.68101497201837" lon="8.088553917755467"><ele>395.0</ele><time>2026-04-11T14:22:40.001Z</time></trkpt><trkpt lat="44.680971457075174" lon="8.088705481698733"><ele>395.0</ele><time>2026-04-11T14:22:42.001Z</time></trkpt><trkpt lat="44.68092173936845" lon="8.08885426870611"><ele>395.0</ele><time>2026-04-11T14:22:44.001Z</time></trkpt><trkpt lat="44.68085943323994" lon="8.08898236645744"><ele>395.0</ele><time>2026-04-11T14:22:46.001Z</time></trkpt><trkpt lat="44.68076943144815" lon="8.089108058313636"><ele>400.0</ele><time>2026-04-11T14:22:48.001Z</time></trkpt><trkpt lat="44.680717542383945" lon="8.089199378798499"><ele>405.0</ele><time>2026-04-11T14:22:49.001Z</time></trkpt><trkpt lat="44.680625881988675" lon="8.089350413950344"><ele>410.0</ele><time>2026-04-11T14:22:51.001Z</time></trkpt><trkpt lat="44.68056989645608" lon="8.089440267734842"><ele>415.0</ele><time>2026-04-11T14:22:53.001Z</time></trkpt><trkpt lat="44.680493346199974" lon="8.089504477893435"><ele>420.0</ele><time>2026-04-11T14:22:55.001Z</time></trkpt><trkpt lat="44.68039577173699" lon="8.08959798172488"><ele>420.0</ele><time>2026-04-11T14:22:57.001Z</time></trkpt><trkpt lat="44.680293029987354" lon="8.089706789643966"><ele>420.0</ele><time>2026-04-11T14:22:59.001Z</time></trkpt><trkpt lat="44.680233187257066" lon="8.089770005928221"><ele>420.0</ele><time>2026-04-11T14:23:00.001Z</time></trkpt><trkpt lat="44.68017158033833" lon="8.089835533957755"><ele>420.0</ele><time>2026-04-11T14:23:01.001Z</time></trkpt><trkpt lat="44.68005838774574" lon="8.089935694467872"><ele>420.0</ele><time>2026-04-11T14:23:03.001Z</time></trkpt><trkpt lat="44.679984718415106" lon="8.089981786596649"><ele>419.8333333333333</ele><time>2026-04-11T14:23:04.001Z</time></trkpt><trkpt lat="44.67990764541308" lon="8.090039862408439"><ele>419.66666666666663</ele><time>2026-04-11T14:23:05.001Z</time></trkpt><trkpt lat="44.67984871239584" lon="8.090090443896752"><ele>419.5</ele><time>2026-04-11T14:23:06.002Z</time></trkpt><trkpt lat="44.679771246132105" lon="8.090156245000731"><ele>419.3333333333333</ele><time>2026-04-11T14:23:08.002Z</time></trkpt><trkpt lat="44.67969539511596" lon="8.090240422045692"><ele>419.16666666666663</ele><time>2026-04-11T14:23:12.002Z</time></trkpt><trkpt lat="44.67962775878781" lon="8.090258921485749"><ele>419.0</ele><time>2026-04-11T14:23:13.002Z</time></trkpt><trkpt lat="44.679533415863396" lon="8.090350571253484"><ele>419.0</ele><time>2026-04-11T14:23:15.002Z</time></trkpt><trkpt lat="44.67950462422139" lon="8.090510269705238"><ele>419.0</ele><time>2026-04-11T14:23:17.002Z</time></trkpt><trkpt lat="44.67945377669061" lon="8.09062617222663"><ele>419.0</ele><time>2026-04-11T14:23:19.002Z</time></trkpt><trkpt lat="44.67939938977267" lon="8.090732905091455"><ele>419.0</ele><time>2026-04-11T14:24:09.001Z</time></trkpt><trkpt lat="44.67935755300551" lon="8.090822614543404"><ele>419.0</ele><time>2026-04-11T14:24:10.001Z</time></trkpt><trkpt lat="44.6792852641918" lon="8.090949647589502"><ele>420.0</ele><time>2026-04-11T14:24:12.001Z</time></trkpt><trkpt lat="44.67923000347813" lon="8.091019168795581"><ele>421.0</ele><time>2026-04-11T14:24:13.001Z</time></trkpt><trkpt lat="44.679142147132126" lon="8.091178861704432"><ele>422.0</ele><time>2026-04-11T14:24:15.001Z</time></trkpt><trkpt lat="44.679075695119735" lon="8.091293648216576"><ele>423.0</ele><time>2026-04-11T14:24:17.001Z</time></trkpt><trkpt lat="44.679008352179" lon="8.091356437172363"><ele>424.0</ele><time>2026-04-11T14:24:19.001Z</time></trkpt><trkpt lat="44.67894819584642" lon="8.091419495319105"><ele>424.00000000000006</ele><time>2026-04-11T14:24:21.001Z</time></trkpt><trkpt lat="44.678858693520986" lon="8.091440057420783"><ele>424.0</ele><time>2026-04-11T14:24:23.001Z</time></trkpt><trkpt lat="44.67875563148381" lon="8.091439020211697"><ele>424.0</ele><time>2026-04-11T14:24:25.001Z</time></trkpt><trkpt lat="44.67866014049444" lon="8.091448037723032"><ele>424.0</ele><time>2026-04-11T14:24:27.001Z</time></trkpt><trkpt lat="44.678591579614825" lon="8.091503438670168"><ele>424.00000000000006</ele><time>2026-04-11T14:24:33.001Z</time></trkpt><trkpt lat="44.6785663336622" lon="8.0916019698848"><ele>424.0</ele><time>2026-04-11T14:24:35.001Z</time></trkpt><trkpt lat="44.67856519784016" lon="8.091694704645846"><ele>425.6666666666667</ele><time>2026-04-11T14:24:37.001Z</time></trkpt><trkpt lat="44.678545034817176" lon="8.091786595120896"><ele>427.33333333333337</ele><time>2026-04-11T14:24:40.001Z</time></trkpt><trkpt lat="44.678475777025504" lon="8.091795115724997"><ele>429.0</ele><time>2026-04-11T14:24:43.001Z</time></trkpt><trkpt lat="44.678402884279" lon="8.091789741258467"><ele>430.66666666666663</ele><time>2026-04-11T14:24:50.001Z</time></trkpt><trkpt lat="44.67831593412669" lon="8.091705347921327"><ele>432.3333333333333</ele><time>2026-04-11T14:24:53.001Z</time></trkpt><trkpt lat="44.67824188215485" lon="8.091655516509567"><ele>434.0</ele><time>2026-04-11T14:24:55.001Z</time></trkpt><trkpt lat="44.6781615250081" lon="8.091636979394991"><ele>434.0</ele><time>2026-04-11T14:24:57.001Z</time></trkpt><trkpt lat="44.67808592030933" lon="8.091637776190918"><ele>434.0</ele><time>2026-04-11T14:24:59.001Z</time></trkpt><trkpt lat="44.67801744552118" lon="8.091639264242158"><ele>434.0</ele><time>2026-04-11T14:25:01.001Z</time></trkpt><trkpt lat="44.67795556344051" lon="8.09166240924324"><ele>434.0</ele><time>2026-04-11T14:25:04.001Z</time></trkpt><trkpt lat="44.677934843563435" lon="8.091756038809127"><ele>434.0</ele><time>2026-04-11T14:25:06.001Z</time></trkpt><trkpt lat="44.677913065509664" lon="8.091851262379011"><ele>434.0</ele><time>2026-04-11T14:25:08.001Z</time></trkpt><trkpt lat="44.67793426232887" lon="8.09196264822666"><ele>434.0</ele><time>2026-04-11T14:25:15.002Z</time></trkpt><trkpt lat="44.67797333159947" lon="8.09205289673376"><ele>433.99999999999994</ele><time>2026-04-11T14:25:18.002Z</time></trkpt><trkpt lat="44.677933152781584" lon="8.092168035048601"><ele>434.0</ele><time>2026-04-11T14:25:20.002Z</time></trkpt><trkpt lat="44.6778837698812" lon="8.092253916026717"><ele>434.0</ele><time>2026-04-11T14:25:22.002Z</time></trkpt><trkpt lat="44.67783483283473" lon="8.092317750010125"><ele>434.0</ele><time>2026-04-11T14:25:25.002Z</time></trkpt><trkpt lat="44.6778448409176" lon="8.09243613429112"><ele>433.99999999999994</ele><time>2026-04-11T14:25:28.002Z</time></trkpt><trkpt lat="44.677785045176215" lon="8.09248054848547"><ele>434.0</ele><time>2026-04-11T14:25:31Z</time></trkpt><trkpt lat="44.677723373676855" lon="8.092437489784988"><ele>437.16666666666663</ele><time>2026-04-11T14:25:32Z</time></trkpt><trkpt lat="44.677659747572804" lon="8.09237389180414"><ele>440.3333333333333</ele><time>2026-04-11T14:25:33Z</time></trkpt><trkpt lat="44.67759241184703" lon="8.09231631451811"><ele>443.5</ele><time>2026-04-11T14:25:34Z</time></trkpt><trkpt lat="44.67751520116569" lon="8.092257230884401"><ele>446.66666666666663</ele><time>2026-04-11T14:25:35Z</time></trkpt><trkpt lat="44.677427553999" lon="8.092201373738632"><ele>449.8333333333333</ele><time>2026-04-11T14:25:36Z</time></trkpt><trkpt lat="44.67732841024799" lon="8.092166592902775"><ele>453.0</ele><time>2026-04-11T14:25:37Z</time></trkpt><trkpt lat="44.67722242429172" lon="8.092174235353772"><ele>453.0</ele><time>2026-04-11T14:25:38Z</time></trkpt><trkpt lat="44.677120564668186" lon="8.09223894305963"><ele>453.0</ele><time>2026-04-11T14:25:39Z</time></trkpt><trkpt lat="44.677035421570835" lon="8.092360201241565"><ele>453.0</ele><time>2026-04-11T14:25:40Z</time></trkpt><trkpt lat="44.67696492891458" lon="8.092557067379387"><ele>453.0</ele><time>2026-04-11T14:25:41Z</time></trkpt><trkpt lat="44.67688959133966" lon="8.092730080512208"><ele>452.0</ele><time>2026-04-11T14:25:42Z</time></trkpt><trkpt lat="44.67679285767951" lon="8.092912640487825"><ele>451.0</ele><time>2026-04-11T14:25:43Z</time></trkpt><trkpt lat="44.676676125082025" lon="8.093091191643671"><ele>450.0</ele><time>2026-04-11T14:25:44Z</time></trkpt><trkpt lat="44.67654887158299" lon="8.09325533782833"><ele>455.0</ele><time>2026-04-11T14:25:45Z</time></trkpt><trkpt lat="44.67640620898437" lon="8.093436662194433"><ele>460.0</ele><time>2026-04-11T14:25:46Z</time></trkpt><trkpt lat="44.6762646255945" lon="8.093617886966465"><ele>465.0</ele><time>2026-04-11T14:25:47Z</time></trkpt><trkpt lat="44.676111896441746" lon="8.0937743417045"><ele>459.66666666666663</ele><time>2026-04-11T14:25:48Z</time></trkpt><trkpt lat="44.67593381336705" lon="8.09389325885708"><ele>454.3333333333333</ele><time>2026-04-11T14:25:49Z</time></trkpt><trkpt lat="44.675735899816075" lon="8.093982469781537"><ele>449.0</ele><time>2026-04-11T14:25:50Z</time></trkpt><trkpt lat="44.67552333726558" lon="8.094058026204925"><ele>455.5</ele><time>2026-04-11T14:25:51Z</time></trkpt><trkpt lat="44.67529667622058" lon="8.09412373624485"><ele>462.0</ele><time>2026-04-11T14:25:52Z</time></trkpt><trkpt lat="44.675065482346135" lon="8.094157977751706"><ele>462.0</ele><time>2026-04-11T14:25:53Z</time></trkpt><trkpt lat="44.674838466275304" lon="8.094180754269628"><ele>462.0</ele><time>2026-04-11T14:25:54Z</time></trkpt><trkpt lat="44.67461021965569" lon="8.094217759182843"><ele>460.0</ele><time>2026-04-11T14:25:55Z</time></trkpt><trkpt lat="44.67438938784142" lon="8.094281478448618"><ele>458.0</ele><time>2026-04-11T14:25:56Z</time></trkpt><trkpt lat="44.67416579683483" lon="8.094372651363292"><ele>458.0</ele><time>2026-04-11T14:25:57Z</time></trkpt><trkpt lat="44.67394375903675" lon="8.09447190709635"><ele>458.0</ele><time>2026-04-11T14:25:58Z</time></trkpt><trkpt lat="44.67372080169809" lon="8.0945593431146"><ele>456.3333333333333</ele><time>2026-04-11T14:25:59.001Z</time></trkpt><trkpt lat="44.67349651729151" lon="8.094624065794829"><ele>454.66666666666663</ele><time>2026-04-11T14:26:00.001Z</time></trkpt><trkpt lat="44.67328169186803" lon="8.094653996775516"><ele>453.0</ele><time>2026-04-11T14:26:01.001Z</time></trkpt><trkpt lat="44.67306482337001" lon="8.094641313656536"><ele>453.0</ele><time>2026-04-11T14:26:02.001Z</time></trkpt><trkpt lat="44.672835586635784" lon="8.094589216452677"><ele>453.0</ele><time>2026-04-11T14:26:03.001Z</time></trkpt><trkpt lat="44.672605069369176" lon="8.094504181644123"><ele>455.0</ele><time>2026-04-11T14:26:04.001Z</time></trkpt><trkpt lat="44.672393424887126" lon="8.094378583872565"><ele>457.0</ele><time>2026-04-11T14:26:05.001Z</time></trkpt><trkpt lat="44.67221250317033" lon="8.094224066906113"><ele>459.0</ele><time>2026-04-11T14:26:06.001Z</time></trkpt><trkpt lat="44.67205958336945" lon="8.094057081819216"><ele>455.66666666666663</ele><time>2026-04-11T14:26:07.001Z</time></trkpt><trkpt lat="44.67192611362162" lon="8.0939185762807"><ele>452.3333333333333</ele><time>2026-04-11T14:26:08.001Z</time></trkpt><trkpt lat="44.67178633675202" lon="8.093850150909454"><ele>449.0</ele><time>2026-04-11T14:26:09.001Z</time></trkpt><trkpt lat="44.671633093285244" lon="8.093851197630975"><ele>449.0</ele><time>2026-04-11T14:26:10.001Z</time></trkpt><trkpt lat="44.671473612196856" lon="8.093905722458015"><ele>449.0</ele><time>2026-04-11T14:26:11.001Z</time></trkpt><trkpt lat="44.67132541242522" lon="8.094017214613618"><ele>449.0</ele><time>2026-04-11T14:26:12.001Z</time></trkpt><trkpt lat="44.67120168744717" lon="8.09416914729051"><ele>449.3333333333333</ele><time>2026-04-11T14:26:13.001Z</time></trkpt><trkpt lat="44.671106020295696" lon="8.094375629232397"><ele>449.66666666666663</ele><time>2026-04-11T14:26:14.001Z</time></trkpt><trkpt lat="44.67102593710974" lon="8.094615097933103"><ele>450.0</ele><time>2026-04-11T14:26:15.001Z</time></trkpt><trkpt lat="44.67095362607091" lon="8.094856934802104"><ele>453.66666666666663</ele><time>2026-04-11T14:26:16.001Z</time></trkpt><trkpt lat="44.67086736783754" lon="8.095091279024745"><ele>457.3333333333333</ele><time>2026-04-11T14:26:17.001Z</time></trkpt><trkpt lat="44.67075469570116" lon="8.095307990152644"><ele>461.0</ele><time>2026-04-11T14:26:18.001Z</time></trkpt><trkpt lat="44.67062529601589" lon="8.095514853803488"><ele>461.0</ele><time>2026-04-11T14:26:19.001Z</time></trkpt><trkpt lat="44.670495620300564" lon="8.095718907052099"><ele>461.0</ele><time>2026-04-11T14:26:20.001Z</time></trkpt><trkpt lat="44.670364450851096" lon="8.095912275103677"><ele>461.0</ele><time>2026-04-11T14:26:21.001Z</time></trkpt><trkpt lat="44.67022187395039" lon="8.096089544834838"><ele>460.3333333333333</ele><time>2026-04-11T14:26:22.001Z</time></trkpt><trkpt lat="44.67007187712555" lon="8.096228616635157"><ele>459.66666666666663</ele><time>2026-04-11T14:26:23.001Z</time></trkpt><trkpt lat="44.6699181776793" lon="8.096323990550188"><ele>459.0</ele><time>2026-04-11T14:26:24.001Z</time></trkpt><trkpt lat="44.66975441884673" lon="8.09635993158287"><ele>459.0</ele><time>2026-04-11T14:26:25.001Z</time></trkpt><trkpt lat="44.66956705427068" lon="8.096372305970073"><ele>459.0</ele><time>2026-04-11T14:26:26.001Z</time></trkpt><trkpt lat="44.66936898299001" lon="8.096390369471976"><ele>459.0</ele><time>2026-04-11T14:26:27.001Z</time></trkpt><trkpt lat="44.669179921801764" lon="8.0964306468886"><ele>457.0</ele><time>2026-04-11T14:26:28.001Z</time></trkpt><trkpt lat="44.66899682021624" lon="8.096502173311157"><ele>455.0</ele><time>2026-04-11T14:26:29.001Z</time></trkpt><trkpt lat="44.66881630190134" lon="8.096628602649336"><ele>453.0</ele><time>2026-04-11T14:26:30.001Z</time></trkpt><trkpt lat="44.668642345901915" lon="8.096791180179604"><ele>455.66666666666663</ele><time>2026-04-11T14:26:31.001Z</time></trkpt><trkpt lat="44.668461870919366" lon="8.096960783789777"><ele>458.3333333333333</ele><time>2026-04-11T14:26:32.001Z</time></trkpt><trkpt lat="44.66827461598298" lon="8.09712682760713"><ele>461.0</ele><time>2026-04-11T14:26:33.001Z</time></trkpt><trkpt lat="44.668087671125" lon="8.09727700394785"><ele>461.0</ele><time>2026-04-11T14:26:34.001Z</time></trkpt><trkpt lat="44.667891371199815" lon="8.097392125670511"><ele>461.0</ele><time>2026-04-11T14:26:35.001Z</time></trkpt><trkpt lat="44.667688765090034" lon="8.097463168661506"><ele>461.0</ele><time>2026-04-11T14:26:36.001Z</time></trkpt><trkpt lat="44.66747248510007" lon="8.097517863449713"><ele>466.3333333333333</ele><time>2026-04-11T14:26:37.001Z</time></trkpt><trkpt lat="44.66725532265287" lon="8.097559800642015"><ele>471.66666666666663</ele><time>2026-04-11T14:26:38.001Z</time></trkpt><trkpt lat="44.66703360109727" lon="8.097573194399216"><ele>477.0</ele><time>2026-04-11T14:26:39.001Z</time></trkpt><trkpt lat="44.66681432544102" lon="8.097553634508262"><ele>477.0</ele><time>2026-04-11T14:26:40.001Z</time></trkpt><trkpt lat="44.66660444127637" lon="8.097520839475713"><ele>477.0</ele><time>2026-04-11T14:26:41.001Z</time></trkpt><trkpt lat="44.66641689018012" lon="8.097495642415419"><ele>477.0</ele><time>2026-04-11T14:26:42.001Z</time></trkpt><trkpt lat="44.66625314323245" lon="8.097489295037013"><ele>475.0</ele><time>2026-04-11T14:26:43.001Z</time></trkpt><trkpt lat="44.666107895582556" lon="8.097515082843156"><ele>473.0</ele><time>2026-04-11T14:26:44.001Z</time></trkpt><trkpt lat="44.66596934376105" lon="8.097592717053784"><ele>471.0</ele><time>2026-04-11T14:26:45.001Z</time></trkpt><trkpt lat="44.665829857556396" lon="8.097728645385715"><ele>471.0</ele><time>2026-04-11T14:26:46.001Z</time></trkpt><trkpt lat="44.6657099567099" lon="8.097913562882136"><ele>471.0</ele><time>2026-04-11T14:26:47.001Z</time></trkpt><trkpt lat="44.665600657085555" lon="8.098088890384874"><ele>471.0</ele><time>2026-04-11T14:26:48.001Z</time></trkpt><trkpt lat="44.66545917514002" lon="8.098182427729009"><ele>471.0</ele><time>2026-04-11T14:26:49.001Z</time></trkpt><trkpt lat="44.66528762005522" lon="8.098207845917253"><ele>471.0</ele><time>2026-04-11T14:26:50.001Z</time></trkpt><trkpt lat="44.66512220395832" lon="8.098226248649777"><ele>471.0</ele><time>2026-04-11T14:26:51.001Z</time></trkpt><trkpt lat="44.664982588469144" lon="8.098293766793086"><ele>475.0</ele><time>2026-04-11T14:26:52.001Z</time></trkpt><trkpt lat="44.66484944869363" lon="8.098438280415401"><ele>479.0</ele><time>2026-04-11T14:26:53.001Z</time></trkpt><trkpt lat="44.66471208428171" lon="8.098627324647769"><ele>483.0</ele><time>2026-04-11T14:26:54.001Z</time></trkpt><trkpt lat="44.66456251589589" lon="8.0988046890969"><ele>483.33333333333337</ele><time>2026-04-11T14:26:55.001Z</time></trkpt><trkpt lat="44.66441867103376" lon="8.098939647520837"><ele>483.6666666666667</ele><time>2026-04-11T14:26:56.001Z</time></trkpt><trkpt lat="44.664286429157265" lon="8.099063001246577"><ele>484.0</ele><time>2026-04-11T14:26:57.001Z</time></trkpt><trkpt lat="44.66416932668965" lon="8.099233949799297"><ele>484.0</ele><time>2026-04-11T14:26:58.001Z</time></trkpt><trkpt lat="44.664064773463366" lon="8.099453342099128"><ele>484.0</ele><time>2026-04-11T14:26:59.001Z</time></trkpt><trkpt lat="44.66397752257561" lon="8.099665613686446"><ele>484.0</ele><time>2026-04-11T14:27:00.001Z</time></trkpt><trkpt lat="44.66390150583723" lon="8.09984823866334"><ele>485.79999999999995</ele><time>2026-04-11T14:27:01.001Z</time></trkpt><trkpt lat="44.66382714734428" lon="8.100002827287254"><ele>487.59999999999997</ele><time>2026-04-11T14:27:02.001Z</time></trkpt><trkpt lat="44.663765681168464" lon="8.100123160450288"><ele>489.4</ele><time>2026-04-11T14:27:03.001Z</time></trkpt><trkpt lat="44.66373452083727" lon="8.100230531040536"><ele>491.2</ele><time>2026-04-11T14:27:04.001Z</time></trkpt><trkpt lat="44.663736445324645" lon="8.100337724035743"><ele>493.0</ele><time>2026-04-11T14:27:05.001Z</time></trkpt><trkpt lat="44.66375781121522" lon="8.100440252821825"><ele>493.00000000000006</ele><time>2026-04-11T14:27:06.001Z</time></trkpt><trkpt lat="44.663780905886625" lon="8.100542594802608"><ele>493.0</ele><time>2026-04-11T14:27:07.001Z</time></trkpt><trkpt lat="44.66379520065265" lon="8.100637749220203"><ele>493.0</ele><time>2026-04-11T14:27:08.001Z</time></trkpt><trkpt lat="44.663798501869934" lon="8.100796365044946"><ele>493.0</ele><time>2026-04-11T14:27:10.002Z</time></trkpt><trkpt lat="44.66378748887964" lon="8.100888440192866"><ele>493.00000000000006</ele><time>2026-04-11T14:27:11.002Z</time></trkpt><trkpt lat="44.66375334369557" lon="8.100986752840344"><ele>493.0</ele><time>2026-04-11T14:27:12.002Z</time></trkpt><trkpt lat="44.66369331774214" lon="8.101081644755226"><ele>493.59999999999997</ele><time>2026-04-11T14:27:13.002Z</time></trkpt><trkpt lat="44.66362080481285" lon="8.101170817138408"><ele>494.19999999999993</ele><time>2026-04-11T14:27:14.002Z</time></trkpt><trkpt lat="44.66356424361256" lon="8.101248349670042"><ele>494.8</ele><time>2026-04-11T14:27:15.002Z</time></trkpt><trkpt lat="44.66348663794499" lon="8.101341344132214"><ele>495.4</ele><time>2026-04-11T14:27:17.002Z</time></trkpt><trkpt lat="44.66336836546319" lon="8.101406392873079"><ele>496.0</ele><time>2026-04-11T14:27:19.002Z</time></trkpt><trkpt lat="44.66328031989215" lon="8.101500121295695"><ele>496.0</ele><time>2026-04-11T14:27:21.002Z</time></trkpt><trkpt lat="44.663186539906626" lon="8.101525409545859"><ele>496.0</ele><time>2026-04-11T14:27:23.002Z</time></trkpt><trkpt lat="44.66310037886867" lon="8.101434990828155"><ele>496.0</ele><time>2026-04-11T14:27:25.002Z</time></trkpt><trkpt lat="44.66305577695537" lon="8.10137232294262"><ele>496.0</ele><time>2026-04-11T14:27:26.002Z</time></trkpt><trkpt lat="44.66294694941304" lon="8.101297741469715"><ele>496.0</ele><time>2026-04-11T14:27:28.002Z</time></trkpt><trkpt lat="44.66282147411341" lon="8.101247252417323"><ele>496.4</ele><time>2026-04-11T14:27:30.002Z</time></trkpt><trkpt lat="44.66269826907743" lon="8.101219770736344"><ele>496.8</ele><time>2026-04-11T14:27:32.002Z</time></trkpt><trkpt lat="44.662620862525564" lon="8.101212516787191"><ele>497.19999999999993</ele><time>2026-04-11T14:27:33.002Z</time></trkpt><trkpt lat="44.662539233282814" lon="8.101219388037157"><ele>497.59999999999997</ele><time>2026-04-11T14:27:34.002Z</time></trkpt><trkpt lat="44.66245949035746" lon="8.101238603889062"><ele>498.0</ele><time>2026-04-11T14:27:35.002Z</time></trkpt><trkpt lat="44.66237128958705" lon="8.101263384147465"><ele>498.0</ele><time>2026-04-11T14:27:36.002Z</time></trkpt><trkpt lat="44.662288857546564" lon="8.101278034886883"><ele>498.0</ele><time>2026-04-11T14:27:37Z</time></trkpt><trkpt lat="44.66220648249996" lon="8.101281948734378"><ele>498.0</ele><time>2026-04-11T14:27:38Z</time></trkpt><trkpt lat="44.66211799018154" lon="8.101267992509932"><ele>498.0</ele><time>2026-04-11T14:27:39Z</time></trkpt><trkpt lat="44.662035875223644" lon="8.101241576610349"><ele>498.0</ele><time>2026-04-11T14:27:40Z</time></trkpt><trkpt lat="44.66194280413472" lon="8.10122048651857"><ele>498.0</ele><time>2026-04-11T14:27:41Z</time></trkpt><trkpt lat="44.66186362876729" lon="8.101221271076351"><ele>499.2</ele><time>2026-04-11T14:27:42Z</time></trkpt><trkpt lat="44.661764338188505" lon="8.101238487379126"><ele>500.4</ele><time>2026-04-11T14:27:43Z</time></trkpt><trkpt lat="44.66166949994517" lon="8.101254502369347"><ele>501.59999999999997</ele><time>2026-04-11T14:27:44Z</time></trkpt><trkpt lat="44.661578583802196" lon="8.101265728940302"><ele>502.79999999999995</ele><time>2026-04-11T14:27:45Z</time></trkpt><trkpt lat="44.66148803823958" lon="8.101286984099445"><ele>504.0</ele><time>2026-04-11T14:27:46Z</time></trkpt><trkpt lat="44.66139704140503" lon="8.101305841108974"><ele>504.0</ele><time>2026-04-11T14:27:47Z</time></trkpt><trkpt lat="44.661303770851056" lon="8.101321022498938"><ele>504.0</ele><time>2026-04-11T14:27:48Z</time></trkpt><trkpt lat="44.66121477359611" lon="8.101348208633448"><ele>504.0</ele><time>2026-04-11T14:27:49Z</time></trkpt><trkpt lat="44.66113790888388" lon="8.101386458314407"><ele>504.0</ele><time>2026-04-11T14:27:50Z</time></trkpt><trkpt lat="44.66105027402046" lon="8.101429775739172"><ele>504.0</ele><time>2026-04-11T14:27:51Z</time></trkpt><trkpt lat="44.660965349004684" lon="8.101480782750976"><ele>504.5</ele><time>2026-04-11T14:27:52Z</time></trkpt><trkpt lat="44.660892012250265" lon="8.101539974476074"><ele>505.0</ele><time>2026-04-11T14:27:53Z</time></trkpt><trkpt lat="44.66081065040446" lon="8.101594082831657"><ele>505.5</ele><time>2026-04-11T14:27:54Z</time></trkpt><trkpt lat="44.66073025700257" lon="8.101633670746631"><ele>506.0</ele><time>2026-04-11T14:27:55Z</time></trkpt><trkpt lat="44.66064707130312" lon="8.101672529369994"><ele>506.5</ele><time>2026-04-11T14:27:56Z</time></trkpt><trkpt lat="44.660565493113296" lon="8.10171719658532"><ele>507.0</ele><time>2026-04-11T14:27:57Z</time></trkpt><trkpt lat="44.66047983248614" lon="8.101776056517252"><ele>508.0</ele><time>2026-04-11T14:27:58Z</time></trkpt><trkpt lat="44.66036099626651" lon="8.101849657440466"><ele>509.00000000000006</ele><time>2026-04-11T14:28:00Z</time></trkpt><trkpt lat="44.66028345018724" lon="8.101907312778089"><ele>510.00000000000006</ele><time>2026-04-11T14:28:01Z</time></trkpt><trkpt lat="44.6601896127763" lon="8.101961101059642"><ele>511.0</ele><time>2026-04-11T14:28:02Z</time></trkpt><trkpt lat="44.66011667265561" lon="8.10197709633081"><ele>512.0</ele><time>2026-04-11T14:28:03Z</time></trkpt><trkpt lat="44.65998372098521" lon="8.102027339886519"><ele>514.8000000000001</ele><time>2026-04-11T14:28:05Z</time></trkpt><trkpt lat="44.659910840740494" lon="8.102034011332012"><ele>517.6</ele><time>2026-04-11T14:28:06Z</time></trkpt><trkpt lat="44.65984756721364" lon="8.102014273603778"><ele>520.4000000000001</ele><time>2026-04-11T14:28:07Z</time></trkpt><trkpt lat="44.659780200291806" lon="8.101990786014154"><ele>523.2</ele><time>2026-04-11T14:28:08Z</time></trkpt><trkpt lat="44.65966212536985" lon="8.101979727543307"><ele>526.0</ele><time>2026-04-11T14:28:10Z</time></trkpt><trkpt lat="44.65952892460993" lon="8.10201056194834"><ele>526.0</ele><time>2026-04-11T14:28:12Z</time></trkpt><trkpt lat="44.65945636888821" lon="8.102032511797281"><ele>526.0</ele><time>2026-04-11T14:28:13Z</time></trkpt><trkpt lat="44.659378236115934" lon="8.102065825395206"><ele>526.0</ele><time>2026-04-11T14:28:14Z</time></trkpt><trkpt lat="44.65931075846013" lon="8.102098155857012"><ele>526.0</ele><time>2026-04-11T14:28:15Z</time></trkpt><trkpt lat="44.6592288670429" lon="8.102136376672986"><ele>526.0</ele><time>2026-04-11T14:28:16.001Z</time></trkpt><trkpt lat="44.65914268918073" lon="8.102181629270055"><ele>526.0</ele><time>2026-04-11T14:28:17.001Z</time></trkpt><trkpt lat="44.65906643187681" lon="8.102222278305062"><ele>526.8333333333334</ele><time>2026-04-11T14:28:18.001Z</time></trkpt><trkpt lat="44.65899771936057" lon="8.102268968624667"><ele>527.6666666666667</ele><time>2026-04-11T14:28:19.001Z</time></trkpt><trkpt lat="44.65892391952639" lon="8.102317360416581"><ele>528.5</ele><time>2026-04-11T14:28:20.001Z</time></trkpt><trkpt lat="44.65885089182272" lon="8.102356587901072"><ele>529.3333333333334</ele><time>2026-04-11T14:28:21.001Z</time></trkpt><trkpt lat="44.65877697701304" lon="8.10239700763423"><ele>530.1666666666666</ele><time>2026-04-11T14:28:22.001Z</time></trkpt><trkpt lat="44.65870846804128" lon="8.10243643201774"><ele>531.0</ele><time>2026-04-11T14:28:23.001Z</time></trkpt><trkpt lat="44.658637260836784" lon="8.102486965399407"><ele>533.0</ele><time>2026-04-11T14:28:24.001Z</time></trkpt><trkpt lat="44.658561193982315" lon="8.10252619186065"><ele>535.0</ele><time>2026-04-11T14:28:25.001Z</time></trkpt><trkpt lat="44.65849755519679" lon="8.102542743922541"><ele>537.0</ele><time>2026-04-11T14:28:26.001Z</time></trkpt><trkpt lat="44.65842806443127" lon="8.102555477951702"><ele>539.0</ele><time>2026-04-11T14:28:27.001Z</time></trkpt><trkpt lat="44.658361358069776" lon="8.102571256906215"><ele>541.0</ele><time>2026-04-11T14:28:28.001Z</time></trkpt><trkpt lat="44.658284618526004" lon="8.102591167076264"><ele>543.0</ele><time>2026-04-11T14:28:29.001Z</time></trkpt><trkpt lat="44.658214117021934" lon="8.10260991774762"><ele>545.0</ele><time>2026-04-11T14:28:30.001Z</time></trkpt><trkpt lat="44.658137472932644" lon="8.102632443535196"><ele>545.0</ele><time>2026-04-11T14:28:31.001Z</time></trkpt><trkpt lat="44.65806413219164" lon="8.10265186677553"><ele>545.0</ele><time>2026-04-11T14:28:32.001Z</time></trkpt><trkpt lat="44.6579930186766" lon="8.102667413156952"><ele>545.0</ele><time>2026-04-11T14:28:33.001Z</time></trkpt><trkpt lat="44.657920146501034" lon="8.102682975592312"><ele>545.0</ele><time>2026-04-11T14:28:34.001Z</time></trkpt><trkpt lat="44.657849543209906" lon="8.102709158307972"><ele>545.0</ele><time>2026-04-11T14:28:35.001Z</time></trkpt><trkpt lat="44.65778146132776" lon="8.102741617303574"><ele>545.0</ele><time>2026-04-11T14:28:36.001Z</time></trkpt><trkpt lat="44.6577120146931" lon="8.102762783813885"><ele>545.0</ele><time>2026-04-11T14:28:37.001Z</time></trkpt><trkpt lat="44.65764531134465" lon="8.102775956152087"><ele>544.3333333333333</ele><time>2026-04-11T14:28:38.001Z</time></trkpt><trkpt lat="44.65756282922091" lon="8.10279358251906"><ele>543.6666666666666</ele><time>2026-04-11T14:28:39.001Z</time></trkpt><trkpt lat="44.65749209321191" lon="8.102808068206977"><ele>543.0</ele><time>2026-04-11T14:28:40.001Z</time></trkpt><trkpt lat="44.65741149116472" lon="8.102820074781595"><ele>542.3333333333334</ele><time>2026-04-11T14:28:41.001Z</time></trkpt><trkpt lat="44.65732819228387" lon="8.102833022766028"><ele>541.6666666666667</ele><time>2026-04-11T14:28:42.001Z</time></trkpt><trkpt lat="44.65724741720967" lon="8.102843495199368"><ele>541.0</ele><time>2026-04-11T14:28:43.001Z</time></trkpt><trkpt lat="44.657159813874095" lon="8.102858397475831"><ele>541.0</ele><time>2026-04-11T14:28:44.001Z</time></trkpt><trkpt lat="44.657069940432805" lon="8.102871210003286"><ele>541.0</ele><time>2026-04-11T14:28:45.001Z</time></trkpt><trkpt lat="44.65698507812385" lon="8.102860566780175"><ele>541.0</ele><time>2026-04-11T14:28:46.001Z</time></trkpt><trkpt lat="44.65688967050403" lon="8.102832754406974"><ele>541.0</ele><time>2026-04-11T14:28:47.001Z</time></trkpt><trkpt lat="44.656794572918635" lon="8.102812626490389"><ele>541.0</ele><time>2026-04-11T14:28:48.001Z</time></trkpt><trkpt lat="44.65670108034113" lon="8.102799138159623"><ele>540.6666666666667</ele><time>2026-04-11T14:28:49.001Z</time></trkpt><trkpt lat="44.65661195275415" lon="8.102790583671787"><ele>540.3333333333334</ele><time>2026-04-11T14:28:50.001Z</time></trkpt><trkpt lat="44.656534221211956" lon="8.102800572000781"><ele>540.0</ele><time>2026-04-11T14:28:51.001Z</time></trkpt><trkpt lat="44.65645518967734" lon="8.102836131264857"><ele>539.6666666666666</ele><time>2026-04-11T14:28:52.001Z</time></trkpt><trkpt lat="44.65638047551391" lon="8.102888217695307"><ele>539.3333333333333</ele><time>2026-04-11T14:28:53.001Z</time></trkpt><trkpt lat="44.65631235516064" lon="8.10296628914702"><ele>539.0</ele><time>2026-04-11T14:28:54.001Z</time></trkpt><trkpt lat="44.656249136060055" lon="8.103072467972506"><ele>539.0</ele><time>2026-04-11T14:28:55.001Z</time></trkpt><trkpt lat="44.65618750627006" lon="8.103174008500591"><ele>539.0</ele><time>2026-04-11T14:28:56.001Z</time></trkpt><trkpt lat="44.65612522519995" lon="8.103267419418632"><ele>539.0</ele><time>2026-04-11T14:28:57.001Z</time></trkpt><trkpt lat="44.65605771522471" lon="8.103346783873274"><ele>539.0</ele><time>2026-04-11T14:28:58.001Z</time></trkpt><trkpt lat="44.65598714104036" lon="8.10341131117911"><ele>539.0</ele><time>2026-04-11T14:28:59.001Z</time></trkpt><trkpt lat="44.6559138774287" lon="8.10346078294425"><ele>539.0</ele><time>2026-04-11T14:29:00.001Z</time></trkpt><trkpt lat="44.65584219639103" lon="8.10351912446656"><ele>539.3333333333333</ele><time>2026-04-11T14:29:01.001Z</time></trkpt><trkpt lat="44.65577209484651" lon="8.103581002964653"><ele>539.6666666666666</ele><time>2026-04-11T14:29:02.001Z</time></trkpt><trkpt lat="44.65571354364462" lon="8.103645406196456"><ele>540.0</ele><time>2026-04-11T14:29:03.001Z</time></trkpt><trkpt lat="44.65565863579249" lon="8.103712506357157"><ele>540.3333333333334</ele><time>2026-04-11T14:29:04.001Z</time></trkpt><trkpt lat="44.65558775587291" lon="8.103861310455452"><ele>540.6666666666667</ele><time>2026-04-11T14:29:06.001Z</time></trkpt><trkpt lat="44.655561954048075" lon="8.103953271594644"><ele>541.0</ele><time>2026-04-11T14:29:07.001Z</time></trkpt><trkpt lat="44.65554221710837" lon="8.104058282120727"><ele>543.0</ele><time>2026-04-11T14:29:08.001Z</time></trkpt><trkpt lat="44.655530508734884" lon="8.10419131993345"><ele>545.0</ele><time>2026-04-11T14:29:09.001Z</time></trkpt><trkpt lat="44.655530104332065" lon="8.10432119485214"><ele>547.0</ele><time>2026-04-11T14:29:10.001Z</time></trkpt><trkpt lat="44.65553479653674" lon="8.104448184971274"><ele>549.0</ele><time>2026-04-11T14:29:11.001Z</time></trkpt><trkpt lat="44.65552731240016" lon="8.104556266136608"><ele>551.0</ele><time>2026-04-11T14:29:12.001Z</time></trkpt><trkpt lat="44.65550203276223" lon="8.104678670880023"><ele>553.0</ele><time>2026-04-11T14:29:13.001Z</time></trkpt><trkpt lat="44.65546816483617" lon="8.104807149010094"><ele>553.5</ele><time>2026-04-11T14:29:14.001Z</time></trkpt><trkpt lat="44.65543500269902" lon="8.104916786261706"><ele>554.0</ele><time>2026-04-11T14:29:15.001Z</time></trkpt><trkpt lat="44.655397350798644" lon="8.10503100962593"><ele>554.5</ele><time>2026-04-11T14:29:16.001Z</time></trkpt><trkpt lat="44.65536562910437" lon="8.105114756937821"><ele>555.0</ele><time>2026-04-11T14:29:17.001Z</time></trkpt><trkpt lat="44.655334391547115" lon="8.105192928620525"><ele>555.5</ele><time>2026-04-11T14:29:18.001Z</time></trkpt><trkpt lat="44.655296273923305" lon="8.105291948882481"><ele>556.0</ele><time>2026-04-11T14:29:20.001Z</time></trkpt><trkpt lat="44.65525810818644" lon="8.10541959854842"><ele>556.0</ele><time>2026-04-11T14:29:28.002Z</time></trkpt><trkpt lat="44.655190374448004" lon="8.105455158668125"><ele>556.0</ele><time>2026-04-11T14:29:31.002Z</time></trkpt><trkpt lat="44.65525389423513" lon="8.105424677423631"><ele>556.0</ele><time>2026-04-11T14:29:37.002Z</time></trkpt><trkpt lat="44.655290026855546" lon="8.105332264146975"><ele>556.0</ele><time>2026-04-11T14:29:39.002Z</time></trkpt><trkpt lat="44.65532666485311" lon="8.10522685545028"><ele>556.0</ele><time>2026-04-11T14:29:52Z</time></trkpt><trkpt lat="44.655402283265694" lon="8.105030694540648"><ele>556.0</ele><time>2026-04-11T14:29:54Z</time></trkpt><trkpt lat="44.655442524657275" lon="8.104916131231032"><ele>556.0</ele><time>2026-04-11T14:29:55Z</time></trkpt><trkpt lat="44.65548000512119" lon="8.104783274580994"><ele>556.0</ele><time>2026-04-11T14:29:56Z</time></trkpt><trkpt lat="44.65550527279496" lon="8.104667570372543"><ele>556.0</ele><time>2026-04-11T14:29:57Z</time></trkpt><trkpt lat="44.65551813731005" lon="8.10456983592279"><ele>556.0</ele><time>2026-04-11T14:29:58Z</time></trkpt><trkpt lat="44.655533278892456" lon="8.104460966158387"><ele>556.0</ele><time>2026-04-11T14:30:00Z</time></trkpt><trkpt lat="44.65554234534833" lon="8.104359502137239"><ele>555.5</ele><time>2026-04-11T14:30:03Z</time></trkpt><trkpt lat="44.65553977454522" lon="8.104267691560528"><ele>555.0</ele><time>2026-04-11T14:30:04Z</time></trkpt><trkpt lat="44.65553720113375" lon="8.104168527680136"><ele>554.5</ele><time>2026-04-11T14:30:05Z</time></trkpt><trkpt lat="44.655545927214376" lon="8.103998121724079"><ele>554.0</ele><time>2026-04-11T14:30:07Z</time></trkpt><trkpt lat="44.6556006743078" lon="8.103838489893205"><ele>553.5</ele><time>2026-04-11T14:30:09Z</time></trkpt><trkpt lat="44.65563845320484" lon="8.103765588137454"><ele>553.0</ele><time>2026-04-11T14:30:10Z</time></trkpt><trkpt lat="44.65572890095722" lon="8.103637664862218"><ele>551.0</ele><time>2026-04-11T14:30:12Z</time></trkpt><trkpt lat="44.65582319771919" lon="8.103529675836043"><ele>549.0</ele><time>2026-04-11T14:30:14Z</time></trkpt><trkpt lat="44.65588691204778" lon="8.103483236260487"><ele>547.0</ele><time>2026-04-11T14:30:15Z</time></trkpt><trkpt lat="44.65595613412364" lon="8.103431956526437"><ele>545.0</ele><time>2026-04-11T14:30:16Z</time></trkpt><trkpt lat="44.656012755529304" lon="8.103379148897632"><ele>543.0</ele><time>2026-04-11T14:30:17Z</time></trkpt><trkpt lat="44.65609342865887" lon="8.103302308418993"><ele>541.0</ele><time>2026-04-11T14:30:18Z</time></trkpt><trkpt lat="44.65617351222399" lon="8.103205989864707"><ele>540.6666666666667</ele><time>2026-04-11T14:30:19Z</time></trkpt><trkpt lat="44.656234829696224" lon="8.103116454544812"><ele>540.3333333333334</ele><time>2026-04-11T14:30:20Z</time></trkpt><trkpt lat="44.65629894531123" lon="8.103073991423157"><ele>540.0</ele><time>2026-04-11T14:30:22Z</time></trkpt><trkpt lat="44.65635420627544" lon="8.102982567136232"><ele>539.6666666666666</ele><time>2026-04-11T14:30:26.001Z</time></trkpt><trkpt lat="44.65629204236875" lon="8.103021193551989"><ele>539.3333333333333</ele><time>2026-04-11T14:30:33.001Z</time></trkpt><trkpt lat="44.65626080375173" lon="8.103104975851187"><ele>539.0</ele><time>2026-04-11T14:30:34.001Z</time></trkpt><trkpt lat="44.65620137943999" lon="8.1031827626157"><ele>539.4</ele><time>2026-04-11T14:30:35.001Z</time></trkpt><trkpt lat="44.656123980148564" lon="8.10326253461675"><ele>539.8</ele><time>2026-04-11T14:30:36.001Z</time></trkpt><trkpt lat="44.65603856200613" lon="8.103354581109556"><ele>540.2</ele><time>2026-04-11T14:30:37.001Z</time></trkpt><trkpt lat="44.65595685034465" lon="8.103433664422198"><ele>540.6</ele><time>2026-04-11T14:30:38.001Z</time></trkpt><trkpt lat="44.65588457213888" lon="8.103493840209158"><ele>541.0</ele><time>2026-04-11T14:30:39.001Z</time></trkpt><trkpt lat="44.65582354427502" lon="8.103541537742286"><ele>541.0</ele><time>2026-04-11T14:30:40.001Z</time></trkpt><trkpt lat="44.655757928307295" lon="8.103596346169992"><ele>541.0</ele><time>2026-04-11T14:30:41.001Z</time></trkpt><trkpt lat="44.65570268211824" lon="8.103658709352189"><ele>541.0</ele><time>2026-04-11T14:30:42.001Z</time></trkpt><trkpt lat="44.65565792448395" lon="8.10372110778939"><ele>541.0</ele><time>2026-04-11T14:30:43.001Z</time></trkpt><trkpt lat="44.65561970133933" lon="8.103792840809527"><ele>541.0</ele><time>2026-04-11T14:30:44.001Z</time></trkpt><trkpt lat="44.65556158343953" lon="8.103928391917913"><ele>541.0</ele><time>2026-04-11T14:30:46.001Z</time></trkpt><trkpt lat="44.655543566321" lon="8.104059603036882"><ele>543.0</ele><time>2026-04-11T14:30:48.001Z</time></trkpt><trkpt lat="44.65553016643099" lon="8.104158375200008"><ele>545.0</ele><time>2026-04-11T14:30:50.001Z</time></trkpt><trkpt lat="44.65552746682554" lon="8.104252230118561"><ele>547.0</ele><time>2026-04-11T14:30:52.001Z</time></trkpt><trkpt lat="44.655528435324086" lon="8.104342420112648"><ele>549.0</ele><time>2026-04-11T14:30:54.001Z</time></trkpt><trkpt lat="44.65552785330301" lon="8.104469284092463"><ele>551.0</ele><time>2026-04-11T14:30:57.001Z</time></trkpt><trkpt lat="44.65551503431363" lon="8.104594956700216"><ele>553.0</ele><time>2026-04-11T14:30:59.001Z</time></trkpt><trkpt lat="44.65547856396547" lon="8.104777136085312"><ele>553.0</ele><time>2026-04-11T14:31:01.001Z</time></trkpt><trkpt lat="44.655448937988275" lon="8.104876524965542"><ele>553.0</ele><time>2026-04-11T14:31:02.001Z</time></trkpt><trkpt lat="44.655412757969565" lon="8.104983676706244"><ele>553.0</ele><time>2026-04-11T14:31:03.001Z</time></trkpt><trkpt lat="44.65537318952214" lon="8.105090562261884"><ele>553.0</ele><time>2026-04-11T14:31:04.001Z</time></trkpt><trkpt lat="44.655334317681906" lon="8.105192694908192"><ele>553.0</ele><time>2026-04-11T14:31:05.001Z</time></trkpt><trkpt lat="44.65528691976083" lon="8.105325160155294"><ele>553.0</ele><time>2026-04-11T14:31:07.001Z</time></trkpt><trkpt lat="44.655265365264086" lon="8.105409499159244"><ele>550.8333333333334</ele><time>2026-04-11T14:31:09.001Z</time></trkpt><trkpt lat="44.6551848426828" lon="8.105490059512112"><ele>548.6666666666667</ele><time>2026-04-11T14:31:12.001Z</time></trkpt><trkpt lat="44.655133425601875" lon="8.105561214717213"><ele>546.5</ele><time>2026-04-11T14:31:13.001Z</time></trkpt><trkpt lat="44.65510600171282" lon="8.105676835937665"><ele>544.3333333333334</ele><time>2026-04-11T14:31:14.001Z</time></trkpt><trkpt lat="44.6550713239296" lon="8.105788498312375"><ele>542.1666666666666</ele><time>2026-04-11T14:31:15.001Z</time></trkpt><trkpt lat="44.65501476496115" lon="8.105890236199816"><ele>540.0</ele><time>2026-04-11T14:31:16.001Z</time></trkpt><trkpt lat="44.65495904822277" lon="8.105993393735798"><ele>540.0</ele><time>2026-04-11T14:31:17.001Z</time></trkpt><trkpt lat="44.65490484106475" lon="8.106096076273726"><ele>540.0</ele><time>2026-04-11T14:31:18.001Z</time></trkpt><trkpt lat="44.65484366652759" lon="8.106192572952066"><ele>540.0</ele><time>2026-04-11T14:31:19.001Z</time></trkpt><trkpt lat="44.65477529140438" lon="8.1062822807044"><ele>540.0</ele><time>2026-04-11T14:31:20.001Z</time></trkpt><trkpt lat="44.65470563219369" lon="8.106371479729944"><ele>540.0</ele><time>2026-04-11T14:31:21.001Z</time></trkpt><trkpt lat="44.654628867225654" lon="8.106455622194595"><ele>540.0</ele><time>2026-04-11T14:31:22.001Z</time></trkpt><trkpt lat="44.654550990517784" lon="8.106533731101937"><ele>540.0</ele><time>2026-04-11T14:31:23.001Z</time></trkpt><trkpt lat="44.65446932108542" lon="8.106608552181811"><ele>540.0</ele><time>2026-04-11T14:31:24.001Z</time></trkpt><trkpt lat="44.6543863430643" lon="8.106681702018125"><ele>540.0</ele><time>2026-04-11T14:31:25.001Z</time></trkpt><trkpt lat="44.654312173388035" lon="8.106746672505016"><ele>540.0</ele><time>2026-04-11T14:31:26.001Z</time></trkpt><trkpt lat="44.65425684197667" lon="8.10682419383785"><ele>540.8333333333334</ele><time>2026-04-11T14:31:27.001Z</time></trkpt><trkpt lat="44.65422572094856" lon="8.106925004443784"><ele>541.6666666666666</ele><time>2026-04-11T14:31:28.001Z</time></trkpt><trkpt lat="44.65422243969385" lon="8.10703396089429"><ele>542.5</ele><time>2026-04-11T14:31:29.001Z</time></trkpt><trkpt lat="44.654262247164844" lon="8.107127523362912"><ele>543.3333333333333</ele><time>2026-04-11T14:31:30.001Z</time></trkpt><trkpt lat="44.654332167110056" lon="8.107192687549047"><ele>544.1666666666666</ele><time>2026-04-11T14:31:31.001Z</time></trkpt><trkpt lat="44.65441523264554" lon="8.107220217954897"><ele>545.0</ele><time>2026-04-11T14:31:32.001Z</time></trkpt><trkpt lat="44.65451213068075" lon="8.107231903585"><ele>545.8</ele><time>2026-04-11T14:31:33.001Z</time></trkpt><trkpt lat="44.65461048895713" lon="8.107231457944609"><ele>546.6</ele><time>2026-04-11T14:31:34.001Z</time></trkpt><trkpt lat="44.65470743476965" lon="8.107227960952883"><ele>547.4</ele><time>2026-04-11T14:31:35.001Z</time></trkpt><trkpt lat="44.65480971370483" lon="8.107215164902067"><ele>548.2</ele><time>2026-04-11T14:31:36.001Z</time></trkpt><trkpt lat="44.65491168592816" lon="8.107193021616654"><ele>549.0</ele><time>2026-04-11T14:31:37.001Z</time></trkpt><trkpt lat="44.655014085755894" lon="8.10716205171092"><ele>549.0</ele><time>2026-04-11T14:31:38.002Z</time></trkpt><trkpt lat="44.65511821305615" lon="8.107119264025277"><ele>549.0</ele><time>2026-04-11T14:31:39.002Z</time></trkpt><trkpt lat="44.65521742167866" lon="8.107071548974329"><ele>549.0</ele><time>2026-04-11T14:31:40.002Z</time></trkpt><trkpt lat="44.65531274062246" lon="8.107024380254638"><ele>549.0</ele><time>2026-04-11T14:31:41.002Z</time></trkpt><trkpt lat="44.655406237635844" lon="8.106972240314096"><ele>549.0</ele><time>2026-04-11T14:31:42.002Z</time></trkpt><trkpt lat="44.65549506972759" lon="8.106908043054808"><ele>550.1666666666666</ele><time>2026-04-11T14:31:43.002Z</time></trkpt><trkpt lat="44.655580380081126" lon="8.106837002375448"><ele>551.3333333333334</ele><time>2026-04-11T14:31:44.002Z</time></trkpt><trkpt lat="44.65566018480169" lon="8.106766970832382"><ele>552.5</ele><time>2026-04-11T14:31:45.002Z</time></trkpt><trkpt lat="44.655731130007986" lon="8.106701440024414"><ele>553.6666666666667</ele><time>2026-04-11T14:31:46.002Z</time></trkpt><trkpt lat="44.6557924834561" lon="8.106659021276204"><ele>554.8333333333334</ele><time>2026-04-11T14:31:47.002Z</time></trkpt><trkpt lat="44.655856245090916" lon="8.106653683386641"><ele>556.0</ele><time>2026-04-11T14:31:48.002Z</time></trkpt><trkpt lat="44.655916996306225" lon="8.106691626533415"><ele>556.0</ele><time>2026-04-11T14:31:49Z</time></trkpt><trkpt lat="44.65595201146326" lon="8.106771377042197"><ele>556.0</ele><time>2026-04-11T14:31:50Z</time></trkpt><trkpt lat="44.655956048207905" lon="8.106867702601763"><ele>556.0</ele><time>2026-04-11T14:31:51Z</time></trkpt><trkpt lat="44.655903258945955" lon="8.10700922200966"><ele>556.0</ele><time>2026-04-11T14:31:53Z</time></trkpt><trkpt lat="44.655839536966866" lon="8.10714546937885"><ele>556.0</ele><time>2026-04-11T14:31:55Z</time></trkpt><trkpt lat="44.65579330425682" lon="8.10723595268112"><ele>556.0</ele><time>2026-04-11T14:31:56Z</time></trkpt><trkpt lat="44.6557338822762" lon="8.107337373953449"><ele>557.0</ele><time>2026-04-11T14:31:57Z</time></trkpt><trkpt lat="44.65566846838792" lon="8.107437288557893"><ele>558.0</ele><time>2026-04-11T14:31:58Z</time></trkpt><trkpt lat="44.655596564621064" lon="8.107529312366223"><ele>559.0</ele><time>2026-04-11T14:31:59Z</time></trkpt><trkpt lat="44.65552352621095" lon="8.107602915629782"><ele>560.0</ele><time>2026-04-11T14:32:00Z</time></trkpt><trkpt lat="44.65545973929088" lon="8.10764607213363"><ele>561.0</ele><time>2026-04-11T14:32:01Z</time></trkpt><trkpt lat="44.65539452324787" lon="8.107790974579"><ele>561.0</ele><time>2026-04-11T14:32:03Z</time></trkpt><trkpt lat="44.65532575608792" lon="8.107944790630519"><ele>561.0</ele><time>2026-04-11T14:32:05Z</time></trkpt><trkpt lat="44.65528089181775" lon="8.10801214685415"><ele>561.0</ele><time>2026-04-11T14:32:06Z</time></trkpt><trkpt lat="44.655242121323845" lon="8.108086920859993"><ele>561.0</ele><time>2026-04-11T14:32:07Z</time></trkpt><trkpt lat="44.65520776165527" lon="8.108179158130183"><ele>561.0</ele><time>2026-04-11T14:32:08Z</time></trkpt><trkpt lat="44.65514478530467" lon="8.108309122078436"><ele>561.0</ele><time>2026-04-11T14:32:10Z</time></trkpt><trkpt lat="44.65509658713562" lon="8.10843378568224"><ele>563.75</ele><time>2026-04-11T14:32:12Z</time></trkpt><trkpt lat="44.65504851753497" lon="8.108586156369086"><ele>566.5</ele><time>2026-04-11T14:32:14Z</time></trkpt><trkpt lat="44.655023270814596" lon="8.108758895440264"><ele>569.25</ele><time>2026-04-11T14:32:16Z</time></trkpt><trkpt lat="44.6549814162844" lon="8.108937554047147"><ele>572.0</ele><time>2026-04-11T14:32:18Z</time></trkpt><trkpt lat="44.65494719923752" lon="8.10903499980004"><ele>574.3333333333333</ele><time>2026-04-11T14:32:19Z</time></trkpt><trkpt lat="44.65491118801621" lon="8.109151986758667"><ele>576.6666666666666</ele><time>2026-04-11T14:32:20Z</time></trkpt><trkpt lat="44.65487916534474" lon="8.109262541881808"><ele>579.0</ele><time>2026-04-11T14:32:21Z</time></trkpt><trkpt lat="44.65484014206088" lon="8.109366029969829"><ele>581.3333333333334</ele><time>2026-04-11T14:32:22Z</time></trkpt><trkpt lat="44.65479487269863" lon="8.109463801548419"><ele>583.6666666666667</ele><time>2026-04-11T14:32:23Z</time></trkpt><trkpt lat="44.65475098253339" lon="8.109566507046718"><ele>586.0</ele><time>2026-04-11T14:32:24Z</time></trkpt><trkpt lat="44.65471009567729" lon="8.109678278463333"><ele>586.0</ele><time>2026-04-11T14:32:25Z</time></trkpt><trkpt lat="44.654670664585495" lon="8.109791571067253"><ele>586.0</ele><time>2026-04-11T14:32:26Z</time></trkpt><trkpt lat="44.65463639562331" lon="8.109895689102963"><ele>586.0</ele><time>2026-04-11T14:32:27Z</time></trkpt><trkpt lat="44.654589652333094" lon="8.110003952958898"><ele>586.0</ele><time>2026-04-11T14:32:28Z</time></trkpt><trkpt lat="44.6545519584042" lon="8.110099060335592"><ele>586.0</ele><time>2026-04-11T14:32:29Z</time></trkpt><trkpt lat="44.654534954942996" lon="8.110190541469105"><ele>586.0</ele><time>2026-04-11T14:32:30Z</time></trkpt><trkpt lat="44.654513383235944" lon="8.110291327411925"><ele>588.0</ele><time>2026-04-11T14:32:31Z</time></trkpt><trkpt lat="44.65450635391645" lon="8.11039307291774"><ele>590.0</ele><time>2026-04-11T14:32:32Z</time></trkpt><trkpt lat="44.65451258522508" lon="8.110499474510592"><ele>592.0</ele><time>2026-04-11T14:32:33Z</time></trkpt><trkpt lat="44.65451908958089" lon="8.11062304860691"><ele>594.0</ele><time>2026-04-11T14:32:34Z</time></trkpt><trkpt lat="44.65453063388694" lon="8.110765071857632"><ele>596.0</ele><time>2026-04-11T14:32:35Z</time></trkpt><trkpt lat="44.65453754793905" lon="8.110879029537784"><ele>598.0</ele><time>2026-04-11T14:32:36.001Z</time></trkpt><trkpt lat="44.65455005263036" lon="8.110977757112703"><ele>598.8333333333334</ele><time>2026-04-11T14:32:37.001Z</time></trkpt><trkpt lat="44.654550127075275" lon="8.1111039219577"><ele>599.6666666666667</ele><time>2026-04-11T14:32:38.001Z</time></trkpt><trkpt lat="44.654544788672226" lon="8.111197652838129"><ele>600.5</ele><time>2026-04-11T14:32:39.001Z</time></trkpt><trkpt lat="44.654534897747325" lon="8.1112967029749"><ele>601.3333333333334</ele><time>2026-04-11T14:32:40.001Z</time></trkpt><trkpt lat="44.65451927001034" lon="8.11140953083529"><ele>602.1666666666666</ele><time>2026-04-11T14:32:41.001Z</time></trkpt><trkpt lat="44.65449132619556" lon="8.111545273412606"><ele>603.0</ele><time>2026-04-11T14:32:42.001Z</time></trkpt><trkpt lat="44.65446530685587" lon="8.111669528578739"><ele>602.4</ele><time>2026-04-11T14:32:43.001Z</time></trkpt><trkpt lat="44.65442976306226" lon="8.111794300166675"><ele>601.8</ele><time>2026-04-11T14:32:44.001Z</time></trkpt><trkpt lat="44.65439362497532" lon="8.11192036484043"><ele>601.2</ele><time>2026-04-11T14:32:45.001Z</time></trkpt><trkpt lat="44.65436504365199" lon="8.112053924395067"><ele>600.6</ele><time>2026-04-11T14:32:46.001Z</time></trkpt><trkpt lat="44.65433808853223" lon="8.112184230891701"><ele>600.0</ele><time>2026-04-11T14:32:47.001Z</time></trkpt><trkpt lat="44.65430918457688" lon="8.112306975665057"><ele>601.0</ele><time>2026-04-11T14:32:48.001Z</time></trkpt><trkpt lat="44.65427385287105" lon="8.112413769182925"><ele>602.0</ele><time>2026-04-11T14:32:49.001Z</time></trkpt><trkpt lat="44.65423575625007" lon="8.11251155342474"><ele>603.0</ele><time>2026-04-11T14:32:50.001Z</time></trkpt><trkpt lat="44.65420807714217" lon="8.112606174051205"><ele>604.0</ele><time>2026-04-11T14:32:51.001Z</time></trkpt><trkpt lat="44.65417895816522" lon="8.11270031133707"><ele>605.0</ele><time>2026-04-11T14:32:52.001Z</time></trkpt><trkpt lat="44.654141218824" lon="8.112785739339085"><ele>606.0</ele><time>2026-04-11T14:32:53.001Z</time></trkpt><trkpt lat="44.65408877174249" lon="8.11287422808753"><ele>606.0</ele><time>2026-04-11T14:32:54.001Z</time></trkpt><trkpt lat="44.65402166794339" lon="8.112974725942438"><ele>606.0</ele><time>2026-04-11T14:32:55.001Z</time></trkpt><trkpt lat="44.65395723736801" lon="8.113078678880159"><ele>606.0</ele><time>2026-04-11T14:32:56.001Z</time></trkpt><trkpt lat="44.653890845568306" lon="8.113194607110655"><ele>606.0</ele><time>2026-04-11T14:32:57.001Z</time></trkpt><trkpt lat="44.65382801820247" lon="8.113301485548714"><ele>606.0</ele><time>2026-04-11T14:32:58.001Z</time></trkpt><trkpt lat="44.653761163916975" lon="8.113410941258874"><ele>605.4</ele><time>2026-04-11T14:32:59.001Z</time></trkpt><trkpt lat="44.65369279684838" lon="8.113517843207589"><ele>604.8</ele><time>2026-04-11T14:33:00.001Z</time></trkpt><trkpt lat="44.65362474791021" lon="8.113621263533483"><ele>604.1999999999999</ele><time>2026-04-11T14:33:01.001Z</time></trkpt><trkpt lat="44.65355946386947" lon="8.113715481520476"><ele>603.6</ele><time>2026-04-11T14:33:02.001Z</time></trkpt><trkpt lat="44.65349214905582" lon="8.113805444950929"><ele>603.0</ele><time>2026-04-11T14:33:03.001Z</time></trkpt><trkpt lat="44.65342720939297" lon="8.113897023034406"><ele>603.0</ele><time>2026-04-11T14:33:04.001Z</time></trkpt><trkpt lat="44.65337386139861" lon="8.113992149740833"><ele>603.0</ele><time>2026-04-11T14:33:05.001Z</time></trkpt><trkpt lat="44.653322609677076" lon="8.114085547960496"><ele>603.0</ele><time>2026-04-11T14:33:06.001Z</time></trkpt><trkpt lat="44.65327443433595" lon="8.114169301468051"><ele>603.0</ele><time>2026-04-11T14:33:07.001Z</time></trkpt><trkpt lat="44.65323594260661" lon="8.11424696791229"><ele>603.0</ele><time>2026-04-11T14:33:08.001Z</time></trkpt><trkpt lat="44.65319256708985" lon="8.114335344378016"><ele>603.0</ele><time>2026-04-11T14:33:10.001Z</time></trkpt><trkpt lat="44.65317782216956" lon="8.114485351736988"><ele>604.8</ele><time>2026-04-11T14:33:12.001Z</time></trkpt><trkpt lat="44.653172501610435" lon="8.114622740628267"><ele>606.5999999999999</ele><time>2026-04-11T14:33:13.001Z</time></trkpt><trkpt lat="44.653151353800055" lon="8.114755701621052"><ele>608.4000000000001</ele><time>2026-04-11T14:33:14.001Z</time></trkpt><trkpt lat="44.65311947409793" lon="8.11489161214069"><ele>610.2</ele><time>2026-04-11T14:33:15.001Z</time></trkpt><trkpt lat="44.65309257596656" lon="8.11500125766304"><ele>612.0</ele><time>2026-04-11T14:33:16.001Z</time></trkpt><trkpt lat="44.653068864185265" lon="8.115107639836447"><ele>612.6666666666666</ele><time>2026-04-11T14:33:17.001Z</time></trkpt><trkpt lat="44.65304141823067" lon="8.11523005725795"><ele>613.3333333333334</ele><time>2026-04-11T14:33:19.001Z</time></trkpt><trkpt lat="44.65299601619799" lon="8.115311183442138"><ele>614.0</ele><time>2026-04-11T14:33:22.001Z</time></trkpt><trkpt lat="44.65299105659017" lon="8.115400516026254"><ele>614.6666666666667</ele><time>2026-04-11T14:33:23.001Z</time></trkpt><trkpt lat="44.65301835096145" lon="8.115508161557297"><ele>615.3333333333334</ele><time>2026-04-11T14:33:24.001Z</time></trkpt><trkpt lat="44.65304767852777" lon="8.115619328037813"><ele>616.0</ele><time>2026-04-11T14:33:25.001Z</time></trkpt><trkpt lat="44.65307042116658" lon="8.115733667667289"><ele>616.1666666666667</ele><time>2026-04-11T14:33:26.001Z</time></trkpt><trkpt lat="44.653086701850036" lon="8.11585673813651"><ele>616.3333333333334</ele><time>2026-04-11T14:33:27.001Z</time></trkpt><trkpt lat="44.65310721220056" lon="8.115972094808901"><ele>616.5</ele><time>2026-04-11T14:33:28.001Z</time></trkpt><trkpt lat="44.6531290423011" lon="8.116065645420973"><ele>616.6666666666666</ele><time>2026-04-11T14:33:29.001Z</time></trkpt><trkpt lat="44.65315458470512" lon="8.116210966193949"><ele>616.8333333333333</ele><time>2026-04-11T14:33:31.001Z</time></trkpt><trkpt lat="44.653109772316014" lon="8.116295522776893"><ele>617.0</ele><time>2026-04-11T14:33:34.001Z</time></trkpt><trkpt lat="44.65306464033072" lon="8.116382954635842"><ele>617.0</ele><time>2026-04-11T14:33:36.001Z</time></trkpt><trkpt lat="44.65304142347678" lon="8.116493411329843"><ele>617.0</ele><time>2026-04-11T14:33:38.001Z</time></trkpt><trkpt lat="44.652957354672616" lon="8.116587222440748"><ele>617.0</ele><time>2026-04-11T14:33:40.001Z</time></trkpt><trkpt lat="44.65289509252892" lon="8.116623025093013"><ele>617.0</ele><time>2026-04-11T14:33:41.001Z</time></trkpt><trkpt lat="44.65283128471326" lon="8.116628560899686"><ele>617.0</ele><time>2026-04-11T14:33:45.001Z</time></trkpt><trkpt lat="44.65281559111801" lon="8.116735534792692"><ele>617.0</ele><time>2026-04-11T14:33:51.002Z</time></trkpt><trkpt lat="44.65276883676715" lon="8.116836681540727"><ele>620.6</ele><time>2026-04-11T14:33:54.002Z</time></trkpt><trkpt lat="44.65269118362523" lon="8.116901652625009"><ele>624.2</ele><time>2026-04-11T14:33:56Z</time></trkpt><trkpt lat="44.65258680596466" lon="8.116941801534468"><ele>627.8</ele><time>2026-04-11T14:34:00Z</time></trkpt><trkpt lat="44.652496974665716" lon="8.117037591190302"><ele>631.4</ele><time>2026-04-11T14:34:02Z</time></trkpt><trkpt lat="44.65240991217378" lon="8.117094295758912"><ele>635.0</ele><time>2026-04-11T14:34:04Z</time></trkpt><trkpt lat="44.65235472014063" lon="8.117225156856456"><ele>635.0</ele><time>2026-04-11T14:34:06Z</time></trkpt><trkpt lat="44.6523156970055" lon="8.11730427104288"><ele>635.0</ele><time>2026-04-11T14:34:07Z</time></trkpt><trkpt lat="44.652232860889804" lon="8.117420733572486"><ele>635.0</ele><time>2026-04-11T14:34:09Z</time></trkpt><trkpt lat="44.65217366936087" lon="8.117470070612303"><ele>635.0</ele><time>2026-04-11T14:34:10Z</time></trkpt><trkpt lat="44.65215217941296" lon="8.117631144817944"><ele>635.0</ele><time>2026-04-11T14:34:12Z</time></trkpt><trkpt lat="44.65216314664454" lon="8.117722069496276"><ele>635.0</ele><time>2026-04-11T14:34:13Z</time></trkpt><trkpt lat="44.652168426694324" lon="8.117841753750087"><ele>635.8</ele><time>2026-04-11T14:34:15Z</time></trkpt><trkpt lat="44.652126076320286" lon="8.11795199764872"><ele>636.6</ele><time>2026-04-11T14:34:17Z</time></trkpt><trkpt lat="44.65216409366774" lon="8.118040742249358"><ele>637.4</ele><time>2026-04-11T14:34:19Z</time></trkpt><trkpt lat="44.65225226237877" lon="8.11810199725275"><ele>638.2</ele><time>2026-04-11T14:34:21Z</time></trkpt><trkpt lat="44.652280769294" lon="8.118267646870326"><ele>639.0</ele><time>2026-04-11T14:34:24Z</time></trkpt><trkpt lat="44.652285489487014" lon="8.118376108426816"><ele>639.8</ele><time>2026-04-11T14:34:25Z</time></trkpt><trkpt lat="44.6522900301966" lon="8.118476189147438"><ele>640.5999999999999</ele><time>2026-04-11T14:34:26Z</time></trkpt><trkpt lat="44.65230352496507" lon="8.118577561722072"><ele>641.4</ele><time>2026-04-11T14:34:27Z</time></trkpt><trkpt lat="44.65233151602335" lon="8.118765131198417"><ele>642.1999999999999</ele><time>2026-04-11T14:34:29Z</time></trkpt><trkpt lat="44.652360807449845" lon="8.118916831062574"><ele>643.0</ele><time>2026-04-11T14:34:31Z</time></trkpt><trkpt lat="44.65236926422412" lon="8.119085984459865"><ele>643.8333333333334</ele><time>2026-04-11T14:34:33Z</time></trkpt><trkpt lat="44.65232902424916" lon="8.119179538534851"><ele>644.6666666666667</ele><time>2026-04-11T14:34:34Z</time></trkpt><trkpt lat="44.65227486533623" lon="8.119255726230126"><ele>645.5</ele><time>2026-04-11T14:34:35Z</time></trkpt><trkpt lat="44.65221609453261" lon="8.119311440056723"><ele>646.3333333333334</ele><time>2026-04-11T14:34:36Z</time></trkpt><trkpt lat="44.652147128380015" lon="8.119383811900835"><ele>647.1666666666666</ele><time>2026-04-11T14:34:38Z</time></trkpt><trkpt lat="44.65207122878313" lon="8.119232234375719"><ele>648.0</ele><time>2026-04-11T14:34:58.001Z</time></trkpt><trkpt lat="44.65203732293872" lon="8.119128072565573"><ele>647.0</ele><time>2026-04-11T14:34:59.001Z</time></trkpt><trkpt lat="44.651996323157825" lon="8.119009614058749"><ele>646.0</ele><time>2026-04-11T14:35:00.001Z</time></trkpt><trkpt lat="44.651958409273426" lon="8.11888030120876"><ele>645.0</ele><time>2026-04-11T14:35:01.001Z</time></trkpt><trkpt lat="44.65192204611473" lon="8.118756478381597"><ele>644.0</ele><time>2026-04-11T14:35:02.001Z</time></trkpt><trkpt lat="44.651893241878795" lon="8.1186242460856"><ele>643.0</ele><time>2026-04-11T14:35:03.001Z</time></trkpt><trkpt lat="44.65186214930205" lon="8.118500068406584"><ele>644.8333333333334</ele><time>2026-04-11T14:35:04.001Z</time></trkpt><trkpt lat="44.651822335322194" lon="8.118404933767891"><ele>646.6666666666667</ele><time>2026-04-11T14:35:05.001Z</time></trkpt><trkpt lat="44.65176663263232" lon="8.11831746445497"><ele>648.5</ele><time>2026-04-11T14:35:06.001Z</time></trkpt><trkpt lat="44.65169715396856" lon="8.118233409302755"><ele>650.3333333333334</ele><time>2026-04-11T14:35:07.001Z</time></trkpt><trkpt lat="44.651617007163665" lon="8.11813345235125"><ele>652.1666666666666</ele><time>2026-04-11T14:35:09.001Z</time></trkpt><trkpt lat="44.6515535972965" lon="8.118083453493368"><ele>654.0</ele><time>2026-04-11T14:35:11.001Z</time></trkpt><trkpt lat="44.651475968753594" lon="8.118017409576993"><ele>654.0</ele><time>2026-04-11T14:35:13.001Z</time></trkpt><trkpt lat="44.65140269042641" lon="8.117978281056368"><ele>654.0</ele><time>2026-04-11T14:35:15.001Z</time></trkpt><trkpt lat="44.65133240363384" lon="8.11795698390026"><ele>654.0</ele><time>2026-04-11T14:35:17.001Z</time></trkpt><trkpt lat="44.651258841776745" lon="8.117952999867084"><ele>654.0</ele><time>2026-04-11T14:35:19.001Z</time></trkpt><trkpt lat="44.651183556790414" lon="8.118023730527824"><ele>654.0</ele><time>2026-04-11T14:35:22.001Z</time></trkpt><trkpt lat="44.651121336655834" lon="8.118092113357154"><ele>654.0</ele><time>2026-04-11T14:35:24.001Z</time></trkpt><trkpt lat="44.6510511736366" lon="8.118163477578198"><ele>654.6</ele><time>2026-04-11T14:35:26.001Z</time></trkpt><trkpt lat="44.65097640387486" lon="8.118242253812733"><ele>655.2</ele><time>2026-04-11T14:35:28.001Z</time></trkpt><trkpt lat="44.650890955082836" lon="8.11832986901282"><ele>655.8000000000001</ele><time>2026-04-11T14:35:30.001Z</time></trkpt><trkpt lat="44.650806092718405" lon="8.118423416990996"><ele>656.4000000000001</ele><time>2026-04-11T14:35:32.001Z</time></trkpt><trkpt lat="44.6507064043011" lon="8.118525524523854"><ele>657.0</ele><time>2026-04-11T14:35:34.001Z</time></trkpt><trkpt lat="44.650605327369185" lon="8.11863580410114"><ele>657.0</ele><time>2026-04-11T14:35:36.001Z</time></trkpt><trkpt lat="44.65055135286158" lon="8.118694185843756"><ele>657.0</ele><time>2026-04-11T14:35:37.001Z</time></trkpt><trkpt lat="44.650449285276366" lon="8.118802197228874"><ele>657.0</ele><time>2026-04-11T14:35:39.001Z</time></trkpt><trkpt lat="44.65036812826768" lon="8.118891807929373"><ele>657.0</ele><time>2026-04-11T14:35:41.001Z</time></trkpt><trkpt lat="44.65028761783915" lon="8.118912720415107"><ele>657.0</ele><time>2026-04-11T14:35:43.001Z</time></trkpt><trkpt lat="44.650220508410314" lon="8.118870336233952"><ele>656.3333333333334</ele><time>2026-04-11T14:35:44.001Z</time></trkpt><trkpt lat="44.65016973369455" lon="8.118799881072647"><ele>655.6666666666666</ele><time>2026-04-11T14:35:45.001Z</time></trkpt><trkpt lat="44.65008314061775" lon="8.118730812465245"><ele>655.0</ele><time>2026-04-11T14:35:47.001Z</time></trkpt><trkpt lat="44.650023086407984" lon="8.118680778377367"><ele>654.3333333333333</ele><time>2026-04-11T14:35:50.001Z</time></trkpt><trkpt lat="44.64995805239947" lon="8.118731512799528"><ele>653.6666666666666</ele><time>2026-04-11T14:35:56.002Z</time></trkpt><trkpt lat="44.64993081315896" lon="8.118832079990002"><ele>653.0</ele><time>2026-04-11T14:35:57.002Z</time></trkpt><trkpt lat="44.649912376855916" lon="8.11894393845554"><ele>653.0</ele><time>2026-04-11T14:35:58.002Z</time></trkpt><trkpt lat="44.64988375261586" lon="8.119044399045878"><ele>653.0</ele><time>2026-04-11T14:35:59.002Z</time></trkpt><trkpt lat="44.64985007525379" lon="8.119160932820176"><ele>653.0</ele><time>2026-04-11T14:36:00.002Z</time></trkpt><trkpt lat="44.6498191980747" lon="8.119303162053688"><ele>653.0</ele><time>2026-04-11T14:36:01Z</time></trkpt><trkpt lat="44.64977545206156" lon="8.119445528518204"><ele>653.0</ele><time>2026-04-11T14:36:02Z</time></trkpt><trkpt lat="44.649729016888905" lon="8.119586903682631"><ele>653.75</ele><time>2026-04-11T14:36:03Z</time></trkpt><trkpt lat="44.64966749150279" lon="8.119733956631569"><ele>654.5</ele><time>2026-04-11T14:36:04Z</time></trkpt><trkpt lat="44.64959504349882" lon="8.119881800369331"><ele>655.25</ele><time>2026-04-11T14:36:05Z</time></trkpt><trkpt lat="44.64949971037177" lon="8.120065189485333"><ele>656.0</ele><time>2026-04-11T14:36:06Z</time></trkpt><trkpt lat="44.64938455245346" lon="8.120263794467942"><ele>656.0</ele><time>2026-04-11T14:36:07Z</time></trkpt><trkpt lat="44.64926767969118" lon="8.120453168642713"><ele>656.0</ele><time>2026-04-11T14:36:08Z</time></trkpt><trkpt lat="44.64915456404707" lon="8.12065978754072"><ele>656.0</ele><time>2026-04-11T14:36:09Z</time></trkpt><trkpt lat="44.64904435037756" lon="8.12085621160405"><ele>658.0</ele><time>2026-04-11T14:36:10Z</time></trkpt><trkpt lat="44.6489502574816" lon="8.121028033982245"><ele>660.0</ele><time>2026-04-11T14:36:11Z</time></trkpt><trkpt lat="44.648864167239644" lon="8.121188437662877"><ele>662.0</ele><time>2026-04-11T14:36:12Z</time></trkpt><trkpt lat="44.64879383901775" lon="8.121320193257242"><ele>664.0</ele><time>2026-04-11T14:36:13Z</time></trkpt><trkpt lat="44.648730100923984" lon="8.121429278815446"><ele>664.0</ele><time>2026-04-11T14:36:14Z</time></trkpt><trkpt lat="44.648669506475414" lon="8.121517015562786"><ele>664.0</ele><time>2026-04-11T14:36:15Z</time></trkpt><trkpt lat="44.64860955498552" lon="8.121593454316171"><ele>664.0</ele><time>2026-04-11T14:36:16Z</time></trkpt><trkpt lat="44.648554644867296" lon="8.12167148837857"><ele>664.0</ele><time>2026-04-11T14:36:17Z</time></trkpt><trkpt lat="44.64850207246743" lon="8.121742656567301"><ele>664.0</ele><time>2026-04-11T14:36:18Z</time></trkpt><trkpt lat="44.64845108943212" lon="8.121817556726425"><ele>664.0</ele><time>2026-04-11T14:36:19Z</time></trkpt><trkpt lat="44.648400477914144" lon="8.121894290115122"><ele>664.5</ele><time>2026-04-11T14:36:20Z</time></trkpt><trkpt lat="44.648347374876536" lon="8.121990733063548"><ele>665.0</ele><time>2026-04-11T14:36:21Z</time></trkpt><trkpt lat="44.64828396087019" lon="8.122101013842483"><ele>665.5</ele><time>2026-04-11T14:36:22Z</time></trkpt><trkpt lat="44.64822607156093" lon="8.12220158726903"><ele>666.0</ele><time>2026-04-11T14:36:23Z</time></trkpt><trkpt lat="44.64817249684168" lon="8.122275964090438"><ele>666.5</ele><time>2026-04-11T14:36:24Z</time></trkpt><trkpt lat="44.64811712813604" lon="8.122329883932688"><ele>667.0</ele><time>2026-04-11T14:36:25Z</time></trkpt><trkpt lat="44.6480567034558" lon="8.122376215542593"><ele>668.1428571428572</ele><time>2026-04-11T14:36:26Z</time></trkpt><trkpt lat="44.64799248460807" lon="8.122434221933629"><ele>669.2857142857143</ele><time>2026-04-11T14:36:27Z</time></trkpt><trkpt lat="44.64792675360307" lon="8.122504250877132"><ele>670.4285714285714</ele><time>2026-04-11T14:36:28Z</time></trkpt><trkpt lat="44.647866695115816" lon="8.122564301626005"><ele>671.5714285714287</ele><time>2026-04-11T14:36:29Z</time></trkpt><trkpt lat="44.647813611867626" lon="8.122614289917918"><ele>672.7142857142858</ele><time>2026-04-11T14:36:30Z</time></trkpt><trkpt lat="44.64775793841372" lon="8.12266352823094"><ele>673.8571428571429</ele><time>2026-04-11T14:36:31Z</time></trkpt><trkpt lat="44.647693663377844" lon="8.12270329200058"><ele>675.0</ele><time>2026-04-11T14:36:32Z</time></trkpt><trkpt lat="44.64761795865585" lon="8.12272237358696"><ele>675.0</ele><time>2026-04-11T14:36:33Z</time></trkpt><trkpt lat="44.64753734438269" lon="8.122739503717526"><ele>675.0</ele><time>2026-04-11T14:36:34Z</time></trkpt><trkpt lat="44.64745169048373" lon="8.122758928340367"><ele>675.0</ele><time>2026-04-11T14:36:35Z</time></trkpt><trkpt lat="44.64737185652643" lon="8.122779151831073"><ele>675.0</ele><time>2026-04-11T14:36:36Z</time></trkpt><trkpt lat="44.64728929256837" lon="8.122796099553202"><ele>675.0</ele><time>2026-04-11T14:36:37Z</time></trkpt><trkpt lat="44.64720969631086" lon="8.122803531067184"><ele>675.0</ele><time>2026-04-11T14:36:38Z</time></trkpt><trkpt lat="44.64713529632934" lon="8.122803186649188"><ele>675.0</ele><time>2026-04-11T14:36:39Z</time></trkpt><trkpt lat="44.64705767869752" lon="8.122811126722437"><ele>675.0</ele><time>2026-04-11T14:36:40Z</time></trkpt><trkpt lat="44.64699011851148" lon="8.12281717153777"><ele>675.0</ele><time>2026-04-11T14:36:41.001Z</time></trkpt><trkpt lat="44.64692556152412" lon="8.122825146843939"><ele>675.0</ele><time>2026-04-11T14:36:42.001Z</time></trkpt><trkpt lat="44.64685587778059" lon="8.122838019147101"><ele>675.0</ele><time>2026-04-11T14:36:43.001Z</time></trkpt><trkpt lat="44.64675159915246" lon="8.122918796038705"><ele>675.0</ele><time>2026-04-11T14:36:45.001Z</time></trkpt><trkpt lat="44.64666357308669" lon="8.123022004714318"><ele>675.3333333333334</ele><time>2026-04-11T14:36:47.001Z</time></trkpt><trkpt lat="44.64660945507709" lon="8.123076032231289"><ele>675.6666666666666</ele><time>2026-04-11T14:36:48.001Z</time></trkpt><trkpt lat="44.64654032565723" lon="8.123131769492192"><ele>676.0</ele><time>2026-04-11T14:36:49.001Z</time></trkpt><trkpt lat="44.6464860331532" lon="8.123178475854738"><ele>676.3333333333333</ele><time>2026-04-11T14:36:50.001Z</time></trkpt><trkpt lat="44.646406831977934" lon="8.123249038126529"><ele>676.6666666666666</ele><time>2026-04-11T14:36:52.001Z</time></trkpt><trkpt lat="44.64634536024368" lon="8.123305449719151"><ele>677.0</ele><time>2026-04-11T14:36:55.001Z</time></trkpt><trkpt lat="44.64640328577167" lon="8.12322880698783"><ele>677.0</ele><time>2026-04-11T14:37:22.001Z</time></trkpt><trkpt lat="44.646346383120814" lon="8.123178667255518"><ele>677.0</ele><time>2026-04-11T14:37:25.001Z</time></trkpt><trkpt lat="44.646222990381574" lon="8.12324782771864"><ele>677.0</ele><time>2026-04-11T14:37:27.001Z</time></trkpt><trkpt lat="44.64614152375456" lon="8.123270519646962"><ele>677.0</ele><time>2026-04-11T14:37:28.001Z</time></trkpt><trkpt lat="44.64607343351418" lon="8.123269214511941"><ele>677.0</ele><time>2026-04-11T14:37:29.001Z</time></trkpt><trkpt lat="44.64599511039867" lon="8.12327186488945"><ele>677.0</ele><time>2026-04-11T14:37:31.001Z</time></trkpt><trkpt lat="44.645884589391535" lon="8.12321451678289"><ele>679.6</ele><time>2026-04-11T14:37:40.001Z</time></trkpt><trkpt lat="44.64582624462513" lon="8.123180583780433"><ele>682.2</ele><time>2026-04-11T14:37:41.001Z</time></trkpt><trkpt lat="44.64572966006033" lon="8.123080865402917"><ele>684.8</ele><time>2026-04-11T14:37:43.001Z</time></trkpt><trkpt lat="44.64565831259195" lon="8.12302223458575"><ele>687.4</ele><time>2026-04-11T14:37:44.001Z</time></trkpt><trkpt lat="44.64555572300172" lon="8.122969116159545"><ele>690.0</ele><time>2026-04-11T14:37:45.001Z</time></trkpt><trkpt lat="44.64546498367893" lon="8.122925144613767"><ele>690.0</ele><time>2026-04-11T14:37:46.001Z</time></trkpt><trkpt lat="44.6454001200677" lon="8.122890247283646"><ele>690.0</ele><time>2026-04-11T14:37:47.001Z</time></trkpt><trkpt lat="44.64532814396144" lon="8.122809272990475"><ele>690.0</ele><time>2026-04-11T14:37:49.001Z</time></trkpt><trkpt lat="44.64535813730009" lon="8.122723099503128"><ele>690.0</ele><time>2026-04-11T14:37:52.001Z</time></trkpt><trkpt lat="44.64532420793785" lon="8.122816922962262"><ele>690.0</ele><time>2026-04-11T14:37:58.001Z</time></trkpt><trkpt lat="44.6454254192383" lon="8.122874265048889"><ele>690.0</ele><time>2026-04-11T14:38:00.002Z</time></trkpt><trkpt lat="44.645509083953314" lon="8.122936304129865"><ele>690.0</ele><time>2026-04-11T14:38:02.002Z</time></trkpt><trkpt lat="44.6456176591703" lon="8.122999071941848"><ele>690.0</ele><time>2026-04-11T14:38:04.002Z</time></trkpt><trkpt lat="44.64572482355382" lon="8.123057038464296"><ele>690.0</ele><time>2026-04-11T14:38:06.002Z</time></trkpt><trkpt lat="44.64581163734522" lon="8.123133528490557"><ele>690.0</ele><time>2026-04-11T14:38:08Z</time></trkpt><trkpt lat="44.64588879437174" lon="8.123206577074157"><ele>690.0</ele><time>2026-04-11T14:38:10Z</time></trkpt><trkpt lat="44.64596416633422" lon="8.123237889094478"><ele>689.5</ele><time>2026-04-11T14:38:13Z</time></trkpt><trkpt lat="44.64590554535969" lon="8.123325678801757"><ele>689.0</ele><time>2026-04-11T14:38:18Z</time></trkpt><trkpt lat="44.645814297048425" lon="8.123335011424393"><ele>688.5</ele><time>2026-04-11T14:38:20Z</time></trkpt><trkpt lat="44.64574749614374" lon="8.123338241436661"><ele>688.0</ele><time>2026-04-11T14:38:21Z</time></trkpt><trkpt lat="44.64567956314779" lon="8.123324606672426"><ele>687.5</ele><time>2026-04-11T14:38:22Z</time></trkpt><trkpt lat="44.6455724882839" lon="8.123347058162215"><ele>687.0</ele><time>2026-04-11T14:38:24Z</time></trkpt><trkpt lat="44.64545830982932" lon="8.123389444839985"><ele>687.0</ele><time>2026-04-11T14:38:26Z</time></trkpt><trkpt lat="44.64536532658912" lon="8.12345183156405"><ele>687.0</ele><time>2026-04-11T14:38:28Z</time></trkpt><trkpt lat="44.64526929245888" lon="8.123562467591059"><ele>687.0</ele><time>2026-04-11T14:38:30Z</time></trkpt><trkpt lat="44.6452214045942" lon="8.123637203087016"><ele>687.0</ele><time>2026-04-11T14:38:32Z</time></trkpt><trkpt lat="44.64516374037601" lon="8.12372954352723"><ele>687.0</ele><time>2026-04-11T14:38:35Z</time></trkpt><trkpt lat="44.645078068008665" lon="8.123849477716346"><ele>687.2</ele><time>2026-04-11T14:38:37Z</time></trkpt><trkpt lat="44.64502143493401" lon="8.123985111266688"><ele>687.4000000000001</ele><time>2026-04-11T14:38:39Z</time></trkpt><trkpt lat="44.64494858708262" lon="8.12412781917826"><ele>687.5999999999999</ele><time>2026-04-11T14:38:41Z</time></trkpt><trkpt lat="44.644919981017026" lon="8.124211137458257"><ele>687.8</ele><time>2026-04-11T14:38:42Z</time></trkpt><trkpt lat="44.64490020774577" lon="8.12432224697701"><ele>688.0</ele><time>2026-04-11T14:38:44Z</time></trkpt><trkpt lat="44.64487270264379" lon="8.124453836169119"><ele>688.0</ele><time>2026-04-11T14:38:46.001Z</time></trkpt><trkpt lat="44.64484719645238" lon="8.124593123018794"><ele>688.0</ele><time>2026-04-11T14:38:48.001Z</time></trkpt><trkpt lat="44.64484277265287" lon="8.124721211263541"><ele>688.0</ele><time>2026-04-11T14:38:50.001Z</time></trkpt><trkpt lat="44.64484143175728" lon="8.124888510181627"><ele>688.0</ele><time>2026-04-11T14:38:52.001Z</time></trkpt><trkpt lat="44.64484451254837" lon="8.124984347344435"><ele>688.0</ele><time>2026-04-11T14:38:53.001Z</time></trkpt><trkpt lat="44.64486275918979" lon="8.125081545740866"><ele>686.8333333333334</ele><time>2026-04-11T14:38:54.001Z</time></trkpt><trkpt lat="44.64485204212961" lon="8.125257903200287"><ele>685.6666666666667</ele><time>2026-04-11T14:38:56.001Z</time></trkpt><trkpt lat="44.64482530077816" lon="8.125413630589414"><ele>684.5</ele><time>2026-04-11T14:38:58.001Z</time></trkpt><trkpt lat="44.64481023813617" lon="8.125509626819536"><ele>683.3333333333334</ele><time>2026-04-11T14:38:59.001Z</time></trkpt><trkpt lat="44.64480605489223" lon="8.125611816648846"><ele>682.1666666666666</ele><time>2026-04-11T14:39:00.001Z</time></trkpt><trkpt lat="44.64479157231865" lon="8.125698215289782"><ele>681.0</ele><time>2026-04-11T14:39:01.001Z</time></trkpt><trkpt lat="44.6447650841151" lon="8.125780402421345"><ele>680.0</ele><time>2026-04-11T14:39:02.001Z</time></trkpt><trkpt lat="44.6447221107606" lon="8.125891804868766"><ele>679.0</ele><time>2026-04-11T14:39:04.001Z</time></trkpt><trkpt lat="44.64470563455567" lon="8.126032555946974"><ele>678.0</ele><time>2026-04-11T14:39:06.001Z</time></trkpt><trkpt lat="44.64471508868622" lon="8.126182319817085"><ele>677.0</ele><time>2026-04-11T14:39:08.001Z</time></trkpt><trkpt lat="44.64473811567507" lon="8.126324613169729"><ele>676.0</ele><time>2026-04-11T14:39:10.001Z</time></trkpt><trkpt lat="44.64476748766416" lon="8.126407646160335"><ele>676.0</ele><time>2026-04-11T14:39:12.001Z</time></trkpt><trkpt lat="44.64482304632924" lon="8.126521830409548"><ele>676.0</ele><time>2026-04-11T14:39:16.001Z</time></trkpt><trkpt lat="44.64482760959792" lon="8.12666552618829"><ele>676.0</ele><time>2026-04-11T14:39:18.001Z</time></trkpt><trkpt lat="44.64483824581137" lon="8.126816586900738"><ele>676.0</ele><time>2026-04-11T14:39:20.001Z</time></trkpt><trkpt lat="44.64486593026951" lon="8.126905630407583"><ele>676.0</ele><time>2026-04-11T14:39:21.001Z</time></trkpt><trkpt lat="44.644898721152025" lon="8.126983448353041"><ele>676.0</ele><time>2026-04-11T14:39:22.001Z</time></trkpt><trkpt lat="44.644931245586896" lon="8.127093091392117"><ele>676.4</ele><time>2026-04-11T14:39:24.001Z</time></trkpt><trkpt lat="44.64493484233128" lon="8.12721300615546"><ele>676.8</ele><time>2026-04-11T14:39:26.001Z</time></trkpt><trkpt lat="44.644942822274" lon="8.127359653817445"><ele>677.1999999999999</ele><time>2026-04-11T14:39:28.001Z</time></trkpt><trkpt lat="44.64494411907512" lon="8.127468387833783"><ele>677.5999999999999</ele><time>2026-04-11T14:39:30.001Z</time></trkpt><trkpt lat="44.644955975826065" lon="8.127590618489153"><ele>678.0</ele><time>2026-04-11T14:39:32.001Z</time></trkpt><trkpt lat="44.644992165687924" lon="8.127731154541678"><ele>679.2</ele><time>2026-04-11T14:39:34.001Z</time></trkpt><trkpt lat="44.64499451732174" lon="8.127834500834728"><ele>680.4</ele><time>2026-04-11T14:39:35.001Z</time></trkpt><trkpt lat="44.64498814097102" lon="8.127985622314677"><ele>681.6</ele><time>2026-04-11T14:39:37.001Z</time></trkpt><trkpt lat="44.64499624040244" lon="8.1281667313163"><ele>682.8000000000001</ele><time>2026-04-11T14:39:39.001Z</time></trkpt><trkpt lat="44.64501774416849" lon="8.128324297766788"><ele>684.0</ele><time>2026-04-11T14:39:41.001Z</time></trkpt><trkpt lat="44.64501917011981" lon="8.128480851481507"><ele>684.0</ele><time>2026-04-11T14:39:43.001Z</time></trkpt><trkpt lat="44.64502986155918" lon="8.128592302315717"><ele>684.0</ele><time>2026-04-11T14:39:45.001Z</time></trkpt><trkpt lat="44.64499746687031" lon="8.128755231462664"><ele>684.0</ele><time>2026-04-11T14:39:47.001Z</time></trkpt><trkpt lat="44.64499995855666" lon="8.128853679325587"><ele>684.0</ele><time>2026-04-11T14:39:48.001Z</time></trkpt><trkpt lat="44.64499431742749" lon="8.128952118844035"><ele>684.0</ele><time>2026-04-11T14:39:50.001Z</time></trkpt><trkpt lat="44.644995390521814" lon="8.129086939380995"><ele>684.0</ele><time>2026-04-11T14:39:53.001Z</time></trkpt><trkpt lat="44.645016724554175" lon="8.129247559794369"><ele>682.8333333333334</ele><time>2026-04-11T14:39:55.001Z</time></trkpt><trkpt lat="44.645044206689775" lon="8.129330962492231"><ele>681.6666666666666</ele><time>2026-04-11T14:39:56.001Z</time></trkpt><trkpt lat="44.645093399479336" lon="8.129447800189338"><ele>680.5</ele><time>2026-04-11T14:39:58.001Z</time></trkpt><trkpt lat="44.64512456779956" lon="8.129576317310576"><ele>679.3333333333333</ele><time>2026-04-11T14:40:00.001Z</time></trkpt><trkpt lat="44.64513773893328" lon="8.129670890893305"><ele>678.1666666666666</ele><time>2026-04-11T14:40:02.001Z</time></trkpt><trkpt lat="44.64514408801134" lon="8.129793520768375"><ele>677.0</ele><time>2026-04-11T14:40:05.001Z</time></trkpt><trkpt lat="44.645136092626025" lon="8.12988964702157"><ele>675.8</ele><time>2026-04-11T14:40:07.001Z</time></trkpt><trkpt lat="44.645129496207936" lon="8.13000312265037"><ele>674.6</ele><time>2026-04-11T14:40:09.001Z</time></trkpt><trkpt lat="44.64512464650687" lon="8.130161139314785"><ele>673.4</ele><time>2026-04-11T14:40:11.002Z</time></trkpt><trkpt lat="44.64511484252874" lon="8.130344993222412"><ele>672.1999999999999</ele><time>2026-04-11T14:40:13Z</time></trkpt><trkpt lat="44.645116124378525" lon="8.13044647963658"><ele>671.0</ele><time>2026-04-11T14:40:14Z</time></trkpt><trkpt lat="44.64511047914529" lon="8.130544325431103"><ele>671.0</ele><time>2026-04-11T14:40:15Z</time></trkpt><trkpt lat="44.645102597459285" lon="8.130650371631038"><ele>671.0</ele><time>2026-04-11T14:40:16Z</time></trkpt><trkpt lat="44.64508913683047" lon="8.130769298434014"><ele>671.0</ele><time>2026-04-11T14:40:17Z</time></trkpt><trkpt lat="44.645071498838114" lon="8.130907384860098"><ele>671.0</ele><time>2026-04-11T14:40:18Z</time></trkpt><trkpt lat="44.645055417497716" lon="8.131029358712478"><ele>671.0</ele><time>2026-04-11T14:40:19Z</time></trkpt><trkpt lat="44.645051681624864" lon="8.131144095119424"><ele>671.0</ele><time>2026-04-11T14:40:20Z</time></trkpt><trkpt lat="44.64506473200612" lon="8.13125926453206"><ele>671.0</ele><time>2026-04-11T14:40:21Z</time></trkpt><trkpt lat="44.64508282771861" lon="8.131379338618121"><ele>671.0</ele><time>2026-04-11T14:40:22Z</time></trkpt><trkpt lat="44.64510996292227" lon="8.131532500880418"><ele>671.0</ele><time>2026-04-11T14:40:23Z</time></trkpt><trkpt lat="44.64513903389282" lon="8.131695424316135"><ele>671.0</ele><time>2026-04-11T14:40:24Z</time></trkpt><trkpt lat="44.64516839367423" lon="8.131834853830979"><ele>671.0</ele><time>2026-04-11T14:40:25Z</time></trkpt><trkpt lat="44.64519530125988" lon="8.131960965811844"><ele>671.8333333333333</ele><time>2026-04-11T14:40:26Z</time></trkpt><trkpt lat="44.645218841414334" lon="8.13206078978453"><ele>672.6666666666666</ele><time>2026-04-11T14:40:27Z</time></trkpt><trkpt lat="44.645237634881944" lon="8.132157462971072"><ele>673.5</ele><time>2026-04-11T14:40:28Z</time></trkpt><trkpt lat="44.64526980344924" lon="8.132307189856217"><ele>674.3333333333334</ele><time>2026-04-11T14:40:30Z</time></trkpt><trkpt lat="44.64528807399793" lon="8.132443317166878"><ele>675.1666666666667</ele><time>2026-04-11T14:40:32Z</time></trkpt><trkpt lat="44.64528675869884" lon="8.132544305560113"><ele>676.0</ele><time>2026-04-11T14:40:33Z</time></trkpt><trkpt lat="44.6452711134856" lon="8.132657089044391"><ele>677.4285714285714</ele><time>2026-04-11T14:40:34Z</time></trkpt><trkpt lat="44.64526346291451" lon="8.132759522905712"><ele>678.8571428571429</ele><time>2026-04-11T14:40:35Z</time></trkpt><trkpt lat="44.64525589258594" lon="8.132849432546127"><ele>680.2857142857142</ele><time>2026-04-11T14:40:36Z</time></trkpt><trkpt lat="44.64524171271809" lon="8.132947264129326"><ele>681.7142857142858</ele><time>2026-04-11T14:40:37Z</time></trkpt><trkpt lat="44.645241191842416" lon="8.133057160154552"><ele>683.1428571428571</ele><time>2026-04-11T14:40:38Z</time></trkpt><trkpt lat="44.64523688258454" lon="8.133173847819894"><ele>684.5714285714286</ele><time>2026-04-11T14:40:39Z</time></trkpt><trkpt lat="44.64523298983801" lon="8.133277032543527"><ele>686.0</ele><time>2026-04-11T14:40:40Z</time></trkpt><trkpt lat="44.645231762189" lon="8.133372814680696"><ele>686.0</ele><time>2026-04-11T14:40:41Z</time></trkpt><trkpt lat="44.645217685677636" lon="8.133466373372817"><ele>686.0</ele><time>2026-04-11T14:40:42Z</time></trkpt><trkpt lat="44.645170040622595" lon="8.133656927231781"><ele>686.0</ele><time>2026-04-11T14:40:44Z</time></trkpt><trkpt lat="44.64513585341193" lon="8.13377129188012"><ele>686.0</ele><time>2026-04-11T14:40:45Z</time></trkpt><trkpt lat="44.645109472531864" lon="8.133894002185162"><ele>686.0</ele><time>2026-04-11T14:40:46Z</time></trkpt><trkpt lat="44.64505976447881" lon="8.134035139251294"><ele>683.5999999999999</ele><time>2026-04-11T14:40:47Z</time></trkpt><trkpt lat="44.64501236103085" lon="8.134162591772423"><ele>681.2</ele><time>2026-04-11T14:40:48Z</time></trkpt><trkpt lat="44.64496228420464" lon="8.134274231331586"><ele>678.8</ele><time>2026-04-11T14:40:49Z</time></trkpt><trkpt lat="44.64492407014436" lon="8.13437958395671"><ele>676.4000000000001</ele><time>2026-04-11T14:40:50Z</time></trkpt><trkpt lat="44.644881068677066" lon="8.13449389038805"><ele>674.0</ele><time>2026-04-11T14:40:51Z</time></trkpt><trkpt lat="44.644839905095495" lon="8.134590322511997"><ele>674.0000000000001</ele><time>2026-04-11T14:40:52Z</time></trkpt><trkpt lat="44.644814657082144" lon="8.134693495232304"><ele>674.0</ele><time>2026-04-11T14:40:53Z</time></trkpt><trkpt lat="44.64479128546328" lon="8.134799899522603"><ele>674.0</ele><time>2026-04-11T14:40:54.001Z</time></trkpt><trkpt lat="44.64477809400024" lon="8.134896029170967"><ele>674.0</ele><time>2026-04-11T14:40:55.001Z</time></trkpt><trkpt lat="44.64475273001941" lon="8.134994327538234"><ele>674.0</ele><time>2026-04-11T14:40:56.001Z</time></trkpt><trkpt lat="44.64472759942323" lon="8.135090182251766"><ele>674.0000000000001</ele><time>2026-04-11T14:40:57.001Z</time></trkpt><trkpt lat="44.644690698882656" lon="8.135176989765927"><ele>674.0</ele><time>2026-04-11T14:40:58.001Z</time></trkpt><trkpt lat="44.644655073516795" lon="8.135262780863332"><ele>673.1428571428572</ele><time>2026-04-11T14:40:59.001Z</time></trkpt><trkpt lat="44.64461436453967" lon="8.135351495480922"><ele>672.2857142857143</ele><time>2026-04-11T14:41:00.001Z</time></trkpt><trkpt lat="44.644573700123146" lon="8.135441144420755"><ele>671.4285714285714</ele><time>2026-04-11T14:41:01.001Z</time></trkpt><trkpt lat="44.644535128607394" lon="8.135533141752196"><ele>670.5714285714287</ele><time>2026-04-11T14:41:02.001Z</time></trkpt><trkpt lat="44.64449315090406" lon="8.13562877282524"><ele>669.7142857142858</ele><time>2026-04-11T14:41:03.001Z</time></trkpt><trkpt lat="44.64445575634626" lon="8.135705324771372"><ele>668.8571428571429</ele><time>2026-04-11T14:41:04.001Z</time></trkpt><trkpt lat="44.64441948202919" lon="8.135787806889123"><ele>668.0</ele><time>2026-04-11T14:41:05.001Z</time></trkpt><trkpt lat="44.6443859360714" lon="8.135875807278065"><ele>665.8</ele><time>2026-04-11T14:41:06.001Z</time></trkpt><trkpt lat="44.64432524118265" lon="8.136006453304084"><ele>663.5999999999999</ele><time>2026-04-11T14:41:08.001Z</time></trkpt><trkpt lat="44.64425475755593" lon="8.136119987860265"><ele>661.4000000000001</ele><time>2026-04-11T14:41:10.001Z</time></trkpt><trkpt lat="44.64419401227234" lon="8.13624902075606"><ele>659.2</ele><time>2026-04-11T14:41:12.001Z</time></trkpt><trkpt lat="44.64415796195574" lon="8.136332483606692"><ele>657.0</ele><time>2026-04-11T14:41:13.001Z</time></trkpt><trkpt lat="44.64411160027734" lon="8.13641987324173"><ele>657.6</ele><time>2026-04-11T14:41:14.001Z</time></trkpt><trkpt lat="44.64407575311255" lon="8.13655749297766"><ele>658.2</ele><time>2026-04-11T14:41:16.001Z</time></trkpt><trkpt lat="44.64401340975636" lon="8.13669985621184"><ele>658.8</ele><time>2026-04-11T14:41:18.001Z</time></trkpt><trkpt lat="44.64398669841895" lon="8.13683959657858"><ele>659.4</ele><time>2026-04-11T14:41:20.001Z</time></trkpt><trkpt lat="44.64393953593436" lon="8.136998031518583"><ele>660.0</ele><time>2026-04-11T14:41:22.001Z</time></trkpt><trkpt lat="44.64391833478065" lon="8.137093481899372"><ele>660.0</ele><time>2026-04-11T14:41:23.001Z</time></trkpt><trkpt lat="44.64389739410867" lon="8.13718431040284"><ele>660.0</ele><time>2026-04-11T14:41:24.001Z</time></trkpt><trkpt lat="44.64388230157873" lon="8.137271193026328"><ele>660.0</ele><time>2026-04-11T14:41:25.001Z</time></trkpt><trkpt lat="44.64385851886874" lon="8.137410832244921"><ele>660.0</ele><time>2026-04-11T14:41:27.001Z</time></trkpt><trkpt lat="44.643829102505975" lon="8.13752913047304"><ele>660.0</ele><time>2026-04-11T14:41:30.001Z</time></trkpt><trkpt lat="44.64381351512382" lon="8.137619023755867"><ele>660.0</ele><time>2026-04-11T14:41:32.001Z</time></trkpt><trkpt lat="44.64379388602903" lon="8.137747588393129"><ele>659.1666666666666</ele><time>2026-04-11T14:41:46.001Z</time></trkpt><trkpt lat="44.64375933339324" lon="8.137850215719352"><ele>658.3333333333334</ele><time>2026-04-11T14:41:48.001Z</time></trkpt><trkpt lat="44.64369599626927" lon="8.137940207313912"><ele>657.5</ele><time>2026-04-11T14:41:50.001Z</time></trkpt><trkpt lat="44.643642664050184" lon="8.137991605533124"><ele>656.6666666666667</ele><time>2026-04-11T14:41:52.001Z</time></trkpt><trkpt lat="44.643599078427975" lon="8.138068740224858"><ele>655.8333333333334</ele><time>2026-04-11T14:41:55.001Z</time></trkpt><trkpt lat="44.643510211760955" lon="8.138112053952348"><ele>655.0</ele><time>2026-04-11T14:41:58.001Z</time></trkpt><trkpt lat="44.64344072335767" lon="8.138129885947412"><ele>652.2</ele><time>2026-04-11T14:42:00.001Z</time></trkpt><trkpt lat="44.64334562439323" lon="8.13817046258677"><ele>649.4</ele><time>2026-04-11T14:42:03.001Z</time></trkpt><trkpt lat="44.64325207376658" lon="8.138207809504149"><ele>646.5999999999999</ele><time>2026-04-11T14:42:06.001Z</time></trkpt><trkpt lat="44.64316394407792" lon="8.138237569568552"><ele>643.8</ele><time>2026-04-11T14:42:09.001Z</time></trkpt><trkpt lat="44.643098301698075" lon="8.13828899247766"><ele>641.0</ele><time>2026-04-11T14:42:11.001Z</time></trkpt><trkpt lat="44.64302817879953" lon="8.138363380552933"><ele>641.1999999999999</ele><time>2026-04-11T14:42:13.001Z</time></trkpt><trkpt lat="44.642978682821386" lon="8.13843945637909"><ele>641.4</ele><time>2026-04-11T14:42:15.001Z</time></trkpt><trkpt lat="44.642908916946645" lon="8.1384607746247"><ele>641.6</ele><time>2026-04-11T14:42:30Z</time></trkpt><trkpt lat="44.64283385622534" lon="8.13854763593539"><ele>641.8</ele><time>2026-04-11T14:42:33Z</time></trkpt><trkpt lat="44.6427595531723" lon="8.138667978484854"><ele>642.0</ele><time>2026-04-11T14:42:35Z</time></trkpt><trkpt lat="44.64268256274244" lon="8.138806758008581"><ele>642.0</ele><time>2026-04-11T14:42:37Z</time></trkpt><trkpt lat="44.642620540386005" lon="8.138963563115306"><ele>642.0</ele><time>2026-04-11T14:42:39Z</time></trkpt><trkpt lat="44.64257884220822" lon="8.13903708086794"><ele>642.0</ele><time>2026-04-11T14:42:40Z</time></trkpt><trkpt lat="44.64254288227465" lon="8.139121133735213"><ele>642.0</ele><time>2026-04-11T14:42:41Z</time></trkpt><trkpt lat="44.642477218679595" lon="8.13928518355654"><ele>642.0</ele><time>2026-04-11T14:42:43Z</time></trkpt><trkpt lat="44.64244541942758" lon="8.139372321161748"><ele>642.1666666666666</ele><time>2026-04-11T14:42:44Z</time></trkpt><trkpt lat="44.642377498765754" lon="8.139528044517586"><ele>642.3333333333334</ele><time>2026-04-11T14:42:46Z</time></trkpt><trkpt lat="44.642329624774504" lon="8.139596019506726"><ele>642.5</ele><time>2026-04-11T14:42:47Z</time></trkpt><trkpt lat="44.64227316942511" lon="8.139702291539233"><ele>642.6666666666667</ele><time>2026-04-11T14:42:49Z</time></trkpt><trkpt lat="44.64222539765403" lon="8.139783522935213"><ele>642.8333333333334</ele><time>2026-04-11T14:42:50Z</time></trkpt><trkpt lat="44.64217554982027" lon="8.139870481399253"><ele>643.0</ele><time>2026-04-11T14:42:51Z</time></trkpt><trkpt lat="44.64208071508259" lon="8.139980792766892"><ele>644.6666666666667</ele><time>2026-04-11T14:42:53Z</time></trkpt><trkpt lat="44.64202589973759" lon="8.140073150989325"><ele>646.3333333333334</ele><time>2026-04-11T14:42:54Z</time></trkpt><trkpt lat="44.64196956054808" lon="8.140158785346268"><ele>648.0</ele><time>2026-04-11T14:42:55Z</time></trkpt><trkpt lat="44.641914620897936" lon="8.140240654373631"><ele>649.6666666666666</ele><time>2026-04-11T14:42:56Z</time></trkpt><trkpt lat="44.64186811498648" lon="8.14034265075193"><ele>651.3333333333333</ele><time>2026-04-11T14:42:57Z</time></trkpt><trkpt lat="44.64182336000255" lon="8.140440998973347"><ele>653.0</ele><time>2026-04-11T14:42:58Z</time></trkpt><trkpt lat="44.64176609512191" lon="8.140527328838964"><ele>653.0</ele><time>2026-04-11T14:42:59Z</time></trkpt><trkpt lat="44.641703915625854" lon="8.140605370970295"><ele>653.0</ele><time>2026-04-11T14:43:00Z</time></trkpt><trkpt lat="44.6416498310856" lon="8.140688817263769"><ele>653.0</ele><time>2026-04-11T14:43:01Z</time></trkpt><trkpt lat="44.64161497973696" lon="8.140767187414784"><ele>653.0</ele><time>2026-04-11T14:43:02Z</time></trkpt><trkpt lat="44.64157873795133" lon="8.140843436374997"><ele>653.0</ele><time>2026-04-11T14:43:03Z</time></trkpt><trkpt lat="44.641528741042485" lon="8.140935455387098"><ele>653.0</ele><time>2026-04-11T14:43:04Z</time></trkpt><trkpt lat="44.641459813240544" lon="8.14101167935348"><ele>651.8</ele><time>2026-04-11T14:43:05Z</time></trkpt><trkpt lat="44.641385355963415" lon="8.141071638552399"><ele>650.5999999999999</ele><time>2026-04-11T14:43:06Z</time></trkpt><trkpt lat="44.64132810806872" lon="8.141147786224117"><ele>649.4000000000001</ele><time>2026-04-11T14:43:07Z</time></trkpt><trkpt lat="44.64122870141345" lon="8.141250456433541"><ele>648.2</ele><time>2026-04-11T14:43:09Z</time></trkpt><trkpt lat="44.6411204062547" lon="8.14135836355048"><ele>647.0</ele><time>2026-04-11T14:43:11.001Z</time></trkpt><trkpt lat="44.64106678863061" lon="8.14141853665885"><ele>647.0</ele><time>2026-04-11T14:43:12.001Z</time></trkpt><trkpt lat="44.6409627740115" lon="8.141491384797073"><ele>647.0</ele><time>2026-04-11T14:43:14.001Z</time></trkpt><trkpt lat="44.640870534586135" lon="8.141619085928635"><ele>647.0</ele><time>2026-04-11T14:43:16.001Z</time></trkpt><trkpt lat="44.640819535410984" lon="8.141686328600674"><ele>647.0</ele><time>2026-04-11T14:43:17.001Z</time></trkpt><trkpt lat="44.640779433152716" lon="8.141766487960345"><ele>647.0</ele><time>2026-04-11T14:43:18.001Z</time></trkpt><trkpt lat="44.64074592427939" lon="8.14185025872654"><ele>645.6666666666666</ele><time>2026-04-11T14:43:19.001Z</time></trkpt><trkpt lat="44.64070662407819" lon="8.141937879915124"><ele>644.3333333333333</ele><time>2026-04-11T14:43:20.001Z</time></trkpt><trkpt lat="44.640664654360236" lon="8.142016089613008"><ele>643.0</ele><time>2026-04-11T14:43:21.001Z</time></trkpt><trkpt lat="44.64062906275934" lon="8.142096760087387"><ele>641.6666666666666</ele><time>2026-04-11T14:43:22.001Z</time></trkpt><trkpt lat="44.64059547317416" lon="8.142245895797885"><ele>640.3333333333334</ele><time>2026-04-11T14:43:24.001Z</time></trkpt><trkpt lat="44.64054687201422" lon="8.142380824957757"><ele>639.0</ele><time>2026-04-11T14:43:26.001Z</time></trkpt><trkpt lat="44.640472274994195" lon="8.142474052439336"><ele>637.0</ele><time>2026-04-11T14:43:28.001Z</time></trkpt><trkpt lat="44.64042900754001" lon="8.142600236694777"><ele>635.0</ele><time>2026-04-11T14:43:30.001Z</time></trkpt><trkpt lat="44.640363434113496" lon="8.142694911554656"><ele>633.0</ele><time>2026-04-11T14:43:32.001Z</time></trkpt><trkpt lat="44.640363482205174" lon="8.142793603036468"><ele>631.0</ele><time>2026-04-11T14:43:33.001Z</time></trkpt><trkpt lat="44.64032202681264" lon="8.142931408434029"><ele>629.0</ele><time>2026-04-11T14:43:35.001Z</time></trkpt><trkpt lat="44.640275450266465" lon="8.143036181219745"><ele>629.0</ele><time>2026-04-11T14:43:37.001Z</time></trkpt><trkpt lat="44.64023895041938" lon="8.143151503129006"><ele>629.0</ele><time>2026-04-11T14:43:39.001Z</time></trkpt><trkpt lat="44.64019748902199" lon="8.143286500446424"><ele>629.0</ele><time>2026-04-11T14:43:41.001Z</time></trkpt><trkpt lat="44.64015351123524" lon="8.143408180440126"><ele>629.0</ele><time>2026-04-11T14:43:43.001Z</time></trkpt><trkpt lat="44.640115145473075" lon="8.143510005514587"><ele>629.0</ele><time>2026-04-11T14:43:45.001Z</time></trkpt><trkpt lat="44.64007044852961" lon="8.143632193015916"><ele>628.8333333333333</ele><time>2026-04-11T14:43:47.001Z</time></trkpt><trkpt lat="44.640049176801824" lon="8.143736070761584"><ele>628.6666666666666</ele><time>2026-04-11T14:43:49.001Z</time></trkpt><trkpt lat="44.64002233298862" lon="8.143816581210299"><ele>628.5</ele><time>2026-04-11T14:43:51.001Z</time></trkpt><trkpt lat="44.64001520926245" lon="8.143923912888356"><ele>628.3333333333334</ele><time>2026-04-11T14:43:53.001Z</time></trkpt><trkpt lat="44.640001429509546" lon="8.144030312550463"><ele>628.1666666666667</ele><time>2026-04-11T14:43:55.001Z</time></trkpt><trkpt lat="44.639974520199985" lon="8.144120910040511"><ele>628.0</ele><time>2026-04-11T14:43:57.001Z</time></trkpt><trkpt lat="44.639940462220125" lon="8.144237201186343"><ele>626.8333333333334</ele><time>2026-04-11T14:43:59.001Z</time></trkpt><trkpt lat="44.6398832692368" lon="8.144327819493725"><ele>625.6666666666667</ele><time>2026-04-11T14:44:01.001Z</time></trkpt><trkpt lat="44.63983407069089" lon="8.144439413079219"><ele>624.5</ele><time>2026-04-11T14:44:03.001Z</time></trkpt><trkpt lat="44.639795861319556" lon="8.144517148494527"><ele>623.3333333333334</ele><time>2026-04-11T14:44:05.001Z</time></trkpt><trkpt lat="44.63974025026205" lon="8.14459765361505"><ele>622.1666666666666</ele><time>2026-04-11T14:44:07.001Z</time></trkpt><trkpt lat="44.639690898112555" lon="8.144679667563459"><ele>621.0</ele><time>2026-04-11T14:44:09.001Z</time></trkpt><trkpt lat="44.639647749155046" lon="8.14475078901181"><ele>621.0</ele><time>2026-04-11T14:44:11.001Z</time></trkpt><trkpt lat="44.639604134648806" lon="8.144839562980716"><ele>621.0</ele><time>2026-04-11T14:44:14.001Z</time></trkpt><trkpt lat="44.63961136169866" lon="8.144946944474448"><ele>621.0</ele><time>2026-04-11T14:44:23.001Z</time></trkpt><trkpt lat="44.63959857303726" lon="8.14507580126993"><ele>621.0</ele><time>2026-04-11T14:44:26Z</time></trkpt><trkpt lat="44.63960090197839" lon="8.145210600240402"><ele>621.0</ele><time>2026-04-11T14:44:29Z</time></trkpt><trkpt lat="44.63963222680622" lon="8.145296104049086"><ele>621.0</ele><time>2026-04-11T14:44:31Z</time></trkpt><trkpt lat="44.63964079116084" lon="8.145399065699724"><ele>620.0</ele><time>2026-04-11T14:44:35Z</time></trkpt><trkpt lat="44.63961054396027" lon="8.145492728082145"><ele>619.0</ele><time>2026-04-11T14:44:37Z</time></trkpt><trkpt lat="44.639587738097966" lon="8.145617542274397"><ele>618.0</ele><time>2026-04-11T14:44:40Z</time></trkpt><trkpt lat="44.639600783861" lon="8.14574495654108"><ele>617.0</ele><time>2026-04-11T14:44:42Z</time></trkpt><trkpt lat="44.63959146896548" lon="8.145858060065258"><ele>616.0</ele><time>2026-04-11T14:44:44Z</time></trkpt><trkpt lat="44.63957184765537" lon="8.145978021412176"><ele>615.0</ele><time>2026-04-11T14:44:46Z</time></trkpt><trkpt lat="44.639611974632686" lon="8.146056291997969"><ele>613.3333333333334</ele><time>2026-04-11T14:44:48Z</time></trkpt><trkpt lat="44.63961201575605" lon="8.146155461420078"><ele>611.6666666666666</ele><time>2026-04-11T14:44:50Z</time></trkpt><trkpt lat="44.63960052893876" lon="8.146291943595603"><ele>610.0</ele><time>2026-04-11T14:44:53Z</time></trkpt><trkpt lat="44.639598854967566" lon="8.146413483915222"><ele>608.3333333333333</ele><time>2026-04-11T14:44:55Z</time></trkpt><trkpt lat="44.639623367905436" lon="8.146564895264873"><ele>606.6666666666666</ele><time>2026-04-11T14:44:58Z</time></trkpt><trkpt lat="44.6395742449284" lon="8.146659191115676"><ele>605.0</ele><time>2026-04-11T14:45:00Z</time></trkpt><trkpt lat="44.63951937928373" lon="8.146731582878399"><ele>607.7142857142857</ele><time>2026-04-11T14:45:02Z</time></trkpt><trkpt lat="44.639465193506766" lon="8.146787335968297"><ele>610.4285714285714</ele><time>2026-04-11T14:45:04Z</time></trkpt><trkpt lat="44.63941655783185" lon="8.146860927781745"><ele>613.1428571428571</ele><time>2026-04-11T14:45:06Z</time></trkpt><trkpt lat="44.63935897843303" lon="8.146930116586143"><ele>615.8571428571429</ele><time>2026-04-11T14:45:15Z</time></trkpt><trkpt lat="44.639297563997026" lon="8.146964439221627"><ele>618.5714285714286</ele><time>2026-04-11T14:45:19.001Z</time></trkpt><trkpt lat="44.63928016602907" lon="8.147069992648197"><ele>621.2857142857143</ele><time>2026-04-11T14:45:24.001Z</time></trkpt><trkpt lat="44.639257845253475" lon="8.147180853264668"><ele>624.0</ele><time>2026-04-11T14:45:27.001Z</time></trkpt><trkpt lat="44.63919899202989" lon="8.147273857498096"><ele>624.0</ele><time>2026-04-11T14:45:31.001Z</time></trkpt><trkpt lat="44.63915780476653" lon="8.147342508523334"><ele>624.0</ele><time>2026-04-11T14:45:38.001Z</time></trkpt><trkpt lat="44.6391046544557" lon="8.147427622609467"><ele>624.0</ele><time>2026-04-11T14:45:41.001Z</time></trkpt><trkpt lat="44.63905836631004" lon="8.147502594762457"><ele>624.0</ele><time>2026-04-11T14:45:43.001Z</time></trkpt><trkpt lat="44.63905002764836" lon="8.147592187267659"><ele>624.0</ele><time>2026-04-11T14:45:46.001Z</time></trkpt><trkpt lat="44.63901989172021" lon="8.147685789826728"><ele>624.0</ele><time>2026-04-11T14:45:51.001Z</time></trkpt><trkpt lat="44.639012211186404" lon="8.147785610527867"><ele>624.0</ele><time>2026-04-11T14:45:54.001Z</time></trkpt><trkpt lat="44.638947648393014" lon="8.147828159089539"><ele>623.2857142857143</ele><time>2026-04-11T14:45:57.001Z</time></trkpt><trkpt lat="44.63890203233503" lon="8.14790578913801"><ele>622.5714285714286</ele><time>2026-04-11T14:46:00.001Z</time></trkpt><trkpt lat="44.63883376183722" lon="8.147951068851468"><ele>621.8571428571429</ele><time>2026-04-11T14:46:02.001Z</time></trkpt><trkpt lat="44.638758766888074" lon="8.148009764933597"><ele>621.1428571428571</ele><time>2026-04-11T14:46:04.001Z</time></trkpt><trkpt lat="44.63870426276892" lon="8.148081423438288"><ele>620.4285714285714</ele><time>2026-04-11T14:46:15.001Z</time></trkpt><trkpt lat="44.638637972458994" lon="8.148134924992663"><ele>619.7142857142857</ele><time>2026-04-11T14:46:19.001Z</time></trkpt><trkpt lat="44.638583642616034" lon="8.148182845128815"><ele>619.0</ele><time>2026-04-11T14:46:23.001Z</time></trkpt><trkpt lat="44.63856812648942" lon="8.148279541407797"><ele>617.8333333333334</ele><time>2026-04-11T14:46:36Z</time></trkpt><trkpt lat="44.638512961198884" lon="8.148344178940487"><ele>616.6666666666667</ele><time>2026-04-11T14:47:14Z</time></trkpt><trkpt lat="44.63844173931094" lon="8.148388460945506"><ele>615.5</ele><time>2026-04-11T14:47:18Z</time></trkpt><trkpt lat="44.63838255269155" lon="8.148451530371718"><ele>614.3333333333334</ele><time>2026-04-11T14:47:30.001Z</time></trkpt><trkpt lat="44.63832540828827" lon="8.148530542383975"><ele>613.1666666666666</ele><time>2026-04-11T14:47:35.001Z</time></trkpt><trkpt lat="44.63827072909244" lon="8.148582427479724"><ele>612.0</ele><time>2026-04-11T14:47:41.001Z</time></trkpt><trkpt lat="44.638204709224" lon="8.148675303312116"><ele>612.0</ele><time>2026-04-11T14:47:44.001Z</time></trkpt><trkpt lat="44.638137652723145" lon="8.148726745219077"><ele>612.0</ele><time>2026-04-11T14:47:48.001Z</time></trkpt><trkpt lat="44.6380755277336" lon="8.148768759628203"><ele>612.0</ele><time>2026-04-11T14:47:51.001Z</time></trkpt><trkpt lat="44.63803522356884" lon="8.148851184030763"><ele>612.0</ele><time>2026-04-11T14:47:55.001Z</time></trkpt><trkpt lat="44.63798611070262" lon="8.148907209171325"><ele>612.0</ele><time>2026-04-11T14:47:57.001Z</time></trkpt><trkpt lat="44.637945735219546" lon="8.149027652955171"><ele>612.0</ele><time>2026-04-11T14:48:09.001Z</time></trkpt><trkpt lat="44.637942364285976" lon="8.149138380797808"><ele>612.6666666666666</ele><time>2026-04-11T14:48:13.001Z</time></trkpt><trkpt lat="44.637909603148245" lon="8.1492314107803"><ele>613.3333333333334</ele><time>2026-04-11T14:48:16.001Z</time></trkpt><trkpt lat="44.63785159622352" lon="8.149333614974186"><ele>614.0</ele><time>2026-04-11T14:48:23.001Z</time></trkpt><trkpt lat="44.63785102851288" lon="8.149455008967108"><ele>614.6666666666667</ele><time>2026-04-11T14:48:28.001Z</time></trkpt><trkpt lat="44.63782141779066" lon="8.149537241984412"><ele>615.3333333333334</ele><time>2026-04-11T14:48:30.001Z</time></trkpt><trkpt lat="44.637789389583894" lon="8.149615885014084"><ele>616.0</ele><time>2026-04-11T14:48:34.001Z</time></trkpt><trkpt lat="44.63777133160883" lon="8.149737211856266"><ele>616.0</ele><time>2026-04-11T14:48:38Z</time></trkpt><trkpt lat="44.63776129690165" lon="8.14982707898531"><ele>616.0</ele><time>2026-04-11T14:48:40Z</time></trkpt><trkpt lat="44.63774729176992" lon="8.149917628377587"><ele>616.0</ele><time>2026-04-11T14:48:42Z</time></trkpt><trkpt lat="44.63777673701078" lon="8.150007620529086"><ele>616.0</ele><time>2026-04-11T14:48:46Z</time></trkpt><trkpt lat="44.63778558138132" lon="8.150099331040295"><ele>616.0</ele><time>2026-04-11T14:48:48Z</time></trkpt><trkpt lat="44.63775135663902" lon="8.150225428772885"><ele>616.0</ele><time>2026-04-11T14:48:51Z</time></trkpt><trkpt lat="44.637726723308575" lon="8.1503084207968"><ele>616.0</ele><time>2026-04-11T14:48:53Z</time></trkpt><trkpt lat="44.63768647879162" lon="8.150398891151015"><ele>616.1666666666667</ele><time>2026-04-11T14:48:55Z</time></trkpt><trkpt lat="44.63765913180636" lon="8.150531926600214"><ele>616.3333333333334</ele><time>2026-04-11T14:48:58Z</time></trkpt><trkpt lat="44.63763668001826" lon="8.15063034705923"><ele>616.5</ele><time>2026-04-11T14:49:00Z</time></trkpt><trkpt lat="44.63764853270345" lon="8.150724982138213"><ele>616.6666666666666</ele><time>2026-04-11T14:49:02Z</time></trkpt><trkpt lat="44.63763588645524" lon="8.150820847922908"><ele>616.8333333333333</ele><time>2026-04-11T14:49:04Z</time></trkpt><trkpt lat="44.63758601415147" lon="8.15092554891805"><ele>617.0</ele><time>2026-04-11T14:49:07Z</time></trkpt><trkpt lat="44.63754068342599" lon="8.151019959845298"><ele>615.0</ele><time>2026-04-11T14:49:10Z</time></trkpt><trkpt lat="44.63749934842951" lon="8.151108397630667"><ele>613.0</ele><time>2026-04-11T14:49:18Z</time></trkpt><trkpt lat="44.63744297916835" lon="8.151167274447166"><ele>611.0</ele><time>2026-04-11T14:49:21Z</time></trkpt><trkpt lat="44.637368126228296" lon="8.151222540762824"><ele>609.0</ele><time>2026-04-11T14:49:24Z</time></trkpt><trkpt lat="44.63730518633301" lon="8.15126240411429"><ele>607.0</ele><time>2026-04-11T14:49:26.001Z</time></trkpt><trkpt lat="44.637242108389685" lon="8.151325636056042"><ele>605.0</ele><time>2026-04-11T14:49:29.001Z</time></trkpt><trkpt lat="44.63716931703111" lon="8.151405387398905"><ele>605.0</ele><time>2026-04-11T14:49:32.001Z</time></trkpt><trkpt lat="44.637129667090505" lon="8.151477585279345"><ele>605.0</ele><time>2026-04-11T14:49:43.001Z</time></trkpt><trkpt lat="44.63711094283654" lon="8.15158415073462"><ele>605.0</ele><time>2026-04-11T14:49:48.001Z</time></trkpt><trkpt lat="44.63710105678059" lon="8.151692904245886"><ele>605.0</ele><time>2026-04-11T14:49:55.001Z</time></trkpt><trkpt lat="44.637069147822736" lon="8.151791349656193"><ele>605.0</ele><time>2026-04-11T14:50:03.001Z</time></trkpt><trkpt lat="44.636972684172925" lon="8.151812017827394"><ele>605.0</ele><time>2026-04-11T14:50:06.001Z</time></trkpt><trkpt lat="44.63683478689123" lon="8.151808870828466"><ele>603.5</ele><time>2026-04-11T14:50:08.001Z</time></trkpt><trkpt lat="44.636749863771406" lon="8.151768381794607"><ele>602.0</ele><time>2026-04-11T14:50:09.001Z</time></trkpt><trkpt lat="44.63665674694105" lon="8.151720607427713"><ele>600.5</ele><time>2026-04-11T14:50:10.001Z</time></trkpt><trkpt lat="44.63657849242378" lon="8.15169181624791"><ele>599.0</ele><time>2026-04-11T14:50:11.001Z</time></trkpt><trkpt lat="44.636513267699314" lon="8.151679885626404"><ele>597.5</ele><time>2026-04-11T14:50:12.001Z</time></trkpt><trkpt lat="44.63642232632746" lon="8.151662138592366"><ele>596.0</ele><time>2026-04-11T14:50:14.001Z</time></trkpt><trkpt lat="44.636338465662966" lon="8.151674799215245"><ele>596.0</ele><time>2026-04-11T14:50:17.001Z</time></trkpt><trkpt lat="44.63622921538676" lon="8.151694786870733"><ele>596.0</ele><time>2026-04-11T14:50:20.001Z</time></trkpt><trkpt lat="44.63611549681865" lon="8.151707210055367"><ele>596.0</ele><time>2026-04-11T14:50:22.001Z</time></trkpt><trkpt lat="44.63604025747694" lon="8.151696456224276"><ele>596.0</ele><time>2026-04-11T14:50:24.001Z</time></trkpt><trkpt lat="44.63598450974056" lon="8.151650305798416"><ele>596.0</ele><time>2026-04-11T14:50:26.001Z</time></trkpt><trkpt lat="44.63592422476449" lon="8.151605352753466"><ele>596.0</ele><time>2026-04-11T14:50:28.001Z</time></trkpt><trkpt lat="44.63584418990295" lon="8.1515664186352"><ele>587.0</ele><time>2026-04-11T14:50:31.001Z</time></trkpt><trkpt lat="44.635770298102265" lon="8.15153908822699"><ele>587.0</ele><time>2026-04-11T14:50:34.001Z</time></trkpt><trkpt lat="44.63570458886492" lon="8.15151198824759"><ele>587.0</ele><time>2026-04-11T14:50:39.001Z</time></trkpt></trkseg><trkseg><trkpt lat="44.635607012369846" lon="8.151556293549625"><ele>587.0</ele><time>2026-04-11T15:07:49Z</time></trkpt><trkpt lat="44.635552124362725" lon="8.151615507294139"><ele>587.0</ele><time>2026-04-11T15:07:51Z</time></trkpt><trkpt lat="44.63546087430831" lon="8.151638661244274"><ele>587.0</ele><time>2026-04-11T15:07:54Z</time></trkpt><trkpt lat="44.63538712803643" lon="8.151629663179614"><ele>587.0</ele><time>2026-04-11T15:07:56Z</time></trkpt><trkpt lat="44.635297659806575" lon="8.15159294871243"><ele>587.0</ele><time>2026-04-11T15:07:58Z</time></trkpt><trkpt lat="44.63520294695474" lon="8.151524362044311"><ele>587.0</ele><time>2026-04-11T15:08:00Z</time></trkpt><trkpt lat="44.635126084059266" lon="8.151495836797913"><ele>585.8000000000001</ele><time>2026-04-11T15:08:02Z</time></trkpt><trkpt lat="44.635020771585786" lon="8.151455012416664"><ele>584.6</ele><time>2026-04-11T15:08:04Z</time></trkpt><trkpt lat="44.63491761591116" lon="8.151453203554027"><ele>583.4000000000001</ele><time>2026-04-11T15:08:06Z</time></trkpt><trkpt lat="44.63481738344368" lon="8.15154392767723"><ele>582.2</ele><time>2026-04-11T15:08:08Z</time></trkpt><trkpt lat="44.63475667513816" lon="8.151593141236376"><ele>581.0</ele><time>2026-04-11T15:08:09Z</time></trkpt><trkpt lat="44.63469345041544" lon="8.151661590587297"><ele>581.0</ele><time>2026-04-11T15:08:10Z</time></trkpt><trkpt lat="44.634644434710694" lon="8.151724713543556"><ele>581.0</ele><time>2026-04-11T15:08:11Z</time></trkpt><trkpt lat="44.634603071144554" lon="8.151799549354847"><ele>581.0</ele><time>2026-04-11T15:08:15Z</time></trkpt><trkpt lat="44.63458161213123" lon="8.151898374507196"><ele>581.0</ele><time>2026-04-11T15:08:19Z</time></trkpt><trkpt lat="44.63453802711039" lon="8.15197540729536"><ele>581.0</ele><time>2026-04-11T15:08:22Z</time></trkpt><trkpt lat="44.63449033983826" lon="8.152033286989175"><ele>581.0</ele><time>2026-04-11T15:08:24Z</time></trkpt><trkpt lat="44.63442725886311" lon="8.152135604452788"><ele>581.0</ele><time>2026-04-11T15:08:27Z</time></trkpt><trkpt lat="44.63437674150027" lon="8.152204260941806"><ele>581.8333333333333</ele><time>2026-04-11T15:08:29Z</time></trkpt><trkpt lat="44.63432016422407" lon="8.152292212050442"><ele>582.6666666666666</ele><time>2026-04-11T15:08:31Z</time></trkpt><trkpt lat="44.634268950983916" lon="8.152383632308219"><ele>583.5</ele><time>2026-04-11T15:08:33Z</time></trkpt><trkpt lat="44.634235759716326" lon="8.152469950610396"><ele>584.3333333333334</ele><time>2026-04-11T15:08:35Z</time></trkpt><trkpt lat="44.63418484328969" lon="8.152557120011764"><ele>585.1666666666667</ele><time>2026-04-11T15:08:37Z</time></trkpt><trkpt lat="44.6341393749598" lon="8.152697959451332"><ele>586.0</ele><time>2026-04-11T15:08:39Z</time></trkpt><trkpt lat="44.63410300895756" lon="8.152830171814516"><ele>584.1666666666667</ele><time>2026-04-11T15:08:41Z</time></trkpt><trkpt lat="44.63405039075822" lon="8.15294554991111"><ele>582.3333333333334</ele><time>2026-04-11T15:08:43Z</time></trkpt><trkpt lat="44.6340097326829" lon="8.153047799141682"><ele>580.5</ele><time>2026-04-11T15:08:45Z</time></trkpt><trkpt lat="44.63397043881921" lon="8.153166400647672"><ele>578.6666666666666</ele><time>2026-04-11T15:08:47Z</time></trkpt><trkpt lat="44.633958107278076" lon="8.153270362446555"><ele>576.8333333333333</ele><time>2026-04-11T15:08:49Z</time></trkpt><trkpt lat="44.63391469858879" lon="8.153344563497724"><ele>575.0</ele><time>2026-04-11T15:08:58Z</time></trkpt><trkpt lat="44.63388380701189" lon="8.153460739810614"><ele>571.7142857142857</ele><time>2026-04-11T15:09:01Z</time></trkpt><trkpt lat="44.633864573554426" lon="8.153546575716893"><ele>568.4285714285713</ele><time>2026-04-11T15:09:05Z</time></trkpt><trkpt lat="44.63381926801308" lon="8.153654955372767"><ele>565.1428571428571</ele><time>2026-04-11T15:09:09Z</time></trkpt><trkpt lat="44.63378883864656" lon="8.153737648026214"><ele>561.8571428571429</ele><time>2026-04-11T15:09:12Z</time></trkpt><trkpt lat="44.63374294881825" lon="8.15379927064956"><ele>558.5714285714287</ele><time>2026-04-11T15:09:24Z</time></trkpt><trkpt lat="44.63370806592783" lon="8.153887432121104"><ele>555.2857142857143</ele><time>2026-04-11T15:09:26Z</time></trkpt><trkpt lat="44.63366669727538" lon="8.153971500536223"><ele>552.0</ele><time>2026-04-11T15:09:29Z</time></trkpt><trkpt lat="44.63373825293975" lon="8.153917507368101"><ele>552.0</ele><time>2026-04-11T15:11:21Z</time></trkpt><trkpt lat="44.633804456329514" lon="8.153882323913622"><ele>552.0</ele><time>2026-04-11T15:11:25Z</time></trkpt><trkpt lat="44.633868018240754" lon="8.153839557534486"><ele>552.0</ele><time>2026-04-11T15:11:29Z</time></trkpt><trkpt lat="44.63392461519485" lon="8.15378270714392"><ele>552.0</ele><time>2026-04-11T15:11:32Z</time></trkpt><trkpt lat="44.63397779560746" lon="8.153722044771424"><ele>552.0</ele><time>2026-04-11T15:11:35Z</time></trkpt><trkpt lat="44.63403965630581" lon="8.153661564062016"><ele>552.0</ele><time>2026-04-11T15:11:38.999Z</time></trkpt><trkpt lat="44.63409720893958" lon="8.153601961938513"><ele>552.0</ele><time>2026-04-11T15:11:43.999Z</time></trkpt><trkpt lat="44.63415675950185" lon="8.153542575318207"><ele>552.0</ele><time>2026-04-11T15:11:55Z</time></trkpt><trkpt lat="44.634205607832364" lon="8.153486202818984"><ele>552.0</ele><time>2026-04-11T15:12:06Z</time></trkpt><trkpt lat="44.63425382378707" lon="8.153428180346335"><ele>552.0</ele><time>2026-04-11T15:12:18Z</time></trkpt><trkpt lat="44.634312577943604" lon="8.153379926512738"><ele>552.0</ele><time>2026-04-11T15:12:54Z</time></trkpt><trkpt lat="44.634361372701854" lon="8.153288566242258"><ele>552.0</ele><time>2026-04-11T15:12:59Z</time></trkpt><trkpt lat="44.63441024089404" lon="8.153222052762318"><ele>552.0</ele><time>2026-04-11T15:13:02Z</time></trkpt><trkpt lat="44.634457993221645" lon="8.1531560099511"><ele>552.0</ele><time>2026-04-11T15:13:04Z</time></trkpt><trkpt lat="44.634519959187756" lon="8.153075281432818"><ele>552.6666666666666</ele><time>2026-04-11T15:13:11Z</time></trkpt><trkpt lat="44.63457500403027" lon="8.153020233226833"><ele>553.3333333333334</ele><time>2026-04-11T15:13:14Z</time></trkpt><trkpt lat="44.634627953246564" lon="8.152926119672474"><ele>554.0</ele><time>2026-04-11T15:13:17Z</time></trkpt><trkpt lat="44.63470740521228" lon="8.152836306386316"><ele>554.6666666666667</ele><time>2026-04-11T15:13:20Z</time></trkpt><trkpt lat="44.63477466860073" lon="8.15283153078201"><ele>555.3333333333334</ele><time>2026-04-11T15:13:27Z</time></trkpt><trkpt lat="44.63478622441435" lon="8.15294986617583"><ele>556.0</ele><time>2026-04-11T15:13:31Z</time></trkpt><trkpt lat="44.63476319179114" lon="8.15304665522027"><ele>556.0</ele><time>2026-04-11T15:13:34Z</time></trkpt><trkpt lat="44.63476397700902" lon="8.15313581339892"><ele>556.0</ele><time>2026-04-11T15:13:38Z</time></trkpt><trkpt lat="44.634754278012316" lon="8.153236424444593"><ele>556.0</ele><time>2026-04-11T15:13:48.999Z</time></trkpt><trkpt lat="44.6347216530737" lon="8.153359883844148"><ele>556.0</ele><time>2026-04-11T15:13:51.999Z</time></trkpt><trkpt lat="44.63468429950825" lon="8.153443770564097"><ele>556.0</ele><time>2026-04-11T15:13:54.999Z</time></trkpt><trkpt lat="44.634640325467956" lon="8.15353398730692"><ele>556.0</ele><time>2026-04-11T15:13:58.999Z</time></trkpt><trkpt lat="44.63459113335436" lon="8.153618222188392"><ele>556.0</ele><time>2026-04-11T15:14:01Z</time></trkpt><trkpt lat="44.634634239092605" lon="8.153550355602164"><ele>556.0</ele><time>2026-04-11T15:14:35Z</time></trkpt><trkpt lat="44.634673270465505" lon="8.15346480175815"><ele>556.0</ele><time>2026-04-11T15:14:37Z</time></trkpt><trkpt lat="44.63469424183093" lon="8.153355896200607"><ele>556.0</ele><time>2026-04-11T15:14:39Z</time></trkpt><trkpt lat="44.634725962671666" lon="8.15323249030198"><ele>556.0</ele><time>2026-04-11T15:14:41Z</time></trkpt><trkpt lat="44.63473527647766" lon="8.153137934411232"><ele>556.0</ele><time>2026-04-11T15:14:44Z</time></trkpt><trkpt lat="44.63476268746136" lon="8.152978496613574"><ele>556.0</ele><time>2026-04-11T15:14:47Z</time></trkpt><trkpt lat="44.63479039714244" lon="8.152898291393914"><ele>556.0</ele><time>2026-04-11T15:14:49Z</time></trkpt><trkpt lat="44.634816772512885" lon="8.152813302883306"><ele>556.0</ele><time>2026-04-11T15:15:02Z</time></trkpt><trkpt lat="44.634868757688245" lon="8.152741409612608"><ele>556.0</ele><time>2026-04-11T15:15:07Z</time></trkpt><trkpt lat="44.63492967261921" lon="8.152718980575305"><ele>556.0</ele><time>2026-04-11T15:15:09Z</time></trkpt><trkpt lat="44.63510850403561" lon="8.152687729843235"><ele>556.0</ele><time>2026-04-11T15:15:19Z</time></trkpt><trkpt lat="44.63517531941261" lon="8.152706815969884"><ele>556.0</ele><time>2026-04-11T15:15:21Z</time></trkpt><trkpt lat="44.63527214636584" lon="8.152737650231693"><ele>556.0</ele><time>2026-04-11T15:15:25Z</time></trkpt><trkpt lat="44.635359460022435" lon="8.152752848355364"><ele>556.0</ele><time>2026-04-11T15:15:29Z</time></trkpt><trkpt lat="44.63556702638235" lon="8.152811625265777"><ele>556.0</ele><time>2026-04-11T15:15:37Z</time></trkpt><trkpt lat="44.63562387030615" lon="8.152865580928001"><ele>556.6666666666667</ele><time>2026-04-11T15:15:39Z</time></trkpt><trkpt lat="44.63567645162743" lon="8.15292868080572"><ele>557.3333333333334</ele><time>2026-04-11T15:15:41Z</time></trkpt><trkpt lat="44.63575322184603" lon="8.153005700706512"><ele>558.0</ele><time>2026-04-11T15:15:44Z</time></trkpt><trkpt lat="44.635824290512815" lon="8.153092673035342"><ele>558.6666666666666</ele><time>2026-04-11T15:15:47Z</time></trkpt><trkpt lat="44.635868711626905" lon="8.153156604395889"><ele>559.3333333333333</ele><time>2026-04-11T15:15:48.999Z</time></trkpt><trkpt lat="44.635934155862735" lon="8.153194687397312"><ele>560.0</ele><time>2026-04-11T15:15:51.999Z</time></trkpt><trkpt lat="44.63607705655956" lon="8.153218929308137"><ele>561.1666666666666</ele><time>2026-04-11T15:17:02Z</time></trkpt><trkpt lat="44.63615110240263" lon="8.153185913158232"><ele>562.3333333333333</ele><time>2026-04-11T15:17:07Z</time></trkpt><trkpt lat="44.63628121227873" lon="8.15316211372056"><ele>563.5</ele><time>2026-04-11T15:17:13Z</time></trkpt><trkpt lat="44.63635713333145" lon="8.15318215038829"><ele>564.6666666666666</ele><time>2026-04-11T15:17:18Z</time></trkpt><trkpt lat="44.6364280458481" lon="8.153225899674537"><ele>565.8333333333334</ele><time>2026-04-11T15:17:22Z</time></trkpt><trkpt lat="44.63649488079713" lon="8.153267657779669"><ele>567.0</ele><time>2026-04-11T15:17:27Z</time></trkpt><trkpt lat="44.63656167819941" lon="8.153305519362641"><ele>562.1428571428571</ele><time>2026-04-11T15:17:30Z</time></trkpt><trkpt lat="44.636614920289496" lon="8.153355051367372"><ele>557.2857142857142</ele><time>2026-04-11T15:17:33Z</time></trkpt><trkpt lat="44.63668661275966" lon="8.153386704049163"><ele>552.4285714285714</ele><time>2026-04-11T15:17:37Z</time></trkpt><trkpt lat="44.636755141772674" lon="8.153427524676802"><ele>547.5714285714286</ele><time>2026-04-11T15:17:40Z</time></trkpt><trkpt lat="44.63681453639982" lon="8.153464833814605"><ele>542.7142857142857</ele><time>2026-04-11T15:17:43Z</time></trkpt><trkpt lat="44.636888616300766" lon="8.153538730094212"><ele>537.8571428571429</ele><time>2026-04-11T15:17:46Z</time></trkpt><trkpt lat="44.636949393840666" lon="8.153598139032502"><ele>533.0</ele><time>2026-04-11T15:17:50Z</time></trkpt><trkpt lat="44.63701294409531" lon="8.153656693157558"><ele>533.0</ele><time>2026-04-11T15:17:54Z</time></trkpt><trkpt lat="44.63707378873968" lon="8.153693923733785"><ele>533.0</ele><time>2026-04-11T15:18:13Z</time></trkpt><trkpt lat="44.63713118069194" lon="8.153788385648864"><ele>533.0</ele><time>2026-04-11T15:18:19Z</time></trkpt><trkpt lat="44.63717957547899" lon="8.153858179984754"><ele>533.0</ele><time>2026-04-11T15:18:25Z</time></trkpt><trkpt lat="44.63721897277626" lon="8.153945155482122"><ele>533.0</ele><time>2026-04-11T15:18:30Z</time></trkpt><trkpt lat="44.637254340107305" lon="8.154029540133596"><ele>533.0</ele><time>2026-04-11T15:18:36Z</time></trkpt><trkpt lat="44.637293698925596" lon="8.15410857135068"><ele>533.0</ele><time>2026-04-11T15:18:40Z</time></trkpt><trkpt lat="44.63731845263904" lon="8.15420158281127"><ele>530.1428571428571</ele><time>2026-04-11T15:18:44Z</time></trkpt><trkpt lat="44.63734850083447" lon="8.154289620836662"><ele>527.2857142857142</ele><time>2026-04-11T15:19:05Z</time></trkpt><trkpt lat="44.63737059531348" lon="8.154383466790579"><ele>524.4285714285714</ele><time>2026-04-11T15:19:22Z</time></trkpt><trkpt lat="44.63739547727102" lon="8.154480058547167"><ele>521.5714285714286</ele><time>2026-04-11T15:19:26Z</time></trkpt><trkpt lat="44.63742307296972" lon="8.15456335409041"><ele>518.7142857142858</ele><time>2026-04-11T15:19:29Z</time></trkpt><trkpt lat="44.63745206982596" lon="8.15466358020966"><ele>515.8571428571429</ele><time>2026-04-11T15:19:32Z</time></trkpt><trkpt lat="44.6374728147631" lon="8.154762106979714"><ele>513.0</ele><time>2026-04-11T15:19:53Z</time></trkpt><trkpt lat="44.63748489197186" lon="8.154863405130047"><ele>510.0</ele><time>2026-04-11T15:19:55Z</time></trkpt><trkpt lat="44.63749097342249" lon="8.154964302880682"><ele>507.0</ele><time>2026-04-11T15:19:57Z</time></trkpt><trkpt lat="44.637449447499066" lon="8.155076440546766"><ele>504.0</ele><time>2026-04-11T15:20:00Z</time></trkpt><trkpt lat="44.6373893595479" lon="8.155157692290777"><ele>501.0</ele><time>2026-04-11T15:20:01.999Z</time></trkpt><trkpt lat="44.637320869092235" lon="8.15518001266802"><ele>498.0</ele><time>2026-04-11T15:20:03.999Z</time></trkpt><trkpt lat="44.63723360566806" lon="8.155141884511368"><ele>495.0</ele><time>2026-04-11T15:20:07Z</time></trkpt><trkpt lat="44.63719260099659" lon="8.155039038199655"><ele>495.0</ele><time>2026-04-11T15:20:09Z</time></trkpt><trkpt lat="44.6371483936256" lon="8.154942418388135"><ele>495.0</ele><time>2026-04-11T15:20:11Z</time></trkpt><trkpt lat="44.637115348326375" lon="8.154855068150196"><ele>495.0</ele><time>2026-04-11T15:20:13Z</time></trkpt><trkpt lat="44.63707120018517" lon="8.15477727530034"><ele>495.0</ele><time>2026-04-11T15:20:15Z</time></trkpt><trkpt lat="44.63705134460731" lon="8.154675171075837"><ele>495.0</ele><time>2026-04-11T15:20:17Z</time></trkpt><trkpt lat="44.63697719180708" lon="8.154596172185133"><ele>495.0</ele><time>2026-04-11T15:20:20Z</time></trkpt><trkpt lat="44.636928254548394" lon="8.154536555988493"><ele>495.8</ele><time>2026-04-11T15:20:22Z</time></trkpt><trkpt lat="44.63682417142294" lon="8.154465375348973"><ele>496.6</ele><time>2026-04-11T15:20:24Z</time></trkpt><trkpt lat="44.63673285925757" lon="8.15437577955515"><ele>497.4</ele><time>2026-04-11T15:20:26Z</time></trkpt><trkpt lat="44.6366255679832" lon="8.154358276700208"><ele>498.2</ele><time>2026-04-11T15:20:28Z</time></trkpt><trkpt lat="44.63656104927474" lon="8.154342509977038"><ele>499.0</ele><time>2026-04-11T15:20:30Z</time></trkpt><trkpt lat="44.63647506975483" lon="8.154326140738053"><ele>499.0</ele><time>2026-04-11T15:20:32Z</time></trkpt><trkpt lat="44.63637221412234" lon="8.154298786125809"><ele>499.0</ele><time>2026-04-11T15:20:34Z</time></trkpt><trkpt lat="44.636303775933044" lon="8.154327857618087"><ele>499.0</ele><time>2026-04-11T15:20:35Z</time></trkpt><trkpt lat="44.636215478377935" lon="8.154413460412387"><ele>499.0</ele><time>2026-04-11T15:20:37Z</time></trkpt><trkpt lat="44.63612141287217" lon="8.154426214112966"><ele>499.0</ele><time>2026-04-11T15:20:39Z</time></trkpt><trkpt lat="44.63602879186909" lon="8.154385690962025"><ele>497.4</ele><time>2026-04-11T15:20:41Z</time></trkpt><trkpt lat="44.63591402837564" lon="8.154334184123684"><ele>495.79999999999995</ele><time>2026-04-11T15:20:43Z</time></trkpt><trkpt lat="44.635858737721385" lon="8.154288019003495"><ele>494.20000000000005</ele><time>2026-04-11T15:20:44Z</time></trkpt><trkpt lat="44.63575000362058" lon="8.154294471967788"><ele>492.6</ele><time>2026-04-11T15:20:46Z</time></trkpt><trkpt lat="44.63567811142093" lon="8.154313074378248"><ele>491.0</ele><time>2026-04-11T15:20:48Z</time></trkpt><trkpt lat="44.63559415578013" lon="8.154396267960147"><ele>490.99999999999994</ele><time>2026-04-11T15:22:06.001Z</time></trkpt><trkpt lat="44.63552691230095" lon="8.154435646341394"><ele>491.0</ele><time>2026-04-11T15:22:20Z</time></trkpt><trkpt lat="44.63544499761529" lon="8.154491201210524"><ele>491.0</ele><time>2026-04-11T15:22:23Z</time></trkpt><trkpt lat="44.63538172546947" lon="8.154546791118896"><ele>491.0</ele><time>2026-04-11T15:22:26Z</time></trkpt><trkpt lat="44.63533117606757" lon="8.15462597267538"><ele>490.99999999999994</ele><time>2026-04-11T15:22:29Z</time></trkpt><trkpt lat="44.63535605213352" lon="8.154748845250984"><ele>491.0</ele><time>2026-04-11T15:22:32Z</time></trkpt><trkpt lat="44.635371338557334" lon="8.154845549933338"><ele>489.49999999999994</ele><time>2026-04-11T15:22:34Z</time></trkpt><trkpt lat="44.63539157233442" lon="8.154973035343028"><ele>488.0</ele><time>2026-04-11T15:22:36Z</time></trkpt><trkpt lat="44.635377083024146" lon="8.15505971531294"><ele>486.5</ele><time>2026-04-11T15:22:38Z</time></trkpt><trkpt lat="44.635366188847314" lon="8.15517730869399"><ele>485.0</ele><time>2026-04-11T15:22:40Z</time></trkpt><trkpt lat="44.63532521522751" lon="8.15528811143651"><ele>483.49999999999994</ele><time>2026-04-11T15:22:42Z</time></trkpt><trkpt lat="44.63527887210849" lon="8.155368700392676"><ele>482.0</ele><time>2026-04-11T15:22:44Z</time></trkpt><trkpt lat="44.63525175094861" lon="8.155476770808752"><ele>482.0</ele><time>2026-04-11T15:22:46Z</time></trkpt><trkpt lat="44.635259264898515" lon="8.15560079100229"><ele>482.00000000000006</ele><time>2026-04-11T15:22:48Z</time></trkpt><trkpt lat="44.63526254170291" lon="8.155764345500144"><ele>482.00000000000006</ele><time>2026-04-11T15:22:50Z</time></trkpt><trkpt lat="44.635297734429805" lon="8.155915501336287"><ele>482.0</ele><time>2026-04-11T15:22:52Z</time></trkpt><trkpt lat="44.635298927924005" lon="8.156048998701964"><ele>482.0</ele><time>2026-04-11T15:22:54Z</time></trkpt><trkpt lat="44.63526493274409" lon="8.15617102740574"><ele>480.99999999999994</ele><time>2026-04-11T15:22:56Z</time></trkpt><trkpt lat="44.6352248588203" lon="8.156268528653422"><ele>480.0</ele><time>2026-04-11T15:22:58Z</time></trkpt><trkpt lat="44.63518297542638" lon="8.15635590185917"><ele>479.0</ele><time>2026-04-11T15:23:00Z</time></trkpt><trkpt lat="44.63511274986113" lon="8.156418920320585"><ele>478.0</ele><time>2026-04-11T15:23:03Z</time></trkpt><trkpt lat="44.63503582203334" lon="8.156438508766374"><ele>476.99999999999994</ele><time>2026-04-11T15:23:05Z</time></trkpt><trkpt lat="44.634949286504735" lon="8.15648357566831"><ele>476.0</ele><time>2026-04-11T15:23:08Z</time></trkpt><trkpt lat="44.634913102579624" lon="8.15655789535548"><ele>474.6</ele><time>2026-04-11T15:23:16Z</time></trkpt><trkpt lat="44.634893654846735" lon="8.156665188423405"><ele>473.20000000000005</ele><time>2026-04-11T15:23:20Z</time></trkpt><trkpt lat="44.6349183467698" lon="8.156825359050007"><ele>471.79999999999995</ele><time>2026-04-11T15:23:22Z</time></trkpt><trkpt lat="44.63489555696943" lon="8.156976376916326"><ele>470.4</ele><time>2026-04-11T15:23:24Z</time></trkpt><trkpt lat="44.63490226281585" lon="8.15711211278649"><ele>469.0</ele><time>2026-04-11T15:23:26Z</time></trkpt><trkpt lat="44.634893699063575" lon="8.157240086805688"><ele>469.00000000000006</ele><time>2026-04-11T15:23:28Z</time></trkpt><trkpt lat="44.63488291287342" lon="8.157361517400847"><ele>469.0</ele><time>2026-04-11T15:23:30Z</time></trkpt><trkpt lat="44.63486779861861" lon="8.15746588897643"><ele>469.0</ele><time>2026-04-11T15:23:31Z</time></trkpt><trkpt lat="44.63485611942859" lon="8.157566023176306"><ele>469.0</ele><time>2026-04-11T15:23:33Z</time></trkpt><trkpt lat="44.63485363719979" lon="8.157709832932275"><ele>469.00000000000006</ele><time>2026-04-11T15:23:37.001Z</time></trkpt><trkpt lat="44.634840263225" lon="8.1578091180347"><ele>469.0</ele><time>2026-04-11T15:23:39.001Z</time></trkpt><trkpt lat="44.634803393487" lon="8.157905794260158"><ele>468.33333333333337</ele><time>2026-04-11T15:23:41.001Z</time></trkpt><trkpt lat="44.634756492197326" lon="8.157973411871412"><ele>467.6666666666667</ele><time>2026-04-11T15:23:43.001Z</time></trkpt><trkpt lat="44.63468759075762" lon="8.158066059399419"><ele>467.0</ele><time>2026-04-11T15:23:46.001Z</time></trkpt><trkpt lat="44.63461821616732" lon="8.15816826473442"><ele>466.33333333333337</ele><time>2026-04-11T15:23:48.001Z</time></trkpt><trkpt lat="44.63458083419229" lon="8.158240059998999"><ele>465.6666666666667</ele><time>2026-04-11T15:23:49.001Z</time></trkpt><trkpt lat="44.634529784093736" lon="8.158361058609783"><ele>465.0</ele><time>2026-04-11T15:23:51.001Z</time></trkpt><trkpt lat="44.634481947023744" lon="8.158456676589028"><ele>466.8333333333333</ele><time>2026-04-11T15:23:53.001Z</time></trkpt><trkpt lat="44.634410394722906" lon="8.158464406615954"><ele>468.66666666666663</ele><time>2026-04-11T15:23:55.001Z</time></trkpt><trkpt lat="44.63434057554547" lon="8.15852200992448"><ele>470.5</ele><time>2026-04-11T15:23:57.001Z</time></trkpt><trkpt lat="44.63424813432321" lon="8.158541870334219"><ele>472.3333333333333</ele><time>2026-04-11T15:24:00.001Z</time></trkpt><trkpt lat="44.634180645750305" lon="8.15856039555566"><ele>474.16666666666663</ele><time>2026-04-11T15:24:02.001Z</time></trkpt><trkpt lat="44.63410486766553" lon="8.158621707779444"><ele>476.0</ele><time>2026-04-11T15:24:04.001Z</time></trkpt><trkpt lat="44.634017793870605" lon="8.15871934692505"><ele>475.99999999999994</ele><time>2026-04-11T15:24:06.001Z</time></trkpt><trkpt lat="44.633951227769636" lon="8.158842903359272"><ele>476.0</ele><time>2026-04-11T15:24:08.001Z</time></trkpt><trkpt lat="44.633894558513674" lon="8.15896382844853"><ele>476.0</ele><time>2026-04-11T15:24:10.001Z</time></trkpt><trkpt lat="44.63383686493817" lon="8.159031701185247"><ele>476.0</ele><time>2026-04-11T15:24:12.001Z</time></trkpt><trkpt lat="44.63380721129349" lon="8.159128884309968"><ele>475.99999999999994</ele><time>2026-04-11T15:24:14Z</time></trkpt><trkpt lat="44.63380223662249" lon="8.159246792649771"><ele>476.0</ele><time>2026-04-11T15:24:17Z</time></trkpt><trkpt lat="44.63379431494247" lon="8.159368309644035"><ele>475.8333333333333</ele><time>2026-04-11T15:24:19Z</time></trkpt><trkpt lat="44.633764123837395" lon="8.159471179593679"><ele>475.66666666666663</ele><time>2026-04-11T15:24:21Z</time></trkpt><trkpt lat="44.633710921408365" lon="8.159537901335025"><ele>475.5</ele><time>2026-04-11T15:24:23Z</time></trkpt><trkpt lat="44.633632263937365" lon="8.159629001653737"><ele>475.33333333333337</ele><time>2026-04-11T15:24:25Z</time></trkpt><trkpt lat="44.633544575140974" lon="8.15968583156559"><ele>475.1666666666667</ele><time>2026-04-11T15:24:27Z</time></trkpt><trkpt lat="44.63347245808909" lon="8.159718448461343"><ele>475.0</ele><time>2026-04-11T15:24:29Z</time></trkpt><trkpt lat="44.63339275825752" lon="8.159747308668031"><ele>475.00000000000006</ele><time>2026-04-11T15:24:31Z</time></trkpt><trkpt lat="44.633328259362266" lon="8.159801902568018"><ele>475.0</ele><time>2026-04-11T15:24:33Z</time></trkpt><trkpt lat="44.63324863506315" lon="8.159883806616595"><ele>475.0</ele><time>2026-04-11T15:24:35Z</time></trkpt><trkpt lat="44.633181863792146" lon="8.15989801608911"><ele>475.0</ele><time>2026-04-11T15:24:37Z</time></trkpt><trkpt lat="44.633081651551485" lon="8.15991400031149"><ele>475.00000000000006</ele><time>2026-04-11T15:24:40Z</time></trkpt><trkpt lat="44.63301030956043" lon="8.15991810576915"><ele>475.0</ele><time>2026-04-11T15:24:42Z</time></trkpt><trkpt lat="44.632922838426545" lon="8.159912347009959"><ele>471.83333333333337</ele><time>2026-04-11T15:24:44Z</time></trkpt><trkpt lat="44.63285211612307" lon="8.159949383810426"><ele>468.6666666666667</ele><time>2026-04-11T15:24:46Z</time></trkpt><trkpt lat="44.63279423908032" lon="8.160070107969412"><ele>465.5</ele><time>2026-04-11T15:24:49Z</time></trkpt><trkpt lat="44.63274381803255" lon="8.1601336382668"><ele>462.33333333333337</ele><time>2026-04-11T15:24:57Z</time></trkpt><trkpt lat="44.63264909469597" lon="8.160160298925213"><ele>459.1666666666667</ele><time>2026-04-11T15:24:59Z</time></trkpt><trkpt lat="44.63258807960867" lon="8.160261615277685"><ele>456.0</ele><time>2026-04-11T15:25:01Z</time></trkpt><trkpt lat="44.63253796828004" lon="8.16031580069819"><ele>456.0</ele><time>2026-04-11T15:25:02Z</time></trkpt><trkpt lat="44.6324829486846" lon="8.16039364676348"><ele>456.0</ele><time>2026-04-11T15:25:03Z</time></trkpt><trkpt lat="44.632427557160156" lon="8.160439034661952"><ele>456.0</ele><time>2026-04-11T15:25:04Z</time></trkpt><trkpt lat="44.63235963312147" lon="8.160483958819004"><ele>456.0</ele><time>2026-04-11T15:25:06Z</time></trkpt><trkpt lat="44.632269118870404" lon="8.160462939605234"><ele>456.0</ele><time>2026-04-11T15:25:09Z</time></trkpt><trkpt lat="44.6322272519176" lon="8.1603797354343"><ele>456.0</ele><time>2026-04-11T15:25:11Z</time></trkpt><trkpt lat="44.63216898073688" lon="8.160261170199446"><ele>456.0</ele><time>2026-04-11T15:25:14Z</time></trkpt><trkpt lat="44.632097704077836" lon="8.160149804723783"><ele>456.0</ele><time>2026-04-11T15:25:16Z</time></trkpt><trkpt lat="44.63203502651124" lon="8.160110724383328"><ele>456.0</ele><time>2026-04-11T15:25:17Z</time></trkpt><trkpt lat="44.63195794596939" lon="8.160060752660021"><ele>456.0</ele><time>2026-04-11T15:25:18Z</time></trkpt><trkpt lat="44.631865342162946" lon="8.160020825059698"><ele>456.0</ele><time>2026-04-11T15:25:19Z</time></trkpt><trkpt lat="44.631799008297776" lon="8.16000211672577"><ele>456.0</ele><time>2026-04-11T15:25:20Z</time></trkpt><trkpt lat="44.63173389245985" lon="8.159960117027026"><ele>454.5</ele><time>2026-04-11T15:25:21Z</time></trkpt><trkpt lat="44.631664339389154" lon="8.159908602767686"><ele>453.0</ele><time>2026-04-11T15:25:22Z</time></trkpt><trkpt lat="44.63158617340917" lon="8.15986096142917"><ele>451.5</ele><time>2026-04-11T15:25:24Z</time></trkpt><trkpt lat="44.63155996722766" lon="8.159753798534355"><ele>450.0</ele><time>2026-04-11T15:25:27.001Z</time></trkpt><trkpt lat="44.631576922563205" lon="8.15964403477061"><ele>448.5</ele><time>2026-04-11T15:25:29.001Z</time></trkpt><trkpt lat="44.63160394020788" lon="8.15951587815338"><ele>447.0</ele><time>2026-04-11T15:25:31.001Z</time></trkpt><trkpt lat="44.63160581304031" lon="8.159422003337493"><ele>447.0</ele><time>2026-04-11T15:25:33.001Z</time></trkpt><trkpt lat="44.63161487825645" lon="8.159334090993658"><ele>447.0</ele><time>2026-04-11T15:25:35.001Z</time></trkpt><trkpt lat="44.63165968486217" lon="8.159247709569856"><ele>447.0</ele><time>2026-04-11T15:25:37.001Z</time></trkpt><trkpt lat="44.63170930539341" lon="8.159140406302756"><ele>447.0</ele><time>2026-04-11T15:25:39.001Z</time></trkpt><trkpt lat="44.63176441866563" lon="8.15903719905054"><ele>447.0</ele><time>2026-04-11T15:25:41.001Z</time></trkpt><trkpt lat="44.63179354941255" lon="8.158948716527558"><ele>447.0</ele><time>2026-04-11T15:25:43.001Z</time></trkpt><trkpt lat="44.63180224587883" lon="8.15885245955437"><ele>446.6666666666667</ele><time>2026-04-11T15:25:45.001Z</time></trkpt><trkpt lat="44.63179840972462" lon="8.15870602886076"><ele>446.33333333333337</ele><time>2026-04-11T15:25:47.001Z</time></trkpt><trkpt lat="44.63175747440384" lon="8.158629710399506"><ele>446.0</ele><time>2026-04-11T15:25:48.001Z</time></trkpt><trkpt lat="44.63170495084639" lon="8.158545028797239"><ele>445.6666666666667</ele><time>2026-04-11T15:25:50.001Z</time></trkpt><trkpt lat="44.63170691053185" lon="8.158449227243825"><ele>445.33333333333337</ele><time>2026-04-11T15:25:52.001Z</time></trkpt><trkpt lat="44.63172548953031" lon="8.1583426114077"><ele>445.0</ele><time>2026-04-11T15:25:54.001Z</time></trkpt><trkpt lat="44.631718435151036" lon="8.158464123794264"><ele>445.0</ele><time>2026-04-11T15:26:56Z</time></trkpt><trkpt lat="44.6317479578626" lon="8.158548781299336"><ele>445.0</ele><time>2026-04-11T15:26:57Z</time></trkpt><trkpt lat="44.63178448328009" lon="8.158644312453157"><ele>445.0</ele><time>2026-04-11T15:26:58Z</time></trkpt><trkpt lat="44.63181942598286" lon="8.158789044067568"><ele>445.0</ele><time>2026-04-11T15:27:00Z</time></trkpt><trkpt lat="44.63177879220762" lon="8.158962581912405"><ele>445.0</ele><time>2026-04-11T15:27:02Z</time></trkpt><trkpt lat="44.63175023572917" lon="8.159048240003399"><ele>445.4</ele><time>2026-04-11T15:27:03Z</time></trkpt><trkpt lat="44.63169926191069" lon="8.159128122341189"><ele>445.8</ele><time>2026-04-11T15:27:04Z</time></trkpt><trkpt lat="44.63164979532807" lon="8.159247006987535"><ele>446.20000000000005</ele><time>2026-04-11T15:27:06Z</time></trkpt><trkpt lat="44.63162589584677" lon="8.15936328412327"><ele>446.6</ele><time>2026-04-11T15:27:08Z</time></trkpt><trkpt lat="44.63162676462682" lon="8.159494753633371"><ele>447.0</ele><time>2026-04-11T15:27:10Z</time></trkpt><trkpt lat="44.63160613679311" lon="8.159629736273438"><ele>447.0</ele><time>2026-04-11T15:27:12Z</time></trkpt><trkpt lat="44.63160435166775" lon="8.1597676273636"><ele>447.00000000000006</ele><time>2026-04-11T15:27:15Z</time></trkpt><trkpt lat="44.63169034293194" lon="8.159860564700692"><ele>447.00000000000006</ele><time>2026-04-11T15:27:17Z</time></trkpt><trkpt lat="44.631768785295066" lon="8.159897891674875"><ele>447.0</ele><time>2026-04-11T15:27:18Z</time></trkpt><trkpt lat="44.631876861137926" lon="8.159946381782493"><ele>447.0</ele><time>2026-04-11T15:27:19Z</time></trkpt><trkpt lat="44.63199265791369" lon="8.1600046299988"><ele>448.5</ele><time>2026-04-11T15:27:20Z</time></trkpt><trkpt lat="44.63207110512852" lon="8.160056250465933"><ele>450.0</ele><time>2026-04-11T15:27:21Z</time></trkpt><trkpt lat="44.63214908353024" lon="8.160152075683069"><ele>451.5</ele><time>2026-04-11T15:27:23Z</time></trkpt><trkpt lat="44.63219130304388" lon="8.16024353227972"><ele>453.0</ele><time>2026-04-11T15:27:24Z</time></trkpt><trkpt lat="44.63223052476414" lon="8.160347705603927"><ele>454.5</ele><time>2026-04-11T15:27:25Z</time></trkpt><trkpt lat="44.63225999465536" lon="8.160430660501577"><ele>456.0</ele><time>2026-04-11T15:27:26Z</time></trkpt><trkpt lat="44.632323987662524" lon="8.160495926824792"><ele>456.0</ele><time>2026-04-11T15:27:28Z</time></trkpt><trkpt lat="44.63241313508876" lon="8.160410612851052"><ele>456.0</ele><time>2026-04-11T15:27:30Z</time></trkpt><trkpt lat="44.632477429016156" lon="8.160329024722289"><ele>456.0</ele><time>2026-04-11T15:27:31Z</time></trkpt><trkpt lat="44.632539570455016" lon="8.160217748408483"><ele>456.0</ele><time>2026-04-11T15:27:32Z</time></trkpt><trkpt lat="44.632587406466676" lon="8.16014264658925"><ele>456.0</ele><time>2026-04-11T15:27:33.001Z</time></trkpt><trkpt lat="44.632679858296555" lon="8.160079329386129"><ele>456.0</ele><time>2026-04-11T15:27:36.001Z</time></trkpt><trkpt lat="44.632668878278025" lon="8.160189884376514"><ele>456.0</ele><time>2026-04-11T15:27:40.001Z</time></trkpt><trkpt lat="44.63260672240857" lon="8.160254323299357"><ele>456.0</ele><time>2026-04-11T15:27:41.001Z</time></trkpt><trkpt lat="44.63253782874385" lon="8.160335298525847"><ele>456.0</ele><time>2026-04-11T15:27:42.001Z</time></trkpt><trkpt lat="44.632503063056085" lon="8.1604286196349"><ele>456.0</ele><time>2026-04-11T15:27:43.001Z</time></trkpt><trkpt lat="44.63247321172481" lon="8.160512732546659"><ele>456.0</ele><time>2026-04-11T15:27:44.001Z</time></trkpt><trkpt lat="44.63243735969622" lon="8.160616417001124"><ele>451.85714285714283</ele><time>2026-04-11T15:27:45.001Z</time></trkpt><trkpt lat="44.63240020975275" lon="8.16071550898222"><ele>447.71428571428567</ele><time>2026-04-11T15:27:46.001Z</time></trkpt><trkpt lat="44.63235587037036" lon="8.160799249102146"><ele>443.57142857142856</ele><time>2026-04-11T15:27:47.001Z</time></trkpt><trkpt lat="44.6323091527098" lon="8.160880532491522"><ele>439.42857142857144</ele><time>2026-04-11T15:27:48.001Z</time></trkpt><trkpt lat="44.63225494033391" lon="8.160928997415184"><ele>435.2857142857143</ele><time>2026-04-11T15:27:49.001Z</time></trkpt><trkpt lat="44.632194130135126" lon="8.16097131006017"><ele>431.1428571428571</ele><time>2026-04-11T15:27:50.001Z</time></trkpt><trkpt lat="44.632112945956194" lon="8.160983667422416"><ele>427.0</ele><time>2026-04-11T15:27:52.001Z</time></trkpt><trkpt lat="44.632049364157474" lon="8.16086613874405"><ele>427.00000000000006</ele><time>2026-04-11T15:27:54.001Z</time></trkpt><trkpt lat="44.63202321610266" lon="8.160775157548745"><ele>427.0</ele><time>2026-04-11T15:27:55.001Z</time></trkpt><trkpt lat="44.63198615723753" lon="8.1606594181138"><ele>427.0</ele><time>2026-04-11T15:27:56.001Z</time></trkpt><trkpt lat="44.631947300866706" lon="8.160568005523867"><ele>427.0</ele><time>2026-04-11T15:27:57.001Z</time></trkpt><trkpt lat="44.63185386325202" lon="8.160472850202417"><ele>427.00000000000006</ele><time>2026-04-11T15:27:59.001Z</time></trkpt><trkpt lat="44.63179123081818" lon="8.160431431567282"><ele>427.0</ele><time>2026-04-11T15:28:00.001Z</time></trkpt><trkpt lat="44.631698168970324" lon="8.160390015326792"><ele>429.0</ele><time>2026-04-11T15:28:01.001Z</time></trkpt><trkpt lat="44.631598755061425" lon="8.160340250591501"><ele>431.00000000000006</ele><time>2026-04-11T15:28:02.001Z</time></trkpt><trkpt lat="44.631497071771555" lon="8.16029698612793"><ele>433.00000000000006</ele><time>2026-04-11T15:28:03.001Z</time></trkpt><trkpt lat="44.63139946956502" lon="8.160268905520962"><ele>435.0</ele><time>2026-04-11T15:28:04.001Z</time></trkpt><trkpt lat="44.631304923915415" lon="8.160236935567214"><ele>437.0</ele><time>2026-04-11T15:28:05.001Z</time></trkpt><trkpt lat="44.6312275736719" lon="8.160214126005084"><ele>437.0</ele><time>2026-04-11T15:28:06.001Z</time></trkpt><trkpt lat="44.63115339048052" lon="8.160223236721334"><ele>437.0</ele><time>2026-04-11T15:28:07.001Z</time></trkpt><trkpt lat="44.631086409826246" lon="8.160224116157048"><ele>437.0</ele><time>2026-04-11T15:28:08.001Z</time></trkpt><trkpt lat="44.63102344998514" lon="8.160209017512434"><ele>437.0</ele><time>2026-04-11T15:28:09.001Z</time></trkpt><trkpt lat="44.63093987572155" lon="8.16012554166645"><ele>437.0</ele><time>2026-04-11T15:28:11.001Z</time></trkpt><trkpt lat="44.63091355385827" lon="8.16003874755029"><ele>437.0</ele><time>2026-04-11T15:28:12.001Z</time></trkpt><trkpt lat="44.6308974747818" lon="8.159949384910606"><ele>437.0</ele><time>2026-04-11T15:28:13.001Z</time></trkpt><trkpt lat="44.63088587969272" lon="8.159854441159998"><ele>429.99999999999994</ele><time>2026-04-11T15:28:14.001Z</time></trkpt><trkpt lat="44.63088255530622" lon="8.159740220566317"><ele>423.0</ele><time>2026-04-11T15:28:15.001Z</time></trkpt><trkpt lat="44.63089678500903" lon="8.159631941169046"><ele>416.0</ele><time>2026-04-11T15:28:16.001Z</time></trkpt><trkpt lat="44.63090970200242" lon="8.159516060796623"><ele>409.0</ele><time>2026-04-11T15:28:17.001Z</time></trkpt><trkpt lat="44.63092253476689" lon="8.159427419397451"><ele>401.99999999999994</ele><time>2026-04-11T15:28:18.001Z</time></trkpt><trkpt lat="44.630910462618914" lon="8.159323657097481"><ele>395.0</ele><time>2026-04-11T15:28:20.001Z</time></trkpt><trkpt lat="44.6308788519913" lon="8.159198763475972"><ele>394.99999999999994</ele><time>2026-04-11T15:28:22.001Z</time></trkpt><trkpt lat="44.63086689193099" lon="8.159072200732991"><ele>395.0</ele><time>2026-04-11T15:28:23.001Z</time></trkpt><trkpt lat="44.63084785759638" lon="8.158949501855908"><ele>395.0</ele><time>2026-04-11T15:28:24.001Z</time></trkpt><trkpt lat="44.63082871941596" lon="8.158824587524839"><ele>395.0</ele><time>2026-04-11T15:28:25Z</time></trkpt><trkpt lat="44.63080301519458" lon="8.158721005616563"><ele>394.99999999999994</ele><time>2026-04-11T15:28:26Z</time></trkpt><trkpt lat="44.63075423623002" lon="8.158630857800473"><ele>395.0</ele><time>2026-04-11T15:28:28Z</time></trkpt><trkpt lat="44.63067561672754" lon="8.158636154162137"><ele>393.75</ele><time>2026-04-11T15:28:37Z</time></trkpt><trkpt lat="44.63053861537584" lon="8.158692924485768"><ele>392.5</ele><time>2026-04-11T15:28:39Z</time></trkpt><trkpt lat="44.63043594796626" lon="8.158751153705694"><ele>391.25</ele><time>2026-04-11T15:28:40Z</time></trkpt><trkpt lat="44.63034050609626" lon="8.158797401232551"><ele>390.0</ele><time>2026-04-11T15:28:41Z</time></trkpt><trkpt lat="44.63025397953432" lon="8.158853916985334"><ele>390.0</ele><time>2026-04-11T15:28:42Z</time></trkpt><trkpt lat="44.63015885951226" lon="8.158902158182357"><ele>390.0</ele><time>2026-04-11T15:28:43Z</time></trkpt><trkpt lat="44.630065067623434" lon="8.158933274603017"><ele>390.0</ele><time>2026-04-11T15:28:44Z</time></trkpt><trkpt lat="44.62996855736494" lon="8.158943277246768"><ele>390.0</ele><time>2026-04-11T15:28:45Z</time></trkpt><trkpt lat="44.629874271501784" lon="8.158926026111992"><ele>390.0</ele><time>2026-04-11T15:28:46Z</time></trkpt><trkpt lat="44.62979525011772" lon="8.158892555459039"><ele>390.0</ele><time>2026-04-11T15:28:47Z</time></trkpt><trkpt lat="44.629723104883" lon="8.158844646368333"><ele>390.0</ele><time>2026-04-11T15:28:48Z</time></trkpt><trkpt lat="44.62965239173242" lon="8.158792212036285"><ele>390.0</ele><time>2026-04-11T15:28:49Z</time></trkpt><trkpt lat="44.62958548558669" lon="8.158739207664157"><ele>390.0</ele><time>2026-04-11T15:28:50Z</time></trkpt><trkpt lat="44.62952410383189" lon="8.158703258013656"><ele>390.0</ele><time>2026-04-11T15:28:51Z</time></trkpt><trkpt lat="44.62944925501633" lon="8.158659284251792"><ele>390.0</ele><time>2026-04-11T15:28:53Z</time></trkpt><trkpt lat="44.62939211778126" lon="8.158611784111535"><ele>385.1666666666667</ele><time>2026-04-11T15:28:55Z</time></trkpt><trkpt lat="44.629318484370266" lon="8.158543071798297"><ele>380.3333333333333</ele><time>2026-04-11T15:28:58Z</time></trkpt><trkpt lat="44.62930277900894" lon="8.158659892362015"><ele>375.5</ele><time>2026-04-11T15:29:01Z</time></trkpt><trkpt lat="44.629339636653846" lon="8.158748562741485"><ele>370.66666666666663</ele><time>2026-04-11T15:29:02Z</time></trkpt><trkpt lat="44.6292478578531" lon="8.158769280961465"><ele>365.8333333333333</ele><time>2026-04-11T15:29:06Z</time></trkpt><trkpt lat="44.62919425649399" lon="8.158685069083766"><ele>361.0</ele><time>2026-04-11T15:29:07Z</time></trkpt><trkpt lat="44.629171756493434" lon="8.158598731520163"><ele>361.0</ele><time>2026-04-11T15:29:08Z</time></trkpt><trkpt lat="44.62919624538099" lon="8.15842793263728"><ele>361.0</ele><time>2026-04-11T15:29:10Z</time></trkpt><trkpt lat="44.62923028067661" lon="8.158351239253031"><ele>361.0</ele><time>2026-04-11T15:29:11Z</time></trkpt><trkpt lat="44.629255198590265" lon="8.158194460231288"><ele>361.0</ele><time>2026-04-11T15:29:13Z</time></trkpt><trkpt lat="44.62930169196446" lon="8.158054151690482"><ele>361.0</ele><time>2026-04-11T15:29:15Z</time></trkpt><trkpt lat="44.62933013672461" lon="8.15797327956068"><ele>363.5</ele><time>2026-04-11T15:29:17Z</time></trkpt><trkpt lat="44.62931064709141" lon="8.157854998880875"><ele>366.0</ele><time>2026-04-11T15:29:25Z</time></trkpt><trkpt lat="44.62925427098989" lon="8.157753985967695"><ele>368.5</ele><time>2026-04-11T15:29:27Z</time></trkpt><trkpt lat="44.62919135264655" lon="8.157729639018562"><ele>371.0</ele><time>2026-04-11T15:29:28Z</time></trkpt><trkpt lat="44.62911726651661" lon="8.157715734453161"><ele>373.5</ele><time>2026-04-11T15:29:29Z</time></trkpt><trkpt lat="44.6290397658779" lon="8.157718157442162"><ele>376.0</ele><time>2026-04-11T15:29:30Z</time></trkpt><trkpt lat="44.62894998054736" lon="8.157723350868732"><ele>376.0</ele><time>2026-04-11T15:29:31Z</time></trkpt><trkpt lat="44.62883434699877" lon="8.157732732615335"><ele>376.0</ele><time>2026-04-11T15:29:32Z</time></trkpt><trkpt lat="44.62872483294536" lon="8.157731834686471"><ele>376.0</ele><time>2026-04-11T15:29:33Z</time></trkpt><trkpt lat="44.62865725616192" lon="8.15770200328862"><ele>376.0</ele><time>2026-04-11T15:29:35Z</time></trkpt><trkpt lat="44.62856783760296" lon="8.157664774574812"><ele>376.0</ele><time>2026-04-11T15:29:41.001Z</time></trkpt><trkpt lat="44.6285153254096" lon="8.157584575089771"><ele>375.5</ele><time>2026-04-11T15:29:43.001Z</time></trkpt><trkpt lat="44.62841443062832" lon="8.157516942136093"><ele>375.0</ele><time>2026-04-11T15:29:45.001Z</time></trkpt><trkpt lat="44.62834876091687" lon="8.157470181537988"><ele>374.5</ele><time>2026-04-11T15:29:46.001Z</time></trkpt><trkpt lat="44.62829038887011" lon="8.157421299478612"><ele>374.0</ele><time>2026-04-11T15:29:47.001Z</time></trkpt><trkpt lat="44.62823099028718" lon="8.15737445899517"><ele>373.5</ele><time>2026-04-11T15:29:48.001Z</time></trkpt><trkpt lat="44.62816860185831" lon="8.157321529765877"><ele>373.0</ele><time>2026-04-11T15:29:49.001Z</time></trkpt><trkpt lat="44.628100742972144" lon="8.157275899750648"><ele>376.2</ele><time>2026-04-11T15:29:50.001Z</time></trkpt><trkpt lat="44.62802965951542" lon="8.157223756317808"><ele>379.4</ele><time>2026-04-11T15:29:51.001Z</time></trkpt><trkpt lat="44.627941308691454" lon="8.15718709954663"><ele>382.59999999999997</ele><time>2026-04-11T15:29:52.001Z</time></trkpt><trkpt lat="44.62786634904261" lon="8.157146523361742"><ele>385.79999999999995</ele><time>2026-04-11T15:29:53.001Z</time></trkpt><trkpt lat="44.62779962605801" lon="8.15710948117821"><ele>389.0</ele><time>2026-04-11T15:29:54.001Z</time></trkpt><trkpt lat="44.6276824167828" lon="8.157026729142403"><ele>389.0</ele><time>2026-04-11T15:29:56.001Z</time></trkpt><trkpt lat="44.627630663192186" lon="8.15696581833783"><ele>389.0</ele><time>2026-04-11T15:29:57.001Z</time></trkpt><trkpt lat="44.62758116671234" lon="8.156902635348072"><ele>389.0</ele><time>2026-04-11T15:29:58.001Z</time></trkpt><trkpt lat="44.62752771612938" lon="8.156845710694533"><ele>389.0</ele><time>2026-04-11T15:29:59.001Z</time></trkpt><trkpt lat="44.62744261558753" lon="8.156756749873201"><ele>389.0</ele><time>2026-04-11T15:30:01.001Z</time></trkpt><trkpt lat="44.62757877702595" lon="8.156891101058612"><ele>389.0</ele><time>2026-04-11T15:30:13.001Z</time></trkpt><trkpt lat="44.627672627788336" lon="8.157003246572893"><ele>389.0</ele><time>2026-04-11T15:30:14.001Z</time></trkpt><trkpt lat="44.627743334836076" lon="8.157076621629878"><ele>389.0</ele><time>2026-04-11T15:30:15.001Z</time></trkpt><trkpt lat="44.62782827009009" lon="8.157126804577103"><ele>389.0</ele><time>2026-04-11T15:30:16.001Z</time></trkpt><trkpt lat="44.62795142980782" lon="8.157173489376854"><ele>389.0</ele><time>2026-04-11T15:30:17.001Z</time></trkpt><trkpt lat="44.628056203388205" lon="8.157233922608233"><ele>385.79999999999995</ele><time>2026-04-11T15:30:18.001Z</time></trkpt><trkpt lat="44.628153240823444" lon="8.157304322892912"><ele>382.59999999999997</ele><time>2026-04-11T15:30:19.001Z</time></trkpt><trkpt lat="44.62824707430389" lon="8.157378496899405"><ele>379.4</ele><time>2026-04-11T15:30:20.001Z</time></trkpt><trkpt lat="44.62833753834636" lon="8.157461906812067"><ele>376.2</ele><time>2026-04-11T15:30:21.001Z</time></trkpt><trkpt lat="44.62843002877616" lon="8.157535212111052"><ele>373.0</ele><time>2026-04-11T15:30:22.001Z</time></trkpt><trkpt lat="44.62852212055966" lon="8.15760259793352"><ele>373.0</ele><time>2026-04-11T15:30:23.001Z</time></trkpt><trkpt lat="44.62860217713035" lon="8.15766844595986"><ele>373.0</ele><time>2026-04-11T15:30:24.001Z</time></trkpt><trkpt lat="44.62866782003417" lon="8.15772154014682"><ele>373.0</ele><time>2026-04-11T15:30:25.001Z</time></trkpt><trkpt lat="44.62873923038993" lon="8.15774513991183"><ele>373.0</ele><time>2026-04-11T15:30:26.001Z</time></trkpt><trkpt lat="44.628832438675836" lon="8.157728545840524"><ele>373.0</ele><time>2026-04-11T15:30:27.001Z</time></trkpt><trkpt lat="44.628937209351285" lon="8.157720929312793"><ele>373.0</ele><time>2026-04-11T15:30:28.001Z</time></trkpt><trkpt lat="44.62903577675754" lon="8.157713742276023"><ele>373.5</ele><time>2026-04-11T15:30:29.001Z</time></trkpt><trkpt lat="44.62911882522109" lon="8.157700991871256"><ele>374.0</ele><time>2026-04-11T15:30:30.001Z</time></trkpt><trkpt lat="44.629241369874386" lon="8.157716811130634"><ele>374.5</ele><time>2026-04-11T15:30:32Z</time></trkpt><trkpt lat="44.62930913593816" lon="8.157758007679993"><ele>375.0</ele><time>2026-04-11T15:30:34Z</time></trkpt><trkpt lat="44.62932228819925" lon="8.157855213101941"><ele>375.5</ele><time>2026-04-11T15:30:36Z</time></trkpt><trkpt lat="44.629259515792306" lon="8.157914179581553"><ele>376.0</ele><time>2026-04-11T15:30:38Z</time></trkpt><trkpt lat="44.629192642680096" lon="8.15793242912136"><ele>376.0</ele><time>2026-04-11T15:30:40Z</time></trkpt><trkpt lat="44.62916816102638" lon="8.158015495672212"><ele>376.0</ele><time>2026-04-11T15:30:59Z</time></trkpt><trkpt lat="44.62908285062899" lon="8.158092963799655"><ele>376.0</ele><time>2026-04-11T15:31:01Z</time></trkpt><trkpt lat="44.62902534137425" lon="8.15814896812905"><ele>376.0</ele><time>2026-04-11T15:31:02Z</time></trkpt><trkpt lat="44.62895761387817" lon="8.158205962432367"><ele>376.0</ele><time>2026-04-11T15:31:03Z</time></trkpt><trkpt lat="44.62886984454269" lon="8.158274067942626"><ele>376.0</ele><time>2026-04-11T15:31:04Z</time></trkpt><trkpt lat="44.62877972113685" lon="8.158318651330342"><ele>373.5</ele><time>2026-04-11T15:31:05Z</time></trkpt><trkpt lat="44.62869740636665" lon="8.158349916270426"><ele>371.0</ele><time>2026-04-11T15:31:06Z</time></trkpt><trkpt lat="44.628623609435174" lon="8.158369964612664"><ele>368.5</ele><time>2026-04-11T15:31:07Z</time></trkpt><trkpt lat="44.62856235567622" lon="8.158394875693988"><ele>366.0</ele><time>2026-04-11T15:31:08Z</time></trkpt><trkpt lat="44.62850416068331" lon="8.158431385612081"><ele>363.5</ele><time>2026-04-11T15:31:09Z</time></trkpt><trkpt lat="44.62841712509937" lon="8.158541316971037"><ele>361.0</ele><time>2026-04-11T15:31:11Z</time></trkpt><trkpt lat="44.62833248962682" lon="8.158651844024638"><ele>359.42857142857144</ele><time>2026-04-11T15:31:13Z</time></trkpt><trkpt lat="44.628282221476525" lon="8.158707865023652"><ele>357.85714285714283</ele><time>2026-04-11T15:31:14Z</time></trkpt><trkpt lat="44.62822203243344" lon="8.158770563460742"><ele>356.2857142857143</ele><time>2026-04-11T15:31:15Z</time></trkpt><trkpt lat="44.6281608528777" lon="8.158824348766847"><ele>354.7142857142857</ele><time>2026-04-11T15:31:16Z</time></trkpt><trkpt lat="44.62809489431628" lon="8.158872151774156"><ele>353.1428571428571</ele><time>2026-04-11T15:31:17Z</time></trkpt><trkpt lat="44.62802829389896" lon="8.158919499274894"><ele>351.57142857142856</ele><time>2026-04-11T15:31:18Z</time></trkpt><trkpt lat="44.627961670064195" lon="8.158968088363627"><ele>350.0</ele><time>2026-04-11T15:31:19Z</time></trkpt><trkpt lat="44.62789137744799" lon="8.159011013273217"><ele>347.5</ele><time>2026-04-11T15:31:20Z</time></trkpt><trkpt lat="44.62781956118391" lon="8.159052542286243"><ele>345.0</ele><time>2026-04-11T15:31:21Z</time></trkpt><trkpt lat="44.62774609532793" lon="8.159095611202508"><ele>342.5</ele><time>2026-04-11T15:31:22Z</time></trkpt><trkpt lat="44.627674210537364" lon="8.159131866494683"><ele>340.0</ele><time>2026-04-11T15:31:23Z</time></trkpt><trkpt lat="44.627600488195434" lon="8.159138967276927"><ele>337.5</ele><time>2026-04-11T15:31:24Z</time></trkpt><trkpt lat="44.627520402506455" lon="8.15910501332589"><ele>335.0</ele><time>2026-04-11T15:31:25Z</time></trkpt><trkpt lat="44.627440900121286" lon="8.15903463946625"><ele>335.25</ele><time>2026-04-11T15:31:26Z</time></trkpt><trkpt lat="44.627352373736215" lon="8.158915954358669"><ele>335.5</ele><time>2026-04-11T15:31:27Z</time></trkpt><trkpt lat="44.627269099771006" lon="8.158787774911822"><ele>335.75</ele><time>2026-04-11T15:31:28Z</time></trkpt><trkpt lat="44.62718780354514" lon="8.158671627424312"><ele>336.0</ele><time>2026-04-11T15:31:29Z</time></trkpt><trkpt lat="44.627104638080965" lon="8.158562450417739"><ele>336.0</ele><time>2026-04-11T15:31:30Z</time></trkpt><trkpt lat="44.627010472111245" lon="8.158435324550767"><ele>336.0</ele><time>2026-04-11T15:31:31Z</time></trkpt><trkpt lat="44.62691300873142" lon="8.15829646905552"><ele>336.0</ele><time>2026-04-11T15:31:32Z</time></trkpt><trkpt lat="44.626814778" lon="8.158156417972586"><ele>336.0</ele><time>2026-04-11T15:31:33Z</time></trkpt><trkpt lat="44.62672119555766" lon="8.158033290160672"><ele>335.5</ele><time>2026-04-11T15:31:34Z</time></trkpt><trkpt lat="44.62663123708643" lon="8.157917709257907"><ele>335.0</ele><time>2026-04-11T15:31:35Z</time></trkpt><trkpt lat="44.62654559916102" lon="8.157813826842306"><ele>334.5</ele><time>2026-04-11T15:31:36Z</time></trkpt><trkpt lat="44.626457804558484" lon="8.157721729169266"><ele>334.0</ele><time>2026-04-11T15:31:37Z</time></trkpt><trkpt lat="44.62636578372738" lon="8.157638438748235"><ele>334.0</ele><time>2026-04-11T15:31:38Z</time></trkpt><trkpt lat="44.62626969719164" lon="8.157555863004417"><ele>334.0</ele><time>2026-04-11T15:31:39Z</time></trkpt><trkpt lat="44.62617261847971" lon="8.157503583414073"><ele>334.0</ele><time>2026-04-11T15:31:40Z</time></trkpt><trkpt lat="44.626078436847145" lon="8.157444505907012"><ele>334.0</ele><time>2026-04-11T15:31:41Z</time></trkpt><trkpt lat="44.62597319289211" lon="8.157391839445545"><ele>334.0</ele><time>2026-04-11T15:31:42Z</time></trkpt><trkpt lat="44.625870531192355" lon="8.157344131592735"><ele>334.6</ele><time>2026-04-11T15:31:43Z</time></trkpt><trkpt lat="44.62577201796246" lon="8.15729671534957"><ele>335.2</ele><time>2026-04-11T15:31:44Z</time></trkpt><trkpt lat="44.625672689015325" lon="8.157253538047328"><ele>335.8</ele><time>2026-04-11T15:31:45Z</time></trkpt><trkpt lat="44.62558604803892" lon="8.157194397253342"><ele>336.40000000000003</ele><time>2026-04-11T15:31:46Z</time></trkpt><trkpt lat="44.625518461936636" lon="8.15714587864833"><ele>337.0</ele><time>2026-04-11T15:31:47Z</time></trkpt><trkpt lat="44.62545870405968" lon="8.157096042671546"><ele>337.0</ele><time>2026-04-11T15:31:48Z</time></trkpt><trkpt lat="44.625366319639284" lon="8.157015423656743"><ele>337.0</ele><time>2026-04-11T15:31:50Z</time></trkpt><trkpt lat="44.625281815621655" lon="8.156918593643057"><ele>337.0</ele><time>2026-04-11T15:31:52Z</time></trkpt><trkpt lat="44.62522867733301" lon="8.156853504035137"><ele>337.0</ele><time>2026-04-11T15:31:53Z</time></trkpt><trkpt lat="44.625176131980524" lon="8.156777465969148"><ele>337.0</ele><time>2026-04-11T15:31:54.001Z</time></trkpt><trkpt lat="44.62511277196189" lon="8.156714790273798"><ele>337.0</ele><time>2026-04-11T15:31:55.001Z</time></trkpt><trkpt lat="44.6250397818257" lon="8.156664762235629"><ele>332.0</ele><time>2026-04-11T15:31:56.001Z</time></trkpt><trkpt lat="44.624974506755024" lon="8.156632379284039"><ele>327.0</ele><time>2026-04-11T15:31:57.001Z</time></trkpt><trkpt lat="44.62490624319169" lon="8.156607071285574"><ele>322.0</ele><time>2026-04-11T15:31:59.001Z</time></trkpt><trkpt lat="44.624841220953904" lon="8.1566604163705"><ele>317.0</ele><time>2026-04-11T15:32:29.001Z</time></trkpt><trkpt lat="44.62471254584714" lon="8.15653201050219"><ele>312.0</ele><time>2026-04-11T15:32:31.001Z</time></trkpt><trkpt lat="44.62464153901291" lon="8.156418893714807"><ele>312.0</ele><time>2026-04-11T15:32:32.001Z</time></trkpt><trkpt lat="44.624535241696776" lon="8.156285206237325"><ele>312.0</ele><time>2026-04-11T15:32:33.001Z</time></trkpt><trkpt lat="44.62441804075003" lon="8.156140245016394"><ele>312.0</ele><time>2026-04-11T15:32:34.001Z</time></trkpt><trkpt lat="44.62428216262169" lon="8.155977861844267"><ele>311.3333333333333</ele><time>2026-04-11T15:32:35.001Z</time></trkpt><trkpt lat="44.62413327857208" lon="8.155830361757328"><ele>310.66666666666663</ele><time>2026-04-11T15:32:36.001Z</time></trkpt><trkpt lat="44.62396395834967" lon="8.155689336418943"><ele>310.0</ele><time>2026-04-11T15:32:37Z</time></trkpt><trkpt lat="44.62379168991866" lon="8.155550935310837"><ele>316.0</ele><time>2026-04-11T15:32:38Z</time></trkpt><trkpt lat="44.623611933590254" lon="8.15541115548823"><ele>322.0</ele><time>2026-04-11T15:32:39Z</time></trkpt><trkpt lat="44.623422736783084" lon="8.155273754926357"><ele>328.0</ele><time>2026-04-11T15:32:40Z</time></trkpt><trkpt lat="44.62323503328264" lon="8.155138933216731"><ele>328.0</ele><time>2026-04-11T15:32:41Z</time></trkpt><trkpt lat="44.62304698706305" lon="8.155015934595294"><ele>328.0</ele><time>2026-04-11T15:32:42Z</time></trkpt><trkpt lat="44.62285213032027" lon="8.154911129509784"><ele>328.0</ele><time>2026-04-11T15:32:43Z</time></trkpt><trkpt lat="44.62264176130834" lon="8.15483752737778"><ele>340.0</ele><time>2026-04-11T15:32:44Z</time></trkpt><trkpt lat="44.62241537258464" lon="8.154800904383283"><ele>352.0</ele><time>2026-04-11T15:32:45Z</time></trkpt><trkpt lat="44.622182416412954" lon="8.154778623095906"><ele>341.5</ele><time>2026-04-11T15:32:46Z</time></trkpt><trkpt lat="44.621949385044736" lon="8.154758443623898"><ele>331.0</ele><time>2026-04-11T15:32:47Z</time></trkpt><trkpt lat="44.62171775416115" lon="8.154740349784777"><ele>331.0</ele><time>2026-04-11T15:32:48Z</time></trkpt><trkpt lat="44.62149204612827" lon="8.1547165561136"><ele>331.0</ele><time>2026-04-11T15:32:49Z</time></trkpt><trkpt lat="44.621288244726344" lon="8.15469355411667"><ele>331.0</ele><time>2026-04-11T15:32:50Z</time></trkpt><trkpt lat="44.62110527365212" lon="8.154662919319694"><ele>327.0</ele><time>2026-04-11T15:32:51Z</time></trkpt><trkpt lat="44.62093627127915" lon="8.154640059153785"><ele>323.0</ele><time>2026-04-11T15:32:52Z</time></trkpt><trkpt lat="44.620777580730845" lon="8.154621631648308"><ele>319.0</ele><time>2026-04-11T15:32:53Z</time></trkpt><trkpt lat="44.62062890391501" lon="8.154606657273163"><ele>319.0</ele><time>2026-04-11T15:32:54Z</time></trkpt><trkpt lat="44.62049437893143" lon="8.154587257733679"><ele>319.0</ele><time>2026-04-11T15:32:55Z</time></trkpt><trkpt lat="44.62037180504058" lon="8.154565838542725"><ele>319.0</ele><time>2026-04-11T15:32:56Z</time></trkpt><trkpt lat="44.62025078430171" lon="8.154546870165905"><ele>319.0</ele><time>2026-04-11T15:32:57Z</time></trkpt><trkpt lat="44.620123376028424" lon="8.15452630155055"><ele>316.5</ele><time>2026-04-11T15:32:58Z</time></trkpt><trkpt lat="44.61998931846296" lon="8.154505591763037"><ele>314.0</ele><time>2026-04-11T15:32:59Z</time></trkpt><trkpt lat="44.619855607113486" lon="8.154484078112947"><ele>311.5</ele><time>2026-04-11T15:33:00Z</time></trkpt><trkpt lat="44.619721719689814" lon="8.15446397195942"><ele>309.0</ele><time>2026-04-11T15:33:01Z</time></trkpt><trkpt lat="44.61959112909577" lon="8.15444329813245"><ele>308.0</ele><time>2026-04-11T15:33:02Z</time></trkpt><trkpt lat="44.61945572572308" lon="8.154417122347605"><ele>307.0</ele><time>2026-04-11T15:33:03Z</time></trkpt><trkpt lat="44.619301660858376" lon="8.154386787323846"><ele>306.0</ele><time>2026-04-11T15:33:04Z</time></trkpt><trkpt lat="44.6191299353557" lon="8.15435960816715"><ele>306.0</ele><time>2026-04-11T15:33:05Z</time></trkpt><trkpt lat="44.61894208661137" lon="8.15433261859851"><ele>306.0</ele><time>2026-04-11T15:33:06Z</time></trkpt><trkpt lat="44.61874796768622" lon="8.154302727270416"><ele>306.0</ele><time>2026-04-11T15:33:07Z</time></trkpt><trkpt lat="44.618560714693544" lon="8.154274050240167"><ele>308.0</ele><time>2026-04-11T15:33:08Z</time></trkpt><trkpt lat="44.61837181810584" lon="8.154241038210827"><ele>310.0</ele><time>2026-04-11T15:33:09Z</time></trkpt><trkpt lat="44.618170195658294" lon="8.154209866659002"><ele>312.0</ele><time>2026-04-11T15:33:10Z</time></trkpt><trkpt lat="44.617964025342125" lon="8.154169533448336"><ele>313.0</ele><time>2026-04-11T15:33:11Z</time></trkpt><trkpt lat="44.61776101036152" lon="8.154098497525831"><ele>314.0</ele><time>2026-04-11T15:33:12Z</time></trkpt><trkpt lat="44.61757815807034" lon="8.153965755461076"><ele>315.0</ele><time>2026-04-11T15:33:13Z</time></trkpt><trkpt lat="44.61742213107295" lon="8.153777310270527"><ele>315.0</ele><time>2026-04-11T15:33:14Z</time></trkpt><trkpt lat="44.61726682987632" lon="8.153565314767388"><ele>315.0</ele><time>2026-04-11T15:33:15Z</time></trkpt><trkpt lat="44.61710198988794" lon="8.153356859321558"><ele>315.0</ele><time>2026-04-11T15:33:16Z</time></trkpt><trkpt lat="44.616929325439855" lon="8.15316168730578"><ele>314.0</ele><time>2026-04-11T15:33:17Z</time></trkpt><trkpt lat="44.616754890966234" lon="8.152979830369192"><ele>313.0</ele><time>2026-04-11T15:33:18Z</time></trkpt><trkpt lat="44.61656217645425" lon="8.152824028147268"><ele>312.0</ele><time>2026-04-11T15:33:19Z</time></trkpt><trkpt lat="44.61634586574844" lon="8.152704625951195"><ele>317.5</ele><time>2026-04-11T15:33:20Z</time></trkpt><trkpt lat="44.61612695168455" lon="8.152567276554672"><ele>323.0</ele><time>2026-04-11T15:33:21Z</time></trkpt><trkpt lat="44.61590799875885" lon="8.152441321670098"><ele>319.0</ele><time>2026-04-11T15:33:22Z</time></trkpt><trkpt lat="44.61568599734053" lon="8.152313613109314"><ele>315.0</ele><time>2026-04-11T15:33:23Z</time></trkpt><trkpt lat="44.61546948125204" lon="8.152182622549487"><ele>321.6666666666667</ele><time>2026-04-11T15:33:24Z</time></trkpt><trkpt lat="44.615288208520624" lon="8.152021870491247"><ele>328.33333333333337</ele><time>2026-04-11T15:33:25Z</time></trkpt><trkpt lat="44.615155526057315" lon="8.151820695243277"><ele>335.0</ele><time>2026-04-11T15:33:26Z</time></trkpt><trkpt lat="44.61503832584611" lon="8.15157787059433"><ele>329.5</ele><time>2026-04-11T15:33:27Z</time></trkpt><trkpt lat="44.61491632686384" lon="8.151313793006231"><ele>324.0</ele><time>2026-04-11T15:33:28Z</time></trkpt><trkpt lat="44.614788188795046" lon="8.151036912530058"><ele>324.0</ele><time>2026-04-11T15:33:29Z</time></trkpt><trkpt lat="44.61465773053029" lon="8.150762750401155"><ele>324.0</ele><time>2026-04-11T15:33:30Z</time></trkpt><trkpt lat="44.61454396470301" lon="8.150476221423327"><ele>325.0</ele><time>2026-04-11T15:33:31Z</time></trkpt><trkpt lat="44.61445198808237" lon="8.15016872286376"><ele>326.0</ele><time>2026-04-11T15:33:32Z</time></trkpt><trkpt lat="44.614352550635914" lon="8.149864951290244"><ele>326.0</ele><time>2026-04-11T15:33:33Z</time></trkpt><trkpt lat="44.61423766085014" lon="8.149569583606343"><ele>326.0</ele><time>2026-04-11T15:33:34Z</time></trkpt><trkpt lat="44.61412248403851" lon="8.149275462960171"><ele>322.5</ele><time>2026-04-11T15:33:35Z</time></trkpt><trkpt lat="44.614010571394594" lon="8.14898403740896"><ele>319.0</ele><time>2026-04-11T15:33:36Z</time></trkpt><trkpt lat="44.613900636258265" lon="8.148703497614799"><ele>319.0</ele><time>2026-04-11T15:33:37Z</time></trkpt><trkpt lat="44.61380800774503" lon="8.14847622347836"><ele>319.0</ele><time>2026-04-11T15:33:38Z</time></trkpt><trkpt lat="44.61369715274258" lon="8.14832019908359"><ele>319.0</ele><time>2026-04-11T15:33:39Z</time></trkpt><trkpt lat="44.6135829293737" lon="8.148196507323869"><ele>320.3333333333333</ele><time>2026-04-11T15:33:40Z</time></trkpt><trkpt lat="44.61343017517016" lon="8.148128403681891"><ele>321.6666666666667</ele><time>2026-04-11T15:33:41Z</time></trkpt><trkpt lat="44.613245052793204" lon="8.148097407843778"><ele>323.0</ele><time>2026-04-11T15:33:42Z</time></trkpt><trkpt lat="44.61310334821281" lon="8.148045334723141"><ele>323.0</ele><time>2026-04-11T15:33:43Z</time></trkpt><trkpt lat="44.61297964282455" lon="8.147994688301184"><ele>323.0</ele><time>2026-04-11T15:33:44Z</time></trkpt><trkpt lat="44.61285695285857" lon="8.147978701590901"><ele>323.0</ele><time>2026-04-11T15:33:45Z</time></trkpt><trkpt lat="44.61276224510214" lon="8.147902975913754"><ele>323.0</ele><time>2026-04-11T15:33:46Z</time></trkpt><trkpt lat="44.61268692165596" lon="8.14781236653189"><ele>334.0</ele><time>2026-04-11T15:33:47Z</time></trkpt><trkpt lat="44.61262419531866" lon="8.147722822577796"><ele>334.0</ele><time>2026-04-11T15:33:48.001Z</time></trkpt><trkpt lat="44.61256569747441" lon="8.147651189646394"><ele>334.0</ele><time>2026-04-11T15:33:49.001Z</time></trkpt><trkpt lat="44.61251285053953" lon="8.147588669407217"><ele>334.0</ele><time>2026-04-11T15:33:50.001Z</time></trkpt><trkpt lat="44.61246775217412" lon="8.147525058918102"><ele>334.0</ele><time>2026-04-11T15:33:51.001Z</time></trkpt><trkpt lat="44.61240604880775" lon="8.14739298696506"><ele>334.0</ele><time>2026-04-11T15:33:53.001Z</time></trkpt></trkseg></trk></gpx>